ECMWFNIL_250_spd_000.txt.gz
Wind_Speed
43 43 43 43 42 42 41 40 38 37 36 36 36 36 36 36 36 37 37 36 36 35 35 35 36 37 39 41 42 42 42 41 42 43 46 49 51 52 53 54 54 54
45 44 44 44 44 44 44 43 42 41 40 39 38 39 39 39 38 38 39 39 39 38 38 37 37 37 38 40 41 42 43 43 43 43 45 47 49 51 52 53 53 53
47 46 46 46 45 45 46 45 45 45 44 43 42 42 42 42 41 41 41 41 41 41 41 41 40 39 39 39 40 42 43 43 44 45 45 46 47 50 51 52 53 52
46 45 45 47 48 47 47 47 47 47 47 47 47 46 46 45 44 44 43 43 43 43 44 44 44 44 43 42 41 41 42 44 45 46 46 46 47 48 49 50 51 51
47 46 46 48 49 49 49 49 49 49 49 49 50 49 49 48 48 47 47 46 46 46 46 46 47 47 47 46 45 43 42 43 45 46 48 48 48 48 49 49 49 50
52 52 51 51 51 51 51 52 52 52 52 53 52 51 51 50 50 50 50 49 49 49 49 49 49 49 49 49 49 48 46 45 45 46 47 49 50 50 50 50 49 49
53 55 54 53 52 52 52 53 55 55 55 56 55 54 54 53 52 52 52 52 52 52 52 52 52 52 52 51 51 51 51 50 48 47 47 48 50 51 52 52 52 51
57 56 53 52 52 53 54 56 58 58 58 58 58 57 56 55 55 55 55 55 56 55 55 55 56 55 55 54 54 53 53 53 53 52 51 50 50 51 52 53 53 54
57 55 53 53 54 55 56 58 60 60 58 58 59 58 56 55 56 57 58 59 60 59 58 58 58 58 58 58 57 56 55 55 55 55 55 55 54 53 53 53 54 54
55 56 57 58 56 55 57 60 61 60 59 59 60 59 58 59 59 59 59 60 61 62 62 62 61 60 60 61 60 60 59 58 58 57 57 57 58 57 57 56 56 56
57 60 62 62 61 61 62 63 61 59 60 60 60 60 60 62 63 64 63 62 63 64 64 64 65 65 65 64 63 62 61 61 60 60 60 60 60 60 60 60 60 59
56 58 59 60 62 62 62 64 64 63 63 63 62 62 63 64 65 66 64 65 67 68 68 66 65 65 65 66 65 64 63 63 63 63 63 63 63 62 62 63 63 62
54 55 56 57 58 58 59 61 64 63 63 63 63 63 65 65 65 65 64 64 66 68 70 69 66 63 63 64 65 65 65 65 65 65 65 65 65 65 65 65 65 65
54 54 55 56 56 56 56 58 58 58 59 60 59 59 61 62 62 63 64 63 61 62 64 65 64 63 63 64 66 66 66 67 66 66 66 67 68 68 67 68 68 68
55 55 56 56 56 55 55 57 57 57 56 57 58 58 59 58 58 60 61 60 60 61 60 60 61 62 63 65 68 69 69 69 68 67 67 68 69 70 70 71 71 71
56 56 57 57 56 56 56 57 58 58 57 58 59 60 60 60 60 61 62 62 63 65 64 62 61 63 64 66 69 71 70 69 69 70 71 72 72 73 73 74 75 75
58 59 60 60 58 57 58 58 59 59 59 59 60 61 62 63 64 66 67 67 66 68 70 68 66 66 66 67 69 71 70 68 67 69 71 73 75 76 76 76 77 77
62 62 63 62 61 60 60 61 62 62 61 61 62 62 63 64 64 66 68 68 68 68 69 68 68 69 69 69 70 71 71 70 68 68 69 70 73 75 77 78 78 78
66 66 66 65 65 64 64 64 65 65 64 64 64 65 66 66 66 66 67 67 67 67 65 65 67 70 72 73 74 75 73 72 71 71 70 70 71 72 75 77 79 79
69 68 68 68 68 68 68 68 68 68 68 68 67 67 68 68 68 69 69 69 68 67 64 64 67 70 73 75 75 75 74 72 73 74 73 72 72 73 74 75 77 79
70 70 70 70 70 70 70 70 70 70 70 70 70 70 70 70 70 71 71 72 71 69 66 66 69 72 74 74 73 72 72 72 74 75 74 74 75 76 76 75 77 79
71 71 71 71 71 71 71 71 71 71 71 72 72 72 72 72 72 72 73 74 73 71 70 71 73 74 75 75 74 73 73 74 75 75 75 76 76 77 77 78 79 80
73 72 72 72 72 72 72 72 72 72 72 72 72 73 73 73 73 72 73 73 73 73 73 74 75 76 76 75 75 76 76 77 78 77 77 77 77 77 78 79 81 82
74 74 73 73 73 73 73 73 73 73 73 73 73 73 73 73 73 72 71 71 73 74 75 76 76 76 76 75 76 77 78 79 80 79 79 79 79 79 79 80 82 84
75 74 75 75 75 75 74 74 74 75 75 75 75 74 74 74 72 71 70 70 72 74 75 76 76 75 76 76 77 77 78 79 79 79 79 80 80 81 81 82 83 84
77 76 75 75 75 76 76 76 77 77 77 77 77 76 76 74 72 70 69 71 73 74 75 75 76 76 77 77 77 77 78 79 79 79 79 80 80 81 82 83 83 83

ECMWFNIL_250_spd_003.txt.gz
Wind_Speed
48 48 51 51 50 48 47 47 46 45 43 43 42 40 39 38 37 37 37 37 37 37 37 37 37 36 35 34 34 35 36 37 37 38 38 37 37 37 38 39 42 47
45 46 48 49 48 47 47 48 48 47 46 45 44 43 42 41 40 39 39 40 40 40 40 40 40 39 38 37 36 36 37 38 38 40 40 40 40 39 39 39 40 42
51 49 48 48 48 46 46 48 49 49 48 47 46 45 45 44 43 42 42 42 42 43 42 42 41 41 41 40 39 39 38 38 39 39 40 41 42 42 42 41 42 42
58 54 51 50 48 46 47 49 48 48 48 48 48 48 47 46 46 45 45 44 44 45 45 44 44 43 43 42 42 41 41 40 40 40 40 41 42 43 44 43 44 44
63 58 54 54 52 50 51 50 48 47 47 48 50 50 50 49 48 47 47 47 47 47 47 46 46 46 46 45 45 44 44 43 42 41 41 42 43 43 44 45 45 45
62 59 56 58 58 56 54 52 51 51 50 50 51 50 50 49 50 50 50 50 50 50 49 49 49 49 48 48 47 47 47 46 46 45 44 44 44 44 44 45 46 46
60 60 58 57 58 57 56 56 55 55 54 54 53 51 50 50 51 53 53 53 53 52 52 52 52 52 51 50 50 49 49 49 49 49 48 48 47 46 45 45 45 46
59 57 54 53 55 57 59 59 57 56 56 55 55 54 54 55 56 56 55 56 56 55 54 54 54 54 54 53 53 52 52 52 52 51 51 51 51 50 49 48 47 46
59 56 55 56 60 62 62 61 59 57 56 55 55 56 57 59 59 58 57 57 57 56 57 57 57 56 56 56 56 55 55 55 55 54 54 54 53 53 53 52 51 50
60 60 62 63 63 62 60 60 60 59 56 55 55 55 56 58 57 57 58 57 57 58 58 59 60 60 59 59 59 58 57 57 57 57 57 56 56 55 55 54 54 54
57 59 60 59 59 58 57 57 59 58 57 58 58 57 58 58 57 57 57 58 59 59 60 61 61 61 61 61 61 61 60 59 59 60 59 59 58 58 58 57 57 57
51 52 52 52 52 52 53 54 55 56 57 59 61 61 61 61 61 59 59 60 60 61 61 62 62 63 63 63 63 62 62 61 61 61 61 61 61 61 61 61 60 60
49 47 46 46 49 51 53 53 52 53 54 56 59 60 62 64 65 64 63 63 63 64 65 65 64 64 64 65 65 64 63 62 62 62 62 62 63 64 64 64 64 63
46 45 39 35 40 47 51 52 51 50 51 54 55 57 59 62 64 65 64 65 66 67 69 69 67 66 66 66 66 65 65 64 63 64 64 64 65 66 67 67 67 67
41 44 41 37 42 49 50 49 49 49 51 54 54 54 55 56 58 59 60 61 64 65 67 68 69 70 70 68 67 67 66 66 66 66 65 66 68 70 70 70 70 70
46 48 47 46 52 56 54 52 52 53 53 54 54 53 54 54 55 56 57 58 60 61 63 64 65 67 67 66 66 66 65 64 65 66 66 66 67 69 72 72 71 70
50 50 49 49 53 56 57 57 58 57 55 54 55 54 55 55 55 55 56 57 58 59 61 61 62 63 64 63 63 63 62 61 62 63 65 65 64 64 66 69 70 70
51 51 51 52 54 57 58 59 60 59 57 56 56 56 56 57 56 56 57 58 58 59 60 61 62 63 64 63 63 63 63 63 63 64 64 63 62 60 61 64 66 67
53 52 53 54 57 59 60 60 61 61 61 60 60 59 59 59 59 58 59 60 60 60 61 63 64 66 66 66 65 64 64 65 68 69 69 67 66 65 66 68 69 68
56 55 56 57 59 60 61 62 62 62 63 63 63 62 62 62 62 62 61 62 61 62 63 65 67 68 69 69 68 67 66 66 69 71 72 72 72 72 73 74 75 74
59 58 59 60 61 62 63 63 64 64 64 65 65 65 65 65 65 65 64 64 64 64 66 68 69 70 71 71 71 71 70 69 70 72 72 73 74 74 74 76 77 76
62 63 64 64 65 65 65 65 66 66 67 67 67 67 67 67 67 66 66 66 67 68 69 70 70 71 72 72 73 74 73 73 72 73 74 74 74 74 75 75 76 76
67 67 67 68 68 68 68 68 68 69 69 69 69 69 68 68 68 67 67 67 69 71 72 72 71 72 72 73 74 75 75 75 75 76 76 76 76 76 77 77 77 77
71 71 71 71 72 71 71 70 71 71 71 71 70 70 70 70 69 68 68 69 70 72 73 73 73 73 73 74 74 75 76 77 77 77 78 78 79 79 79 79 79 79
73 73 74 74 74 74 73 73 74 74 74 73 72 72 71 70 69 68 68 70 71 72 72 73 73 74 74 75 75 76 77 78 79 78 79 80 80 81 81 81 81 81
75 75 76 76 76 76 76 76 76 76 76 75 74 74 72 71 69 68 68 70 71 72 72 73 73 74 74 75 76 76 77 78 79 80 80 81 81 82 82 82 82 82

ECMWFNIL_250_spd_006.txt.gz
Wind_Speed
46 48 47 46 48 48 46 45 46 46 45 43 41 41 41 42 42 43 42 41 41 41 39 37 36 35 35 36 36 36 36 36 36 35 34 34 33 33 33 34 35 37
44 47 49 48 49 50 48 45 44 43 42 41 41 42 42 41 42 42 43 43 44 43 42 41 40 38 38 38 38 38 38 38 38 37 36 36 35 35 34 34 35 36
44 44 46 45 46 49 47 44 43 42 43 43 45 45 44 43 43 42 43 45 45 45 45 44 44 43 41 41 41 41 41 41 40 40 39 38 37 37 36 36 36 36
46 44 43 42 43 46 46 44 43 44 45 48 50 51 50 48 46 44 43 44 45 46 47 47 46 46 45 45 44 43 43 43 43 42 42 41 40 39 39 38 37 37
50 49 47 45 44 45 46 46 45 45 47 51 54 56 56 54 52 49 45 44 45 46 46 47 48 48 48 48 47 47 46 46 45 45 44 44 43 42 41 40 39 39
53 51 49 50 52 52 51 49 48 49 53 56 57 58 58 57 56 54 50 48 47 47 47 48 49 49 50 49 50 50 49 49 49 48 48 47 46 45 44 43 42 41
55 54 53 54 57 59 58 58 58 61 63 62 61 59 58 57 57 57 55 53 52 52 51 51 50 50 51 51 51 51 52 52 52 52 51 51 49 48 47 46 45 44
58 60 61 60 61 63 64 65 68 70 69 66 63 60 58 57 57 58 57 55 55 56 56 55 54 53 53 53 52 53 53 54 54 54 54 53 53 52 51 50 49 48
59 62 64 64 64 66 67 68 70 70 68 65 61 59 57 56 55 55 56 57 57 58 59 59 58 57 56 55 55 55 55 55 55 56 56 56 55 54 54 53 52 52
57 59 62 63 63 63 64 65 64 64 62 61 59 58 58 57 56 56 58 59 59 60 60 61 61 60 60 60 60 59 58 58 58 58 58 57 57 56 56 56 55 55
54 57 59 60 59 59 59 59 58 57 56 57 58 59 59 60 60 60 60 59 58 58 60 61 61 61 62 63 63 62 62 61 60 60 60 59 58 58 58 58 58 58
53 55 56 57 57 56 55 55 54 52 53 55 56 57 57 58 58 59 59 57 56 56 57 59 61 61 62 62 62 62 62 62 62 61 61 60 59 60 60 59 59 60
46 47 50 51 53 54 52 52 52 52 51 51 52 53 54 54 52 53 55 56 56 57 57 58 59 61 62 62 62 62 61 62 63 63 62 61 60 60 61 61 61 61
39 42 43 43 44 47 47 47 49 51 50 49 49 48 47 48 48 48 51 53 54 55 56 57 58 60 62 63 63 64 64 64 63 63 62 62 61 60 61 61 63 63
36 37 39 40 39 40 42 44 47 48 48 51 52 49 45 47 50 51 53 55 54 52 51 52 54 56 59 61 63 65 67 68 68 66 65 64 63 62 62 63 64 65
42 40 40 44 44 41 42 46 48 45 44 50 56 56 55 56 55 53 53 54 52 51 50 49 51 53 56 58 60 62 65 67 68 69 67 66 66 65 65 65 66 67
51 50 51 51 50 47 46 48 51 48 46 49 55 58 60 61 60 57 55 54 55 55 54 53 52 54 57 59 60 61 62 63 65 66 66 65 66 66 65 65 67 69
57 60 61 60 59 58 55 54 56 57 55 55 56 59 61 62 62 61 59 59 59 60 59 57 56 57 59 60 62 63 63 63 64 64 64 64 64 64 64 65 67 69
59 62 66 66 65 64 63 62 62 63 64 64 64 64 64 63 63 62 62 62 62 62 62 61 61 61 61 62 63 64 65 65 65 65 65 64 64 63 64 65 67 67
60 62 63 64 64 63 63 63 62 63 64 65 65 65 63 63 63 63 63 64 64 65 65 65 65 64 64 64 65 66 67 67 67 67 67 66 66 65 65 66 67 68
59 61 62 63 63 63 63 63 62 62 62 62 63 63 63 64 64 64 65 66 67 68 69 69 69 68 67 68 68 68 69 69 69 70 69 69 69 69 68 69 70 70
58 60 62 64 64 64 64 63 63 62 62 62 62 63 64 65 65 67 68 69 70 71 71 71 71 71 70 71 71 71 71 71 72 73 73 73 73 72 72 72 73 73
59 62 63 64 64 64 64 64 63 62 62 63 64 65 66 66 67 68 69 70 71 72 73 73 74 73 73 73 73 73 73 73 74 75 75 76 76 76 76 75 75 76
61 63 63 63 63 64 64 64 64 65 65 66 67 67 68 68 69 70 70 71 72 72 73 74 74 75 74 74 74 75 75 75 76 76 77 77 78 78 78 78 78 78
63 64 64 64 64 65 65 66 67 68 69 69 69 69 69 70 70 71 71 72 72 73 73 74 74 75 75 75 75 75 76 76 77 77 78 78 79 79 79 79 80 80
65 66 66 67 67 68 68 69 71 72 72 72 71 71 71 71 71 72 72 73 73 74 74 74 74 74 74 75 75 76 76 76 77 78 78 78 79 79 80 80 80 81

ECMWFNIL_250_spd_009.txt.gz
Wind_Speed
47 47 48 46 43 42 40 39 39 39 38 38 38 39 39 39 37 37 36 33 31 30 30 31 32 34 36 37 37 37 36 35 34 33 33 33 33 33 32 30 29 29
48 49 50 48 45 44 43 42 42 42 41 40 39 39 39 38 37 37 36 34 33 34 35 36 36 36 36 37 37 38 38 38 37 36 35 35 36 35 35 34 33 31
47 50 51 50 48 46 45 44 43 42 41 39 37 36 36 36 36 37 36 36 36 37 38 39 41 41 40 39 39 39 39 39 39 39 38 37 37 37 37 36 36 35
46 52 56 54 52 50 48 47 45 43 42 39 37 36 36 36 37 38 38 38 38 38 39 42 44 45 45 44 42 41 40 40 41 41 40 40 40 39 39 39 38 37
47 52 56 57 57 56 54 50 48 46 44 42 40 41 41 41 41 42 42 42 42 43 46 48 49 49 48 47 47 45 43 42 42 42 42 42 42 42 41 41 41 40
53 54 57 58 60 60 57 52 49 47 45 44 44 45 45 45 46 48 49 49 50 52 55 56 55 53 51 49 49 48 47 45 43 43 43 43 44 44 44 44 43 43
56 58 60 60 60 60 58 54 51 48 47 47 48 49 49 49 50 52 55 56 57 59 61 61 60 57 54 51 50 50 50 48 47 46 45 44 45 46 46 46 46 46
57 59 61 61 60 59 59 58 55 52 51 51 51 53 55 56 57 58 59 60 61 62 63 63 62 59 56 53 51 50 51 51 50 49 48 47 47 47 48 49 48 48
57 58 58 59 60 61 61 61 59 57 56 55 55 57 60 62 64 65 65 65 64 65 64 62 60 58 55 53 51 50 51 52 51 50 50 50 50 50 50 50 51 50
54 56 55 57 60 61 61 61 61 61 61 60 60 61 63 65 66 66 65 65 64 63 61 59 57 56 55 54 53 52 52 52 52 52 52 52 53 53 52 52 52 51
49 51 54 56 59 57 54 55 57 59 60 61 61 62 63 64 64 63 62 61 60 59 58 57 56 55 55 55 55 54 54 54 54 55 55 55 55 55 55 55 55 54
47 48 50 53 55 54 52 51 53 55 56 57 58 59 60 61 62 61 60 58 57 56 56 56 56 55 55 56 56 55 55 55 56 57 57 56 56 56 57 57 57 57
49 49 50 51 52 53 53 53 54 55 54 53 53 54 55 57 58 59 59 59 57 56 57 57 56 56 57 56 56 55 54 55 55 55 55 55 55 56 56 57 58 59
50 50 49 49 51 52 53 54 55 54 51 50 49 49 48 49 52 54 54 53 50 50 54 57 57 55 53 51 50 50 49 49 50 50 50 52 53 55 56 57 58 58
49 50 48 45 46 49 52 54 53 51 49 48 48 48 48 47 47 48 48 47 45 47 53 58 56 51 47 43 41 42 43 45 47 47 48 49 51 54 56 57 59 60
47 50 50 48 47 49 50 50 50 50 51 50 47 48 50 48 47 47 48 48 49 50 54 57 56 53 49 46 43 41 43 46 49 50 49 49 51 53 55 56 58 60
52 52 53 55 56 56 54 52 51 52 52 50 48 50 51 50 49 50 51 51 51 52 55 57 57 57 55 53 51 49 49 50 52 53 53 53 54 55 55 56 57 58
56 56 55 56 60 60 58 57 57 57 56 51 49 50 52 52 53 52 52 52 52 54 57 58 60 61 60 58 57 56 56 57 58 58 58 58 58 59 60 59 58 58
58 59 59 59 61 63 61 59 60 61 60 57 53 53 53 54 55 54 54 54 55 57 59 60 60 61 61 61 61 61 62 63 63 63 61 60 60 61 63 64 63 62
59 61 62 62 63 65 65 63 62 63 63 62 60 59 58 57 58 58 58 57 57 59 61 62 63 64 65 66 67 67 67 67 67 66 65 64 63 63 65 66 67 68
60 61 63 63 64 65 67 67 67 67 67 66 66 65 64 64 64 65 66 65 64 64 65 66 68 70 71 72 71 71 70 69 68 67 67 67 66 66 67 68 69 71
60 60 61 63 64 65 67 69 70 70 70 71 71 72 72 72 71 71 71 71 71 71 72 73 74 74 73 73 72 72 71 70 70 69 69 69 70 70 70 71 71 72
58 59 60 62 63 65 67 70 72 72 72 73 74 76 77 79 78 78 78 78 78 78 78 77 76 75 74 73 73 73 73 72 72 72 72 72 73 73 74 74 75 75
55 56 58 60 62 64 67 70 71 72 72 73 74 75 77 79 80 82 82 82 82 80 78 76 75 75 74 74 74 74 75 75 75 75 76 76 76 77 77 77 77 78
53 55 57 59 61 64 67 69 70 71 71 71 72 73 73 75 76 77 78 78 77 76 75 75 75 75 75 75 75 76 76 77 77 78 78 79 79 79 79 79 79 79
55 56 58 59 62 64 66 68 69 69 69 69 69 69 70 72 73 74 75 75 75 76 76 76 76 75 75 75 76 77 78 79 80 80 80 80 80 80 80 80 80 80

ECMWFNIL_250_spd_012.txt.gz
Wind_Speed
37 38 40 42 43 41 41 40 38 38 38 37 36 36 36 36 36 35 36 36 37 37 36 35 33 31 31 30 29 27 26 25 25 26 27 29 29 30 29 29 28 28
37 36 38 44 47 46 45 43 41 39 39 39 37 36 36 36 36 36 37 38 38 37 35 34 33 32 32 32 32 31 29 27 26 27 29 31 33 33 33 32 32 31
37 37 39 45 49 49 49 47 45 42 41 42 42 41 41 40 38 38 39 39 39 36 32 31 32 32 33 33 34 33 31 29 27 28 31 34 36 37 36 35 35 34
36 39 41 43 47 49 50 49 49 48 46 45 46 46 45 44 43 43 42 41 40 38 35 33 33 34 34 35 35 36 35 34 34 35 38 39 39 39 39 38 37 36
40 44 43 43 45 48 50 49 49 51 51 49 49 49 47 46 46 46 45 43 41 41 41 40 38 38 38 38 38 39 40 42 43 44 45 44 43 42 41 41 39 38
45 50 50 48 47 48 50 51 52 53 54 53 52 51 50 49 49 49 47 46 44 43 43 43 42 41 42 42 43 44 45 47 48 48 48 47 47 45 43 43 42 40
48 52 53 52 50 49 50 52 53 54 56 56 54 53 53 52 51 50 49 48 47 46 46 45 45 45 46 47 48 49 49 50 50 50 50 50 50 47 45 44 44 43
51 52 53 53 51 50 50 50 51 51 52 53 53 53 54 54 53 52 51 50 50 50 49 49 48 49 49 51 52 53 54 54 54 54 54 53 52 49 46 44 44 45
55 53 53 53 53 54 53 53 53 54 54 53 53 52 51 53 54 54 55 55 55 54 53 52 53 53 54 55 56 57 57 58 58 57 56 54 51 48 46 45 44 45
57 56 54 54 56 57 56 56 58 59 58 57 57 55 54 54 55 56 58 59 59 58 57 57 57 57 58 59 59 59 60 60 59 58 56 53 50 47 46 45 45 44
57 58 57 57 57 58 58 58 58 59 59 58 57 56 57 57 56 57 58 57 57 56 56 58 58 59 60 61 61 61 61 61 60 58 55 52 49 48 46 45 46 45
55 58 60 60 57 55 56 57 57 58 58 57 55 55 56 56 55 55 55 56 56 56 56 57 58 58 59 60 61 61 61 61 60 58 55 52 50 48 46 44 44 45
53 54 56 59 57 53 52 53 54 55 55 55 56 58 59 58 55 54 55 57 59 59 59 59 59 59 60 60 61 61 61 61 60 58 54 50 46 44 42 42 42 43
52 53 54 54 55 55 54 54 54 55 53 51 52 56 58 58 57 56 57 59 59 61 62 61 60 60 61 63 62 60 57 54 51 49 46 43 40 38 38 39 40 41
52 54 54 53 53 54 55 56 56 55 52 48 47 50 53 55 55 55 57 59 60 62 62 61 60 59 60 61 59 55 51 44 37 37 39 39 38 37 37 37 38 39
54 53 54 54 54 55 56 57 57 56 55 53 49 49 52 54 53 54 54 54 56 59 59 58 59 58 58 58 56 53 49 43 37 36 37 37 38 38 39 40 40 41
55 55 55 54 55 56 58 60 59 56 57 57 54 53 56 56 54 53 52 48 50 55 57 58 59 59 58 58 56 55 53 50 46 43 41 40 40 41 41 43 44 45
55 56 56 56 55 56 57 59 60 58 57 58 58 58 60 60 58 57 56 52 51 53 54 56 58 58 58 58 56 56 56 56 54 51 48 46 45 44 44 45 46 47
56 57 58 58 57 57 57 57 58 59 59 59 59 59 60 60 60 61 61 61 60 59 58 59 59 58 58 59 59 58 58 59 59 57 54 53 51 50 50 50 50 51
58 58 59 59 60 60 60 59 59 60 61 62 62 62 62 62 62 63 64 65 66 66 66 66 65 63 62 63 63 62 61 61 61 60 59 58 57 56 56 56 57 58
61 60 60 60 61 62 63 63 63 63 64 64 65 65 65 65 65 66 67 68 69 69 69 69 69 68 68 68 68 67 65 64 63 62 61 60 60 60 60 60 61 63
62 62 62 62 63 64 64 64 65 65 65 66 66 65 65 66 67 68 69 70 72 72 71 70 70 70 70 71 71 71 70 68 67 66 65 64 63 63 64 65 66 69
60 61 62 63 65 65 66 66 66 66 66 66 66 65 66 67 69 71 72 73 75 75 75 74 73 72 71 72 73 74 73 72 71 70 70 69 69 69 70 71 72 74
57 58 61 63 64 65 65 66 66 67 67 68 68 68 69 69 71 72 74 76 77 79 80 80 79 77 76 75 75 76 76 76 75 75 75 75 75 75 76 77 78 79
56 58 60 61 62 62 64 65 66 67 68 69 70 70 71 72 72 73 75 76 78 79 81 83 84 84 84 83 82 81 81 81 81 81 82 82 81 81 82 82 83 84
58 59 60 61 60 61 62 63 65 66 68 69 70 70 71 72 73 74 76 77 78 80 81 82 84 84 85 85 85 85 85 85 86 86 86 86 86 86 86 86 86 84

ECMWFNIL_250_spd_015.txt.gz
Wind_Speed
36 35 36 37 38 39 39 39 38 37 38 38 36 35 35 34 33 32 31 31 30 29 29 30 31 31 32 32 34 34 34 33 32 30 29 27 24 22 21 20 19 20
39 37 38 38 39 39 39 41 41 41 41 42 41 39 37 36 34 34 33 32 31 31 31 31 32 32 33 34 35 35 35 34 33 33 32 31 29 26 24 22 20 19
41 40 40 38 38 38 38 41 44 45 45 46 45 43 41 39 37 36 36 36 36 36 36 35 34 35 35 36 36 36 36 34 34 34 34 34 33 31 29 27 24 23
39 40 41 41 40 38 37 40 44 46 48 48 48 47 45 44 42 41 39 38 38 38 38 37 37 37 37 37 37 37 37 36 35 35 35 36 36 35 35 33 32 31
43 43 43 44 45 43 41 43 46 48 49 49 50 50 50 49 48 47 45 43 41 41 40 40 41 40 40 39 38 38 39 40 39 38 38 38 38 38 39 39 39 39
47 48 46 45 46 47 47 48 50 51 50 50 50 51 51 50 50 50 50 49 48 46 44 43 44 44 43 43 42 41 41 42 43 43 43 43 42 42 42 42 43 43
50 51 49 47 47 49 50 51 51 51 51 51 51 52 52 51 50 49 50 51 51 50 48 47 47 47 46 46 45 45 44 44 45 46 46 46 46 46 46 46 46 45
53 53 52 51 49 50 52 53 53 52 51 50 50 50 49 49 48 47 46 46 46 47 48 49 49 49 48 47 46 46 47 47 47 48 48 49 48 48 48 48 47 46
56 56 55 54 53 52 53 55 56 55 52 49 47 47 48 48 47 46 44 43 44 45 46 48 50 51 51 51 49 48 48 49 49 50 50 50 50 50 49 48 47 46
58 58 57 56 55 53 53 55 58 58 56 53 51 51 51 51 51 51 50 50 51 53 53 54 55 55 55 55 55 53 52 51 50 49 49 48 48 49 48 47 47 46
60 60 58 57 56 54 53 55 58 59 58 57 57 56 55 55 55 56 56 57 58 59 60 60 60 60 59 58 57 56 55 54 52 50 48 47 47 46 46 45 46 46
61 60 59 57 56 55 53 55 57 59 59 60 60 59 57 56 56 57 58 59 60 61 62 62 63 63 61 60 58 57 56 55 54 51 49 48 46 44 44 44 45 45
61 60 59 58 57 56 55 55 57 59 61 61 61 61 61 59 58 60 61 62 62 62 62 63 63 63 62 60 60 59 58 57 55 53 51 47 44 42 42 43 43 43
62 62 61 60 59 58 56 56 57 60 62 62 62 62 61 60 60 62 65 66 67 66 65 65 64 63 62 61 60 60 58 57 55 53 51 46 41 39 40 42 42 41
63 63 62 62 61 60 58 57 57 60 63 65 64 63 60 59 58 59 61 63 65 66 66 65 64 62 61 60 59 60 59 56 54 51 48 44 40 37 37 38 40 38
64 63 63 62 62 61 60 59 58 59 62 65 66 65 64 62 59 56 56 57 59 60 61 62 63 61 60 58 57 58 59 57 55 52 49 45 41 38 37 38 38 38
65 64 63 63 63 62 61 60 59 59 61 64 66 65 64 63 60 56 53 53 55 56 56 60 62 60 59 57 55 56 57 57 56 56 55 52 47 44 42 40 40 40
65 65 64 63 63 63 62 62 61 60 60 62 65 65 64 63 60 57 54 55 57 57 57 60 61 60 58 57 55 54 54 55 56 57 59 60 57 53 49 45 43 42
66 66 65 64 64 64 63 63 62 61 61 61 63 64 64 63 61 59 59 60 61 61 60 61 62 61 59 57 57 56 56 56 57 59 61 63 63 62 59 54 50 46
68 67 67 66 65 65 65 64 63 62 61 61 62 63 64 64 64 65 66 66 66 66 65 64 64 64 62 60 59 60 60 60 60 61 62 63 65 66 66 64 60 56
68 68 68 68 67 67 66 66 64 63 62 62 63 64 65 66 67 69 70 70 70 70 69 67 65 64 64 62 61 61 62 63 63 63 64 65 66 67 68 68 67 65
67 67 68 68 68 68 67 67 65 64 63 63 64 66 67 67 68 69 71 71 72 72 71 69 67 66 65 64 63 63 64 65 65 65 65 66 67 68 69 69 69 69
64 65 66 67 67 67 67 67 66 66 66 66 66 67 68 69 70 71 70 70 71 73 72 70 69 68 67 67 67 67 68 69 69 69 68 68 68 69 70 71 72 72
62 63 64 65 65 66 66 66 66 67 67 68 67 68 70 72 73 73 71 70 71 74 73 72 72 72 72 72 72 71 71 72 73 73 73 72 72 73 73 74 75 75
61 62 63 63 63 63 64 64 64 65 67 68 69 70 73 74 75 75 74 73 73 74 75 75 75 76 76 76 76 75 75 74 75 75 76 76 77 77 78 79 79 80
62 63 63 62 61 61 61 62 62 63 65 66 68 69 72 74 75 76 76 76 76 76 76 77 77 78 78 78 77 77 77 77 77 77 78 78 79 79 80 81 82 83

ECMWFNIL_250_spd_018.txt.gz
Wind_Speed
39 38 37 37 37 35 34 33 31 30 31 34 34 33 34 34 34 34 35 36 35 35 35 34 34 34 33 33 33 33 32 31 32 31 30 29 29 30 31 30 29 28
44 42 42 41 39 36 35 35 34 33 33 35 35 35 36 37 37 38 39 40 39 38 37 36 36 36 35 35 35 34 34 33 33 33 33 32 30 30 31 32 32 30
50 49 47 45 42 37 35 35 35 36 36 37 37 39 40 40 40 41 42 42 42 41 40 39 39 39 39 38 38 38 38 37 37 36 35 35 34 32 31 34 35 35
52 52 51 49 45 39 36 35 35 36 38 40 40 42 44 44 42 42 42 43 43 43 43 43 42 41 41 40 40 39 39 39 38 37 36 36 36 35 34 35 37 37
50 50 50 49 46 42 39 38 38 38 39 42 43 44 47 48 47 45 45 45 45 46 46 45 44 42 40 40 39 39 39 39 39 38 38 37 37 37 37 37 38 38
50 47 45 45 45 44 42 41 40 39 39 43 46 47 49 51 51 50 49 49 49 49 49 48 48 46 44 42 41 40 39 38 38 38 38 38 38 38 38 39 40 40
54 50 47 46 46 46 46 45 43 42 42 45 48 50 52 53 54 54 54 53 52 52 51 51 50 49 49 48 46 44 42 41 40 38 37 37 37 38 38 39 41 43
59 56 53 50 50 50 51 51 49 48 48 48 50 52 54 54 55 56 56 55 54 54 53 53 52 51 51 50 50 50 49 47 45 43 41 39 37 37 37 39 41 43
64 61 57 55 54 55 56 57 56 54 53 52 52 54 56 56 56 56 56 56 56 55 54 53 52 51 51 51 52 52 52 52 52 50 48 45 43 41 39 39 39 41
67 66 64 62 61 62 62 63 63 62 61 58 55 55 57 58 57 57 57 57 57 56 54 53 52 52 52 53 54 55 56 56 56 56 54 52 49 47 44 42 40 39
70 70 70 69 68 68 68 69 70 69 67 63 59 57 57 58 59 59 58 58 58 58 58 57 56 56 57 58 58 59 59 59 59 59 58 57 54 51 48 46 43 41
71 72 73 73 73 74 74 75 74 72 69 65 62 60 59 59 59 59 60 60 60 60 60 60 60 60 61 61 61 61 61 61 61 61 61 60 58 54 50 47 44 42
70 71 71 71 72 73 74 74 72 70 67 66 64 63 62 61 60 60 61 62 63 63 62 62 61 61 62 62 62 63 63 63 63 63 63 62 60 55 50 46 44 43
67 68 68 68 67 68 69 69 69 68 67 67 65 64 63 63 62 61 61 62 64 65 64 64 63 63 64 65 65 65 66 66 65 65 64 62 59 54 49 45 43 44
67 68 68 68 67 68 68 69 69 68 68 68 67 66 65 65 64 63 62 62 63 64 65 64 64 64 65 66 66 66 66 66 67 66 65 63 60 54 49 47 44 43
68 69 70 70 69 70 70 70 69 69 69 69 69 68 67 67 66 65 64 63 62 63 65 66 66 65 65 66 67 67 68 68 68 67 65 65 62 56 52 49 45 43
68 70 71 71 71 71 71 71 71 71 71 71 70 70 69 68 67 66 64 63 63 63 64 66 67 67 68 68 67 67 69 70 70 69 66 65 63 60 57 53 49 47
70 71 72 72 72 72 73 73 73 72 72 71 71 70 69 68 67 66 65 64 63 63 64 65 67 68 68 67 65 64 65 67 68 68 67 65 63 61 60 58 56 54
72 73 73 73 74 74 74 74 74 74 73 72 71 70 69 68 67 67 66 65 64 64 64 66 66 67 67 66 63 62 61 61 62 62 62 62 62 61 60 60 60 59
74 74 74 75 75 75 76 76 75 74 73 72 71 70 68 68 67 67 67 66 66 65 65 66 68 68 68 66 64 62 60 59 59 59 59 58 60 62 62 62 61 61
76 76 76 76 76 77 77 77 77 76 75 73 72 71 69 68 68 67 68 68 67 66 66 67 68 68 68 67 66 66 65 64 63 63 62 61 61 63 65 65 64 64
76 77 77 77 77 78 78 78 78 77 76 75 74 73 72 70 69 69 69 69 68 68 67 67 67 68 68 69 69 70 70 70 70 68 66 65 65 66 68 68 67 66
74 75 75 75 75 76 76 76 76 75 75 75 74 73 72 71 71 70 70 70 70 70 69 68 68 68 69 71 73 73 72 73 73 72 70 69 69 69 70 71 70 68
69 69 69 69 69 70 70 71 71 71 72 72 72 72 72 71 70 70 71 72 72 71 71 70 70 71 73 75 74 74 73 74 74 74 72 71 71 71 71 71 71 71
64 64 63 63 64 65 66 67 67 68 69 69 70 70 70 70 70 69 70 71 72 72 72 72 73 77 81 81 78 75 75 75 75 74 73 73 73 73 73 72 73 73
64 64 63 63 63 63 65 66 66 67 67 67 68 68 68 69 69 69 69 69 70 71 72 73 75 79 83 85 82 79 77 77 75 74 74 74 74 74 75 76 76 76

ECMWFNIL_250_spd_024.txt.gz
Wind_Speed
56 55 53 51 48 47 46 46 44 42 41 41 41 41 39 37 35 34 33 35 36 35 33 32 31 31 30 29 29 29 30 31 32 33 33 33 32 32 33 34 35 36
53 51 50 48 46 44 43 43 42 42 42 42 42 42 42 40 39 39 39 40 41 39 37 34 34 35 35 35 34 33 32 32 33 34 35 35 35 35 35 35 36 38
51 50 48 47 46 45 43 42 41 41 41 42 42 42 43 44 45 45 45 45 44 42 39 37 37 38 39 40 40 39 37 35 35 36 37 37 38 38 38 37 37 38
51 50 50 49 49 49 47 45 44 44 44 43 43 44 45 47 47 48 48 47 46 44 43 42 42 42 43 43 43 43 43 41 40 40 41 41 41 41 41 40 39 37
56 53 52 52 52 53 52 50 49 49 49 49 49 49 49 49 49 50 50 50 50 48 47 46 46 46 46 46 45 46 46 46 46 46 46 46 46 46 45 44 42 40
60 58 56 55 55 56 55 55 54 54 54 54 54 53 53 54 53 53 53 53 52 51 49 49 49 49 48 48 48 48 49 49 49 50 50 51 52 51 50 48 46 44
60 61 61 60 60 59 59 58 58 58 58 57 57 56 56 57 56 56 55 54 53 53 52 52 51 51 51 51 51 51 51 52 53 54 55 56 56 56 54 52 50 48
60 60 62 63 64 64 63 62 61 60 59 58 58 57 57 57 57 56 55 55 55 55 54 53 53 53 53 53 53 53 53 54 56 57 58 59 59 58 56 55 53 51
61 60 60 61 63 64 64 64 63 62 62 61 60 60 59 58 57 56 55 55 55 55 56 56 55 55 56 55 55 55 56 57 58 59 60 60 60 59 57 55 54 53
62 62 62 61 62 62 62 62 63 64 64 64 63 62 61 60 58 58 57 57 56 57 57 57 57 57 57 57 57 58 58 59 60 61 62 60 59 57 55 54 54 54
62 62 62 63 63 63 62 62 62 63 65 65 66 66 64 63 61 60 60 60 60 60 60 59 59 58 58 58 58 58 59 60 60 61 60 59 57 56 54 54 54 55
61 61 61 62 63 64 63 62 60 60 61 62 64 66 67 67 66 65 64 63 62 62 62 62 62 62 62 62 61 61 61 61 61 60 59 57 56 55 54 54 54 55
61 61 61 62 63 64 64 63 61 59 59 60 60 62 63 65 67 68 68 68 66 65 65 64 65 66 66 66 65 64 64 63 62 61 60 58 57 56 56 56 56 56
63 63 64 65 65 65 64 63 62 62 62 62 62 63 63 64 65 66 67 68 68 67 67 66 66 66 66 66 66 65 65 64 63 62 60 59 58 58 58 58 58 58
64 64 64 65 64 64 64 64 65 66 66 66 65 65 65 65 65 66 66 66 66 66 65 64 63 63 64 65 66 65 65 64 63 63 62 61 60 59 59 59 59 59
64 64 65 65 65 66 67 67 68 67 67 66 66 66 66 66 66 65 65 65 63 62 62 61 61 61 62 64 65 65 65 65 64 64 63 63 61 60 59 60 61 62
64 65 66 67 67 67 67 67 66 66 66 65 65 66 65 65 65 65 65 65 63 62 61 61 61 61 63 63 63 63 64 64 64 64 64 63 63 63 61 61 62 63
64 66 66 66 66 65 65 64 63 64 65 65 65 65 64 64 64 64 64 64 63 62 61 61 60 61 63 64 63 62 63 63 63 64 64 63 63 64 63 61 62 62
69 68 66 65 63 62 61 61 60 60 61 62 62 62 63 63 62 61 61 61 61 61 61 60 59 60 63 64 63 62 61 61 60 61 61 61 62 63 63 62 61 61
72 70 69 66 63 61 59 58 58 57 56 58 59 60 62 63 63 62 63 63 63 62 62 61 59 61 63 63 59 57 57 56 56 57 60 62 62 63 63 63 63 63
73 73 72 70 68 66 62 60 61 60 60 61 63 64 66 68 68 68 68 67 65 64 64 64 63 63 65 64 60 58 58 58 58 60 62 62 63 64 64 65 66 65
73 73 73 72 71 69 66 65 66 67 67 68 69 69 70 71 71 71 71 69 68 67 66 66 66 66 67 67 67 65 64 63 64 64 65 66 68 68 67 68 68 68
74 73 74 73 71 69 67 68 69 70 71 71 72 72 72 72 73 73 73 72 71 70 69 70 70 70 70 70 71 71 71 72 72 73 74 74 72 71 70 71 72 71
75 75 75 75 73 71 69 70 71 72 72 73 73 74 74 75 76 76 76 75 74 73 73 72 72 71 70 70 71 73 74 76 76 76 75 72 70 70 70 71 73 71
75 75 75 75 74 72 70 71 72 72 73 73 74 75 75 76 76 75 75 74 73 72 71 69 68 68 68 69 71 72 74 74 73 72 71 68 68 68 68 69 71 70
76 75 75 74 73 70 68 68 68 69 70 71 71 72 72 72 71 70 69 68 67 66 65 65 64 64 66 68 68 68 70 69 68 69 69 68 67 66 65 67 70 68

ECMWFNIL_250_spd_027.txt.gz
Wind_Speed
56 56 57 58 58 59 59 59 58 57 56 54 52 51 50 48 47 45 46 46 45 45 43 42 40 39 39 40 40 40 41 40 38 36 36 37 38 38 38 38 38 37
59 59 59 59 60 60 60 59 58 57 55 52 50 48 46 44 43 42 43 44 44 43 43 42 41 40 41 41 41 42 42 41 40 39 39 40 40 40 41 41 41 41
60 60 60 59 58 58 58 57 56 54 52 50 48 46 44 43 42 41 41 42 43 43 43 43 42 42 42 43 43 43 43 42 42 42 42 42 42 41 42 42 43 44
60 60 60 59 57 56 56 55 54 52 50 49 48 47 46 45 44 42 42 42 43 43 44 45 45 46 45 45 45 45 46 46 46 46 44 43 43 43 43 45 45 45
61 62 62 60 58 57 56 54 53 52 51 49 49 49 49 49 49 48 47 47 48 48 49 50 50 50 49 49 49 50 50 50 49 48 46 44 44 44 46 47 47 46
58 59 59 59 58 57 56 56 54 53 52 51 51 51 51 52 52 53 53 54 54 54 55 55 54 54 53 53 53 53 53 52 50 49 47 46 46 47 48 49 48 48
54 55 56 55 55 56 56 57 57 56 55 55 55 54 54 54 55 55 56 56 57 58 58 58 57 56 55 55 54 54 53 53 52 51 50 50 50 50 51 50 50 50
53 54 54 53 53 53 54 55 57 58 58 58 57 58 58 58 58 58 59 59 59 59 59 58 57 56 56 56 56 55 55 55 54 54 53 53 53 53 53 53 53 53
52 52 52 52 52 53 53 53 54 56 57 58 58 59 59 59 60 59 59 59 59 59 58 58 57 57 57 56 56 56 56 56 56 56 56 56 55 55 55 55 55 55
53 52 53 53 52 53 53 54 55 56 57 58 59 60 60 61 62 62 61 61 60 60 59 59 59 58 58 58 57 57 57 56 57 57 57 57 57 57 57 57 57 58
55 54 54 54 54 55 56 56 57 57 58 59 59 60 61 62 63 63 64 64 64 63 63 62 61 60 59 59 59 58 58 57 58 58 58 58 59 59 60 60 60 59
52 55 57 57 56 57 58 58 58 58 58 59 59 59 59 59 59 60 61 62 62 63 63 62 62 62 62 62 62 62 61 60 60 60 60 60 60 61 61 61 59 58
41 44 49 54 55 56 58 58 58 58 58 58 58 58 57 57 58 58 58 59 59 60 60 60 61 62 64 65 65 65 65 64 62 62 61 62 62 61 61 59 58 57
32 33 36 43 47 51 54 56 58 58 58 58 58 58 58 58 59 60 61 61 61 62 62 62 63 64 65 65 65 65 65 64 63 62 61 62 61 61 60 59 58 58
26 25 28 33 38 43 48 51 55 58 59 59 60 61 61 61 62 63 64 64 64 64 65 66 66 66 66 65 64 64 63 63 62 61 60 60 59 58 58 58 58 58
27 21 22 28 35 42 46 48 52 56 58 59 61 61 63 64 65 66 66 66 67 68 69 69 69 67 65 64 64 63 62 61 60 59 58 58 58 57 58 58 59 59
34 29 27 26 31 40 46 47 50 54 55 58 61 62 63 64 65 65 66 67 68 69 70 70 69 67 66 65 65 63 62 60 58 57 57 57 58 59 60 60 61 61
44 43 41 38 35 39 45 47 49 52 54 56 58 60 61 62 63 64 66 67 67 67 68 68 68 67 66 65 64 63 61 59 58 58 58 59 60 61 62 63 63 64
52 52 52 52 51 50 51 52 54 58 59 60 60 60 61 64 67 69 69 68 67 67 67 67 67 66 65 64 62 61 59 59 59 60 61 62 62 64 64 64 64 65
58 57 57 59 60 61 63 66 69 71 72 73 73 73 73 74 76 76 73 71 70 70 69 69 68 67 65 64 63 62 62 62 63 64 65 64 64 65 65 65 64 64
69 69 68 68 69 71 74 77 81 82 81 81 81 82 81 80 79 76 74 74 75 74 73 73 72 70 69 68 68 68 68 67 67 67 67 66 66 66 66 65 65 64
75 76 77 77 78 79 82 84 86 86 84 82 81 81 80 79 78 76 75 76 77 76 75 74 73 72 72 71 71 72 72 71 70 70 69 69 69 70 69 69 68 67
75 75 76 77 78 79 80 81 82 82 82 80 79 79 79 78 78 77 77 77 78 78 77 76 75 74 73 73 73 73 73 73 73 73 72 72 72 73 73 73 71 70
73 73 74 74 75 76 76 77 79 80 80 80 80 80 80 79 79 79 79 79 79 79 78 77 76 76 75 75 76 76 76 76 76 76 75 74 74 74 73 72 72 72
73 73 73 74 74 75 76 77 79 80 81 81 81 81 81 81 80 80 80 80 80 80 79 78 77 76 76 76 77 77 76 77 76 75 73 71 69 68 67 66 68 70
75 75 75 75 76 77 79 80 80 81 82 82 82 81 81 80 79 78 77 77 77 76 75 74 73 73 73 73 74 74 74 73 72 71 68 65 64 63 62 62 63 66

ECMWFNIL_250_spd_030.txt.gz
Wind_Speed
49 50 50 49 49 50 50 50 51 52 52 52 52 52 52 51 50 50 49 47 46 44 42 40 39 37 36 37 38 39 40 40 40 39 38 37 35 34 33 32 32 33
50 51 51 51 51 51 51 51 52 53 53 53 53 53 52 51 50 48 47 44 42 40 39 38 37 36 36 36 37 38 40 41 41 41 40 39 38 37 36 35 35 36
51 51 52 52 53 53 52 52 52 53 53 53 52 51 50 49 48 46 44 42 40 38 37 37 37 37 37 37 38 39 40 41 42 42 42 42 42 41 41 40 39 39
52 53 53 53 54 55 54 53 52 52 51 51 50 49 47 46 45 43 42 40 39 38 38 38 38 39 39 40 41 42 43 44 44 45 46 47 47 46 46 45 43 42
52 53 53 54 55 55 53 52 51 51 50 50 49 48 46 44 43 42 41 40 40 40 40 40 41 42 43 44 45 46 47 48 48 49 50 50 50 49 48 47 45 44
50 50 50 51 51 51 51 51 52 52 52 51 50 48 47 46 44 43 42 42 42 42 42 43 44 45 46 47 48 49 50 51 52 52 52 52 51 50 49 48 47 46
48 47 48 49 51 52 53 54 54 54 52 51 50 49 49 48 47 46 45 45 44 44 45 45 46 48 48 49 50 51 52 52 53 53 52 52 51 50 50 50 49 49
52 51 52 54 56 57 57 57 56 53 51 50 49 49 49 49 49 49 49 48 47 47 47 48 48 49 50 50 51 52 52 52 52 52 52 51 51 51 51 51 52 51
46 50 52 54 56 57 57 56 55 52 51 50 50 50 50 51 51 51 51 50 50 49 49 50 50 50 51 51 51 52 52 52 52 52 52 52 51 52 52 52 53 53
35 38 40 42 43 44 45 46 47 48 49 50 52 52 53 53 53 53 53 52 52 51 51 51 51 51 51 51 51 51 51 50 50 50 50 50 51 52 52 52 53 53
29 30 32 34 35 36 38 40 42 44 46 48 50 51 53 54 55 54 54 53 53 53 53 52 52 52 51 51 50 50 50 50 50 50 50 51 52 53 54 54 55 55
25 24 28 32 36 39 41 44 46 48 49 50 50 50 50 51 52 53 53 53 52 52 51 51 51 51 51 51 51 51 51 52 52 53 54 55 55 56 57 58 58 58
32 31 33 36 39 43 47 50 53 54 53 52 49 47 47 48 49 50 51 51 51 51 51 51 51 52 52 52 52 52 52 53 53 54 55 56 57 59 59 60 60 60
47 45 43 43 42 44 50 54 56 56 54 53 51 50 50 50 51 51 52 52 52 51 52 52 52 53 53 52 52 51 50 51 52 54 56 58 59 60 60 60 60 59
55 51 49 50 47 46 51 53 52 51 50 51 52 52 52 53 53 54 53 52 52 51 51 53 54 55 54 53 52 51 50 51 53 56 59 61 61 61 61 60 59 57
55 54 53 53 53 52 53 53 50 50 51 51 49 49 50 51 51 52 51 49 49 51 52 53 54 55 56 55 55 54 54 55 58 62 66 66 65 64 62 60 58 57
56 58 57 55 54 55 55 55 54 55 55 54 50 48 48 49 48 49 49 49 49 51 52 53 53 54 55 55 56 56 58 62 67 71 72 69 67 65 64 62 62 60
60 61 61 58 56 54 55 55 56 55 53 53 51 48 45 45 46 46 46 47 48 50 52 53 52 53 55 57 60 63 68 72 75 76 74 71 69 67 66 65 65 64
66 66 66 63 59 57 56 57 58 58 55 53 51 49 46 46 48 47 47 49 50 52 54 55 57 60 63 67 70 73 76 77 77 76 75 73 71 70 68 67 67 67
70 70 70 69 66 63 61 61 61 61 59 56 55 55 57 58 57 56 57 57 58 60 62 64 67 69 71 73 75 76 78 77 77 77 76 74 73 72 71 70 69 69
74 75 75 75 73 71 69 67 66 65 64 63 62 62 64 65 65 65 66 66 67 69 70 70 71 72 74 76 78 79 79 78 77 76 75 75 74 73 73 72 72 72
79 80 80 80 79 78 76 74 73 72 71 71 71 70 71 72 74 75 75 74 73 73 74 75 77 79 81 82 82 82 81 79 77 76 76 76 75 74 73 72 73 73
84 84 85 85 84 82 80 78 77 76 75 75 76 77 77 78 80 80 80 79 78 78 80 82 84 85 85 84 83 82 81 80 78 77 77 76 76 75 74 74 74 74
86 86 86 87 86 84 83 81 79 78 78 78 78 79 80 80 81 82 83 83 84 85 85 86 87 87 85 83 82 82 82 81 79 78 78 76 75 75 74 74 74 74
86 85 85 86 85 85 84 83 81 80 80 80 80 80 80 80 81 82 83 85 86 86 86 86 86 86 85 83 82 82 83 83 82 81 78 76 74 72 71 71 69 68
86 85 85 84 84 84 83 82 82 81 80 80 80 80 80 80 80 80 81 83 84 84 84 84 84 84 85 85 84 84 83 83 82 80 78 75 73 70 69 68 67 66

ECMWFNIL_250_spd_033.txt.gz
Wind_Speed
58 57 56 55 54 54 53 53 52 52 51 50 50 50 49 49 48 46 45 44 43 42 40 39 37 36 35 33 32 31 30 29 28 28 29 32 35 37 38 38 37 37
58 57 56 55 54 54 53 53 53 53 52 51 50 49 49 48 47 46 44 42 41 39 38 37 36 35 34 33 32 31 30 29 28 28 30 32 35 37 38 38 39 39
56 56 55 54 54 53 53 53 53 52 51 50 48 47 46 45 44 43 41 40 39 38 36 35 35 34 34 33 32 32 31 30 30 30 31 33 35 37 39 40 41 41
53 53 52 51 51 50 51 51 50 49 47 45 43 42 42 41 41 41 40 39 38 37 35 34 34 34 34 34 33 33 32 32 32 32 33 35 37 39 41 42 43 44
49 48 48 47 47 46 47 47 47 47 45 43 41 40 40 40 40 40 39 38 37 35 34 33 33 33 34 34 34 34 34 34 35 36 37 38 40 41 43 45 46 47
46 45 45 45 45 45 46 47 47 47 46 44 42 41 41 40 39 38 37 36 35 34 33 33 33 34 34 35 35 35 36 37 38 39 40 41 42 44 45 46 47 48
45 45 45 46 46 46 45 45 45 46 45 44 42 41 39 38 36 36 36 36 36 36 35 35 35 35 35 36 37 37 38 39 40 41 42 43 43 44 45 46 46 46
45 45 44 43 41 38 35 33 34 36 37 37 37 37 37 37 36 37 37 37 36 36 36 36 36 37 37 38 39 41 42 43 44 45 46 46 46 46 45 45 44 43
40 41 40 37 35 32 29 27 27 29 31 32 33 34 35 36 36 35 35 36 36 37 38 39 40 41 42 43 44 46 46 47 48 50 50 50 49 48 46 45 43 42
36 38 38 36 33 32 32 32 31 31 33 36 38 39 40 39 39 40 40 40 42 44 45 45 45 46 46 47 48 49 50 51 52 52 52 52 50 49 47 45 43 42
38 37 39 38 34 33 35 37 38 37 38 41 43 45 46 47 47 47 46 47 48 49 50 50 50 50 50 51 52 53 53 53 53 53 53 52 51 50 49 47 46 44
43 41 40 40 38 36 37 39 40 40 40 41 42 45 49 51 51 50 49 50 51 52 53 53 52 53 53 54 54 53 53 53 53 53 52 51 51 50 50 49 47 45
42 43 42 43 44 43 43 43 43 43 42 41 42 45 48 49 50 50 51 52 53 54 54 54 54 54 54 54 54 53 54 53 53 52 51 50 50 50 50 49 47 46
43 45 47 48 50 50 50 50 50 49 46 44 44 45 47 48 50 52 52 53 54 54 54 55 55 54 54 54 54 54 53 53 52 51 51 51 50 50 50 49 49 48
49 51 52 53 54 55 55 55 54 53 50 47 45 46 48 50 51 52 52 52 53 53 54 55 56 55 55 54 53 52 51 51 51 51 51 51 51 50 50 50 49 49
50 51 54 55 57 58 58 58 58 57 55 53 50 47 47 49 51 52 52 52 52 52 53 56 55 53 51 50 49 49 49 51 51 51 52 52 53 52 52 52 53 56
45 45 48 52 55 58 59 60 60 60 59 57 54 50 48 48 50 53 54 53 53 54 56 57 56 53 49 47 48 49 50 52 53 53 52 53 54 56 57 59 61 64
39 40 45 49 54 57 59 61 62 61 61 60 58 56 54 54 53 53 54 54 56 58 60 61 62 61 57 53 51 51 52 53 55 57 59 60 61 63 64 66 67 68
45 45 47 50 54 56 57 58 59 59 60 60 60 61 62 63 62 60 58 58 59 61 62 63 64 65 64 61 58 58 59 61 62 64 66 68 69 69 70 71 71 71
59 57 56 56 57 58 59 59 60 61 62 64 65 65 65 66 66 66 65 64 65 65 65 66 66 67 68 68 67 67 67 67 67 67 69 71 72 73 74 74 75 75
69 66 65 64 63 63 63 64 65 66 67 69 70 70 70 69 68 68 68 68 68 68 68 69 69 70 71 72 72 72 71 70 70 71 72 74 74 75 76 77 77 77
72 70 69 71 71 71 70 69 69 71 73 74 75 75 75 75 75 74 74 74 73 73 73 73 72 72 73 74 75 75 75 75 75 77 77 77 77 78 78 78 78 77
75 74 74 76 77 78 77 77 76 76 77 78 79 80 80 80 81 81 81 81 80 80 80 80 80 79 77 76 76 77 77 78 79 80 79 79 79 79 78 78 78 77
78 79 79 81 81 81 82 83 83 82 81 81 82 83 84 84 84 85 85 85 85 86 87 87 86 83 80 78 78 78 79 79 80 80 80 79 79 79 78 78 77 77
80 81 82 84 85 85 86 87 88 87 86 86 86 87 87 88 88 89 89 89 89 90 90 88 86 83 81 80 79 79 79 79 79 79 79 80 79 79 78 78 77 76
81 83 85 87 87 88 88 89 90 91 91 91 90 91 91 92 92 92 92 93 94 94 92 89 86 84 82 81 80 80 79 79 79 78 79 79 79 78 77 77 76 75

ECMWFNIL_250_spd_039.txt.gz
Wind_Speed
49 49 49 49 48 47 47 46 45 45 45 46 46 46 46 46 45 43 41 39 37 35 34 34 35 36 36 36 36 35 33 32 31 29 27 26 25 24 23 22 22 22
47 47 46 46 45 45 44 43 43 43 44 44 44 44 44 44 43 41 40 38 37 36 35 36 36 36 36 36 34 33 32 31 30 28 27 27 26 25 24 24 23 21
45 45 44 44 44 43 43 42 42 42 42 43 43 42 42 41 40 39 39 38 37 36 36 36 36 35 34 33 32 31 31 30 29 28 27 26 26 26 25 23 21 19
43 43 42 42 42 42 41 41 41 41 41 41 41 40 39 38 37 37 37 37 36 35 35 35 34 33 32 31 31 31 31 30 29 28 27 26 26 25 23 21 20 20
42 42 42 41 41 41 41 41 41 40 40 40 39 38 37 36 34 34 35 35 34 34 33 32 32 31 32 32 32 32 31 30 28 26 25 24 23 22 21 21 22 21
42 42 42 42 42 41 41 40 39 39 39 39 38 36 35 33 32 33 33 33 33 32 32 33 33 34 34 34 33 32 31 29 26 24 23 22 22 22 23 24 23 22
39 41 41 42 43 42 41 39 38 38 37 36 36 35 34 34 33 33 34 34 34 35 35 36 37 36 35 33 32 30 28 26 24 23 22 23 24 25 25 25 24 24
35 37 39 40 42 42 41 39 38 36 34 33 33 34 34 34 34 34 35 35 36 37 37 37 36 34 32 30 28 26 25 25 24 25 26 27 27 27 28 28 28 28
35 35 37 39 40 40 39 37 35 32 31 32 33 33 33 33 33 34 35 35 34 33 33 32 31 29 26 25 25 25 26 27 29 31 32 32 32 32 31 31 31 32
32 33 34 36 37 36 35 33 32 31 31 32 32 32 32 33 33 34 33 32 31 29 28 27 26 25 25 26 27 29 31 33 34 36 36 36 36 35 35 35 35 36
30 31 32 34 35 35 35 33 32 34 34 33 33 32 33 33 33 33 33 32 31 30 29 29 29 30 30 32 33 35 36 37 37 38 38 38 39 39 40 39 39 40
30 31 32 35 36 37 36 34 34 37 37 35 34 35 35 35 35 35 34 34 33 34 33 34 35 35 36 37 37 38 38 39 39 39 40 41 41 42 41 41 42 43
32 33 34 37 39 40 39 37 37 38 38 36 36 37 38 38 38 37 37 36 36 36 36 36 37 38 38 38 38 39 39 39 40 41 42 42 42 42 43 44 46 46
28 32 34 37 40 42 42 41 40 39 37 37 37 38 39 40 40 39 39 38 38 38 38 39 39 39 39 39 39 40 40 40 41 42 43 44 45 46 47 48 48 47
26 30 33 36 38 39 39 39 40 41 41 40 40 40 41 41 41 40 40 40 40 40 40 41 41 40 40 40 40 41 42 43 44 45 46 47 49 50 50 49 48 48
33 33 34 35 36 36 36 37 39 42 45 46 47 47 47 47 46 45 45 45 44 45 45 45 45 45 44 44 45 46 47 47 48 48 50 51 52 51 50 49 49 50
39 40 40 40 40 40 41 40 40 41 43 46 48 50 51 52 52 52 51 51 52 52 52 52 52 51 51 51 51 52 52 52 52 52 52 52 51 50 51 52 53 54
39 43 45 45 44 43 43 43 41 41 41 43 46 49 51 53 54 55 55 55 56 56 56 56 56 56 55 55 55 55 55 55 54 53 52 52 52 54 55 56 56 56
37 40 42 43 42 43 43 44 45 46 46 47 48 49 51 52 53 54 54 54 54 55 56 56 56 56 56 56 56 55 55 54 54 53 54 55 57 58 58 58 59 60
38 39 41 43 44 45 45 45 47 49 50 51 52 52 51 51 51 51 51 50 51 52 53 53 54 54 54 54 54 54 54 54 56 57 58 59 60 61 62 64 65 66
42 43 44 45 47 47 48 49 50 51 51 51 51 51 50 50 50 50 50 50 50 51 52 53 53 53 53 54 55 56 57 59 61 63 64 66 67 68 70 71 71 72
48 49 49 49 49 49 49 51 53 54 54 53 53 53 53 53 53 52 52 53 54 55 56 57 58 59 59 59 61 63 65 67 69 70 71 71 72 72 72 72 73 74
53 53 53 54 55 55 54 55 55 56 56 56 57 57 58 60 60 61 61 61 62 62 62 64 65 66 67 68 69 70 72 73 73 73 72 72 72 72 72 73 75 76
59 58 57 57 59 60 61 62 62 62 62 62 62 62 63 64 66 67 68 68 69 69 69 70 71 71 72 73 73 74 75 74 74 74 74 75 75 76 77 78 79 80
62 63 63 63 64 64 64 66 66 67 68 69 69 69 69 70 71 72 73 74 74 75 75 76 75 76 76 77 78 79 79 79 79 80 80 80 81 81 82 82 83 84
66 66 67 68 70 70 70 71 70 70 71 71 71 72 72 73 75 75 76 77 78 79 80 80 81 81 82 83 84 86 86 86 85 84 84 84 84 85 85 85 86 86

ECMWFNIL_250_spd_045.txt.gz
Wind_Speed
60 58 59 62 65 65 63 60 56 55 56 57 58 58 57 56 54 50 48 46 46 46 46 46 46 45 44 43 41 38 36 35 35 36 36 35 34 33 33 34 34 35
56 56 54 54 58 59 58 57 56 56 58 59 60 59 57 55 51 47 45 43 43 43 43 43 43 43 42 40 39 37 36 36 36 36 36 35 34 33 34 35 37 37
52 55 54 52 52 52 52 54 55 56 57 56 56 56 54 51 48 45 44 42 42 42 42 42 41 41 40 40 39 38 37 36 35 35 34 34 34 34 35 37 38 39
49 52 53 52 51 49 49 50 52 54 54 53 53 54 52 50 47 44 43 43 43 43 42 42 41 40 40 39 39 38 36 35 34 34 34 34 35 36 38 39 40 40
46 48 50 50 49 49 48 49 50 52 52 53 54 55 54 51 48 45 44 43 43 43 42 41 40 40 40 39 38 37 35 34 33 33 33 35 36 38 39 40 40 39
41 44 47 47 46 47 48 49 52 53 55 56 57 57 54 50 47 45 43 43 43 43 42 42 41 40 40 39 38 36 35 34 33 33 33 34 36 37 38 39 38 37
39 40 41 41 42 44 47 50 53 55 57 59 59 57 53 50 47 45 44 43 43 43 42 42 42 41 40 39 37 36 35 34 33 33 32 33 34 36 36 37 36 36
38 37 38 38 39 41 45 48 52 54 55 56 55 54 51 48 46 45 44 43 43 43 42 42 40 39 39 37 37 36 35 34 33 33 33 33 34 34 35 36 36 37
35 37 37 37 37 38 40 43 47 49 50 51 51 50 47 46 44 43 42 42 41 41 40 39 37 37 36 36 36 36 36 35 34 33 34 34 34 35 36 36 37 37
30 31 32 33 35 39 41 43 45 46 47 48 47 45 43 42 41 41 41 42 41 40 38 36 35 34 34 35 35 35 35 35 34 34 34 35 35 36 36 36 36 36
23 24 31 38 41 42 44 44 44 44 44 44 43 41 41 41 41 42 43 43 42 40 38 36 34 33 33 33 33 33 33 33 34 34 34 34 33 33 33 33 33 34
27 31 36 41 43 42 44 45 45 44 43 43 43 42 42 43 43 44 45 44 43 41 38 36 33 32 31 31 32 32 32 33 33 33 33 32 32 31 31 31 32 33
35 40 41 41 42 41 41 42 42 42 42 42 43 44 44 45 45 45 44 43 41 40 37 35 34 33 32 32 32 33 33 33 33 33 32 33 32 32 32 33 34 35
41 44 45 45 43 40 39 38 38 39 40 41 42 42 42 43 43 42 41 40 39 37 36 34 34 34 34 33 33 33 32 32 32 33 33 34 35 35 36 36 37 39
45 46 46 46 43 41 40 39 40 42 42 42 42 41 40 39 38 38 37 37 37 36 36 36 36 36 35 34 33 32 32 32 34 34 35 36 38 39 40 40 41 42
42 42 43 43 42 41 41 41 43 44 43 42 41 39 38 37 37 37 36 37 38 39 39 38 37 37 36 34 34 33 34 35 36 37 37 38 40 42 43 44 45 46
39 39 39 41 42 42 42 43 44 43 41 41 39 38 38 38 38 38 38 39 40 40 40 39 38 37 36 35 35 36 37 38 38 39 40 41 42 43 45 46 48 49
40 39 38 40 42 43 43 43 43 41 40 41 40 40 41 41 41 41 40 40 40 41 41 40 39 37 37 38 39 40 41 41 40 41 42 43 44 46 47 48 48 48
42 43 41 41 43 44 44 44 44 42 41 42 43 43 44 44 44 44 43 42 42 42 43 42 42 42 42 43 44 44 44 43 44 45 46 47 47 48 47 46 45 45
44 45 45 44 44 44 44 44 45 44 44 44 44 44 44 44 43 42 42 41 41 43 44 44 45 47 48 48 47 47 46 46 46 47 47 47 46 45 44 43 43 43
43 45 47 47 48 47 47 47 46 46 46 47 45 44 43 43 42 42 43 42 43 44 45 45 46 47 47 47 47 47 47 47 47 47 46 45 44 44 44 45 45 46
42 43 45 47 48 49 49 49 48 48 48 49 47 46 46 46 46 47 49 49 49 50 50 49 49 48 48 49 49 48 47 46 46 45 45 45 45 46 47 49 50 51
44 43 43 44 46 48 48 48 48 50 51 51 50 50 51 51 51 52 53 53 53 55 56 55 54 53 53 53 51 49 49 48 47 46 47 49 50 51 52 54 55 57
48 47 46 45 46 48 48 48 49 51 52 53 53 52 53 54 55 55 55 54 54 56 58 59 58 57 56 55 53 51 52 52 51 52 53 54 55 57 59 60 61 63
53 52 52 52 51 50 50 51 52 52 52 52 52 53 54 55 56 57 57 57 57 58 58 58 57 56 55 55 54 53 54 54 55 56 58 60 62 63 64 65 67 69
58 58 59 59 58 56 55 55 55 55 54 54 55 55 56 57 57 58 58 58 58 58 58 57 57 57 57 57 57 57 58 59 61 63 65 66 67 68 70 71 73 75

ECMWFNIL_250_spd_048.txt.gz
Wind_Speed
54 54 56 58 57 57 57 56 58 61 62 60 58 53 48 46 45 46 47 47 47 49 51 51 51 51 51 50 48 46 44 42 41 39 38 37 38 38 37 37 37 37
54 55 57 59 59 59 58 55 52 53 58 60 61 59 56 54 53 52 51 51 52 54 54 53 53 53 52 52 50 48 46 43 41 40 39 39 39 39 38 37 37 37
53 56 59 60 60 60 60 58 54 52 56 61 64 64 63 62 61 59 57 56 55 55 55 55 55 55 54 52 49 46 44 41 40 39 39 39 39 39 37 37 38 37
55 55 58 60 60 61 62 63 61 58 59 62 63 64 63 62 61 59 57 55 54 55 55 55 55 55 53 50 46 44 42 40 39 38 38 38 38 38 37 38 38 38
56 55 57 60 60 61 63 65 65 63 62 62 60 59 58 57 56 56 54 52 52 54 55 55 55 54 52 49 46 43 41 40 38 37 37 37 37 37 38 38 39 38
57 54 55 58 59 60 61 63 64 64 62 61 59 56 55 53 53 52 50 50 51 52 54 55 55 54 52 48 45 42 40 39 37 37 37 36 37 37 38 38 39 39
58 55 54 55 55 56 58 60 60 59 58 58 57 57 57 56 54 52 50 49 50 51 53 54 54 54 51 47 43 40 38 37 36 36 36 36 36 38 38 38 39 38
56 54 53 53 54 54 55 57 57 55 54 54 55 55 55 55 53 51 50 49 50 52 53 54 54 52 49 45 41 38 36 35 35 35 36 35 36 37 37 37 37 37
56 56 54 53 55 55 54 53 53 51 50 50 50 49 49 48 48 48 49 50 52 53 54 53 52 49 46 43 40 37 35 34 34 34 35 36 36 36 36 35 35 35
51 54 54 54 54 54 53 51 50 49 48 46 45 45 45 45 45 46 48 50 51 52 52 51 49 46 44 42 39 37 35 35 34 35 35 36 37 36 34 32 32 33
46 48 50 51 51 51 51 50 50 50 48 46 44 43 43 43 43 44 45 46 47 47 47 46 44 42 41 39 38 36 35 35 34 35 35 36 36 34 31 30 30 30
46 46 47 49 48 48 49 49 49 47 45 43 41 40 40 41 42 43 44 44 44 43 42 41 40 39 38 37 36 36 35 35 34 35 35 34 33 31 30 29 28 29
46 46 46 47 46 46 47 47 46 43 39 38 38 39 41 43 44 44 44 43 42 40 39 38 38 38 37 36 36 36 36 35 35 35 34 32 31 30 29 29 29 29
44 44 45 46 45 45 46 46 46 42 37 37 40 42 43 43 43 41 39 38 37 36 36 35 36 36 36 36 36 36 36 35 34 33 31 30 30 29 29 30 31 31
41 40 43 44 44 45 45 46 46 42 38 39 42 44 43 44 43 40 38 37 36 37 38 38 38 38 37 36 35 34 34 33 32 31 30 30 30 31 32 33 34 32
40 40 42 43 44 45 45 45 45 42 41 43 44 45 46 47 46 44 42 42 41 42 42 41 40 39 38 37 35 34 33 32 32 32 32 33 33 35 36 35 35 34
42 42 42 43 45 44 42 43 43 44 45 46 47 49 50 50 49 47 45 44 43 43 42 41 41 40 39 39 38 36 36 35 35 35 35 36 37 37 38 37 36 36
44 43 42 42 42 42 42 42 43 45 48 49 51 53 53 51 49 46 45 45 44 43 43 43 43 42 42 42 41 41 40 39 38 39 39 39 39 40 40 40 39 40
41 40 38 36 35 38 43 44 45 47 49 51 51 50 49 48 46 46 46 45 45 44 44 44 44 45 45 45 45 44 43 42 42 42 42 42 42 42 43 43 43 43
38 37 37 36 37 41 44 47 48 48 48 48 47 45 45 45 45 47 48 46 46 46 45 46 47 48 49 49 48 47 45 45 44 44 45 45 45 47 47 46 46 47
38 39 39 41 44 47 48 49 49 48 47 48 47 46 46 45 45 47 48 48 47 47 48 49 50 51 51 52 50 48 47 47 47 47 48 48 49 49 49 49 48 48
43 44 44 46 48 49 49 49 48 48 48 48 48 48 48 47 47 48 49 49 49 50 50 51 52 52 52 53 51 49 49 49 49 50 51 51 51 51 51 51 52 51
45 47 47 48 49 49 48 47 48 49 49 49 49 50 50 50 50 49 50 50 51 52 53 53 54 53 53 53 52 50 51 52 52 53 53 53 54 55 55 55 56 55
45 46 47 47 48 48 48 47 48 49 50 50 51 52 53 54 53 52 52 52 53 54 54 54 56 56 55 55 55 55 55 56 55 56 57 58 58 58 58 57 56 55
46 46 47 49 50 50 50 50 50 50 52 53 52 53 54 56 57 56 56 57 57 57 57 57 58 59 58 57 58 58 59 59 59 59 60 61 60 58 56 55 54 54
52 51 51 53 54 54 54 54 53 53 54 55 54 55 56 57 58 58 58 58 58 58 59 60 60 61 60 59 59 59 60 60 61 61 60 60 59 57 56 55 56 57

ECMWFNIL_250_spd_051.txt.gz
Wind_Speed
39 39 41 44 47 48 48 49 51 53 55 56 58 58 56 54 53 53 53 53 52 50 50 51 49 47 45 42 41 41 42 44 45 44 43 43 45 47 47 46 44 42
41 40 41 43 45 48 48 49 50 52 56 58 59 60 58 56 56 56 56 56 55 52 50 48 47 46 46 45 46 46 47 47 48 48 48 49 49 50 48 46 45 42
43 42 44 44 44 47 48 49 50 52 56 59 62 63 62 60 60 61 61 60 59 57 55 52 49 48 47 48 50 50 51 52 53 55 54 53 51 50 49 47 45 42
45 45 46 46 45 46 47 48 50 52 54 57 61 63 64 64 64 66 66 65 63 62 62 60 57 55 53 54 55 56 57 57 57 56 55 53 52 50 49 47 44 41
46 47 48 49 48 47 48 48 47 49 51 55 59 61 63 65 66 67 66 66 65 64 64 64 62 60 59 59 60 59 58 56 54 52 51 51 51 49 48 46 43 41
45 45 46 50 51 50 50 51 50 50 52 54 57 59 62 64 66 67 67 67 66 64 62 61 60 60 59 59 58 56 54 53 51 49 49 49 49 48 47 45 42 40
42 45 46 50 52 52 52 54 54 55 55 56 58 59 60 62 64 64 64 64 63 62 61 60 58 58 57 56 56 54 53 51 50 49 49 49 49 48 46 44 42 40
40 45 49 52 52 52 52 54 56 56 57 58 57 57 56 57 58 59 59 59 59 59 59 57 56 55 54 54 53 52 51 50 49 49 49 49 49 47 45 43 41 38
40 42 47 49 48 50 52 53 55 56 56 55 54 53 52 51 52 53 53 54 55 55 55 54 52 51 50 49 49 48 47 47 48 49 49 48 46 44 42 40 38 36
41 41 43 43 43 46 49 52 54 54 54 53 51 50 48 48 49 49 50 51 51 51 50 49 48 46 45 44 43 43 44 45 46 46 45 44 42 40 38 37 36 35
41 40 41 42 41 41 44 47 49 50 50 49 49 48 48 48 49 50 50 51 50 49 47 45 44 42 40 39 38 39 40 40 41 41 40 39 38 37 37 36 35 35
43 42 42 42 42 41 42 44 46 47 48 48 48 48 48 48 49 49 50 49 48 47 45 44 42 40 37 36 36 37 38 38 38 38 37 36 35 36 36 35 35 33
45 44 44 43 42 43 44 45 47 48 48 48 47 46 45 45 46 47 47 47 46 45 44 42 39 37 36 36 38 38 37 36 36 35 34 34 34 34 34 34 33 31
45 44 45 44 42 42 44 45 46 46 44 43 43 42 42 43 44 45 45 44 44 43 41 39 37 37 37 37 37 35 33 33 33 33 34 34 33 33 33 33 32 29
46 47 48 47 43 40 42 45 46 45 44 41 40 40 40 41 43 43 43 42 43 43 40 37 37 36 35 34 34 33 33 34 34 35 34 34 33 33 34 33 31 29
48 49 50 51 48 42 41 43 44 44 43 41 39 40 41 42 43 43 44 45 45 43 38 37 36 35 35 35 36 36 37 37 36 36 35 34 34 35 35 34 33 32
42 44 48 51 52 48 44 45 45 43 41 40 40 40 41 42 43 44 46 48 46 42 39 39 39 39 39 40 41 41 40 39 38 38 37 36 37 38 37 36 36 36
38 40 43 46 50 50 48 47 46 45 44 42 42 42 42 42 43 45 48 49 46 42 41 42 42 43 44 44 44 44 43 41 41 40 40 40 41 41 40 39 39 40
40 40 41 42 45 47 48 48 47 47 47 46 45 45 46 45 45 47 49 51 48 46 46 47 47 47 46 45 45 45 44 44 43 43 43 44 44 44 42 42 43 44
44 43 42 41 42 43 44 46 46 47 48 48 48 49 49 48 48 48 49 50 49 49 49 50 49 49 47 46 46 46 46 46 45 45 46 46 46 45 45 45 46 46
47 46 43 44 45 44 44 46 47 47 48 49 50 51 50 50 50 49 49 49 49 51 51 51 51 50 49 48 47 47 48 48 48 48 48 47 47 46 47 47 47 48
48 48 46 47 49 47 45 47 47 48 49 51 51 51 50 50 51 50 48 48 49 50 51 53 54 53 51 51 50 51 51 50 50 50 49 48 48 48 48 48 48 49
45 47 48 48 49 48 47 46 46 48 51 52 51 50 48 47 48 50 50 50 51 50 51 53 55 55 53 53 53 53 52 51 50 50 49 48 49 50 50 49 50 50
46 48 50 49 49 50 49 48 48 50 52 52 51 49 46 46 49 51 52 54 54 53 53 54 55 55 54 53 52 52 52 52 52 51 50 50 51 51 51 51 51 52
49 51 53 51 49 49 49 50 52 52 51 51 50 48 47 50 54 56 57 57 56 54 54 54 54 55 54 54 54 54 54 54 53 53 52 51 51 52 52 53 54 55
46 50 52 52 51 50 49 50 52 52 51 49 48 49 51 54 59 61 62 60 57 55 54 54 53 53 53 53 53 53 53 53 53 53 52 51 52 53 54 55 57 59

ECMWFNIL_250_spd_054.txt.gz
Wind_Speed
38 34 31 29 29 31 33 37 39 43 46 46 48 51 51 49 47 44 42 40 41 40 39 39 40 41 41 41 42 42 44 46 47 48 47 46 45 44 44 45 45 46
40 37 34 30 29 31 32 34 37 40 42 42 44 49 52 52 49 46 44 42 43 42 40 41 42 42 42 42 43 44 46 47 47 46 45 44 44 44 45 45 47 49
42 40 38 33 30 32 33 35 37 38 39 40 40 41 45 50 52 52 50 48 47 47 47 47 47 47 47 47 46 46 47 47 46 46 45 45 45 46 47 48 49 49
42 40 39 34 31 33 35 39 41 39 38 40 42 43 43 46 51 52 52 52 52 52 51 51 52 52 52 52 51 50 51 52 53 53 53 52 51 51 51 51 49 47
39 37 36 34 33 35 38 42 45 45 43 40 40 43 47 49 51 52 52 51 52 52 53 53 54 55 55 55 55 56 57 58 58 57 56 54 53 52 51 49 48 47
38 36 35 35 36 39 43 44 45 47 47 43 39 39 44 49 51 52 51 49 48 49 50 51 52 54 55 56 57 59 59 58 56 54 53 51 50 49 48 47 46 45
41 39 38 39 38 38 40 43 46 47 46 45 41 39 43 47 49 50 49 48 48 48 47 47 47 49 50 52 54 55 55 53 52 51 49 48 46 46 45 44 43 42
41 39 39 41 38 33 34 38 42 45 46 45 42 42 44 45 46 47 48 48 48 47 47 46 46 47 48 49 50 50 50 49 48 47 46 44 43 43 42 41 40 39
38 38 38 39 37 33 33 35 38 41 44 46 47 47 46 46 47 47 48 48 48 48 48 49 49 49 49 50 49 48 47 46 45 44 43 42 41 40 40 38 37 36
39 39 37 36 36 35 35 36 37 37 40 43 45 46 47 47 47 47 47 48 48 49 51 51 51 52 52 52 50 47 45 44 43 42 41 41 40 39 37 35 34 34
39 39 38 35 35 36 37 38 36 34 34 36 38 40 44 44 44 44 45 46 47 49 50 51 52 52 51 50 47 44 43 42 41 40 40 40 38 36 34 34 34 33
35 36 37 38 37 36 36 36 35 34 33 33 34 37 40 41 41 42 42 44 47 49 50 50 50 49 47 45 43 42 41 40 40 40 40 38 35 34 34 34 32 31
31 31 34 38 40 39 38 37 37 37 36 35 36 38 40 39 39 40 42 45 48 48 48 47 46 44 43 42 42 41 40 41 41 41 38 36 35 34 33 31 30 29
26 25 28 34 38 39 38 37 38 38 35 34 38 40 39 38 37 38 42 45 46 46 46 45 44 44 43 42 42 41 41 42 41 39 37 36 35 33 31 30 29 30
27 26 30 36 39 40 38 37 38 38 36 37 42 43 41 40 39 39 41 42 43 44 44 43 43 43 43 42 41 41 41 41 40 38 37 36 34 32 31 31 31 31
31 31 35 39 40 41 39 37 38 38 39 43 46 44 42 43 43 41 40 39 40 40 39 39 41 42 41 41 41 41 41 40 39 37 36 35 34 33 33 34 33 33
34 35 38 40 41 41 41 41 40 39 41 46 46 42 42 44 44 43 41 40 39 38 38 39 41 41 41 41 41 41 41 40 39 37 36 36 36 36 37 36 36 35
38 37 38 40 41 42 43 44 44 41 43 47 46 44 45 45 44 43 42 41 40 39 39 40 41 41 41 40 41 42 42 42 40 39 39 39 40 40 40 39 38 38
44 41 39 38 39 40 41 43 44 43 45 47 47 48 50 51 49 46 44 42 40 39 39 40 42 42 41 41 42 42 43 44 44 42 42 42 43 43 42 41 41 40
49 45 41 38 38 38 39 42 43 43 45 48 48 48 50 53 53 51 47 43 41 39 40 42 43 43 43 44 45 45 45 46 46 46 45 45 45 44 43 43 43 43
51 49 45 41 39 38 38 40 41 42 45 48 48 48 49 50 52 51 48 45 43 42 43 45 46 46 47 48 48 48 48 48 48 49 47 47 46 45 45 45 45 45
51 51 50 44 42 41 39 38 37 37 40 44 47 49 49 49 50 50 49 49 47 46 47 49 49 50 50 51 51 51 51 50 50 50 49 47 47 46 46 46 47 48
53 52 52 48 45 44 43 41 39 36 36 40 42 45 49 51 53 53 53 53 52 51 51 52 52 53 53 53 52 52 52 52 51 50 50 49 48 48 48 48 48 49
56 53 54 50 47 46 45 44 44 41 39 39 41 43 46 50 54 56 57 57 55 54 54 54 54 54 54 55 54 53 52 52 52 51 51 51 50 51 51 50 51 51
57 55 54 52 50 49 46 44 46 46 46 45 45 46 48 51 53 55 56 56 56 55 55 55 56 56 56 56 56 55 53 52 52 53 53 53 53 53 54 53 53 53
57 55 56 54 52 51 49 47 47 48 49 50 50 51 52 53 53 54 55 54 53 54 54 56 57 57 57 57 56 55 54 53 53 53 54 54 55 55 55 54 53 53

ECMWFNIL_250_spd_057.txt.gz
Wind_Speed
35 35 39 43 46 44 41 41 39 36 35 36 39 42 43 44 45 47 49 48 48 47 47 46 47 48 48 47 46 45 44 43 40 38 36 34 34 35 36 39 42 43
37 37 40 45 47 45 43 42 40 37 35 37 39 42 45 46 45 45 46 46 47 46 45 45 46 48 49 49 49 47 44 41 37 35 37 37 37 38 41 44 44 43
40 37 40 44 46 45 44 44 42 38 37 39 41 43 43 44 43 42 41 41 44 46 46 46 46 46 46 45 44 42 38 37 36 36 38 40 41 43 45 46 46 45
40 37 39 42 44 44 43 44 43 40 39 40 40 40 40 40 41 43 43 41 42 45 47 48 49 48 47 45 41 39 37 38 40 41 41 43 45 46 47 49 50 51
40 39 40 41 44 44 44 44 44 42 41 41 41 40 40 40 40 42 46 44 40 41 44 47 49 51 50 47 45 44 44 45 46 46 46 47 49 49 50 51 53 53
41 39 40 42 43 45 46 47 45 43 41 41 43 42 40 40 40 41 45 45 42 40 41 43 45 47 49 49 49 49 48 49 49 49 48 48 48 48 49 50 51 51
40 37 39 42 43 43 45 48 47 43 40 40 41 40 38 39 41 42 44 46 46 45 45 44 43 44 45 46 47 47 47 48 47 45 44 43 43 44 45 46 47 46
40 37 38 41 41 40 40 45 46 42 39 40 41 40 39 40 43 45 46 46 46 46 46 46 46 46 44 44 44 44 43 42 41 40 39 40 42 44 45 45 45 43
43 40 39 39 39 39 38 40 41 40 39 41 42 40 40 42 46 49 50 50 48 47 45 44 46 46 43 42 41 40 39 38 39 40 41 42 44 45 45 45 45 43
46 42 41 38 37 37 38 38 38 38 40 41 41 41 40 42 46 50 52 52 52 51 49 48 48 46 43 40 39 38 38 39 41 42 43 44 45 45 45 44 43 41
49 45 44 41 36 35 38 38 38 39 41 42 43 43 43 43 45 48 50 51 52 51 49 49 49 47 44 41 39 39 40 41 41 42 43 44 44 44 43 42 41 39
54 49 47 45 41 38 37 35 35 38 40 41 43 43 42 43 43 44 45 47 48 47 47 46 46 45 43 41 40 40 41 41 42 43 44 44 44 44 43 41 40 38
56 52 49 49 46 43 39 34 33 37 40 40 41 41 41 41 41 40 41 41 40 41 42 42 41 41 40 40 40 40 40 41 42 42 43 43 43 43 42 41 39 38
56 53 51 51 48 45 44 40 36 38 40 41 41 40 40 40 40 41 40 39 37 37 37 37 37 37 37 37 37 38 39 39 41 41 42 42 41 41 40 40 38 38
53 52 52 52 51 48 47 46 42 38 39 42 43 40 40 40 41 42 43 42 40 39 36 35 34 34 34 35 36 36 36 37 37 38 39 40 40 40 39 39 38 38
53 52 52 52 51 48 46 45 44 41 39 41 42 42 41 41 42 43 43 41 40 39 38 36 35 36 36 37 37 36 36 36 36 37 38 39 40 40 40 38 37 38
53 52 51 51 49 46 43 41 42 43 42 42 44 44 43 40 39 40 41 40 39 38 37 36 36 37 38 38 38 37 37 37 39 40 41 40 40 40 39 38 37 37
51 50 49 49 49 47 43 40 40 41 41 42 45 45 44 41 39 38 39 40 40 38 37 36 35 35 36 37 38 38 38 39 40 41 42 41 40 39 38 37 37 37
49 49 48 46 48 47 45 43 44 43 42 43 46 46 45 44 43 42 42 41 41 39 39 39 39 38 38 38 38 38 37 38 39 40 40 40 39 38 38 38 38 37
48 49 48 46 45 44 44 45 47 47 46 46 47 48 48 46 45 45 45 43 41 41 41 43 44 45 45 45 44 42 41 40 40 40 40 41 40 40 39 39 39 39
50 49 49 48 45 42 44 46 47 47 47 48 49 49 49 49 47 46 45 44 42 42 43 44 46 47 49 49 48 48 48 47 46 45 43 43 43 42 42 42 42 42
53 52 51 50 48 47 48 49 49 48 47 48 52 51 49 50 51 50 50 48 46 45 45 45 46 47 48 48 48 49 50 49 48 47 45 45 45 45 45 45 44 45
55 56 55 53 52 51 53 53 52 51 49 49 52 52 50 51 52 53 54 51 48 46 46 45 47 48 48 47 47 47 48 47 46 46 47 47 48 48 48 47 47 48
58 58 58 58 56 53 53 55 55 55 54 54 53 51 49 50 51 52 53 51 47 47 47 46 47 48 47 47 47 47 48 49 50 50 50 50 50 50 50 49 49 50
62 61 59 60 60 57 53 53 56 56 56 56 55 52 49 49 51 51 50 48 46 46 47 48 50 50 49 49 50 51 52 54 54 54 53 52 52 51 51 51 51 51
65 65 63 61 62 61 58 54 54 55 55 55 55 54 51 49 50 50 48 46 46 46 46 47 50 51 50 51 53 55 56 57 58 57 56 54 52 51 51 51 51 51

ECMWFNIL_250_spd_060.txt.gz
Wind_Speed
38 36 35 37 36 36 38 36 33 34 34 34 35 35 35 36 37 39 40 41 43 43 43 43 41 38 36 37 38 39 40 41 41 41 41 41 41 41 41 41 42 42
40 37 36 37 36 34 35 34 33 35 36 37 39 38 37 36 35 38 41 42 43 43 44 45 44 44 43 42 41 42 43 43 43 43 43 43 43 43 43 44 45 43
41 39 37 39 38 34 34 33 33 34 37 41 41 39 39 37 35 37 41 43 44 44 45 44 42 43 43 42 42 43 45 46 46 46 45 45 44 43 43 43 42 38
41 40 38 39 40 36 35 35 34 35 40 43 43 41 41 40 39 40 42 45 46 46 45 42 39 38 39 39 40 42 43 44 46 46 46 45 45 43 41 40 39 38
43 42 39 39 40 37 35 36 37 37 41 45 46 44 42 41 41 42 43 46 46 45 43 41 40 40 39 39 39 40 41 43 44 45 45 44 44 43 40 39 40 42
45 45 41 39 41 39 35 37 39 38 41 45 47 46 43 42 42 42 43 43 44 45 45 44 45 44 42 40 40 40 41 43 44 45 44 44 45 44 43 43 43 44
47 45 43 42 43 41 38 38 38 37 39 43 46 46 45 45 45 44 43 43 44 46 46 46 47 47 45 44 45 46 46 44 43 43 45 46 46 46 46 45 44 42
49 46 45 44 45 44 41 39 37 35 38 42 45 46 47 47 47 46 45 45 45 46 47 47 47 46 46 47 48 50 49 46 43 42 43 44 44 44 44 43 40 37
51 49 47 46 46 45 42 40 37 35 38 42 44 45 47 48 48 47 46 45 45 46 47 46 46 45 44 44 45 48 49 47 46 44 43 43 43 43 42 39 37 36
53 52 49 47 46 46 44 43 40 38 39 41 43 45 47 48 47 47 45 43 44 46 46 44 43 42 42 41 42 45 47 48 48 46 45 44 43 41 39 37 36 38
56 55 52 50 49 48 46 45 43 40 39 40 43 46 46 46 45 45 44 42 42 45 47 45 42 40 40 41 42 44 46 47 47 46 44 43 42 40 39 38 39 40
60 58 54 53 53 53 50 47 45 42 40 39 42 45 44 43 44 44 44 43 43 46 49 47 44 41 41 42 44 46 47 48 48 47 47 46 45 42 41 40 40 40
61 59 56 56 57 56 54 51 48 44 42 40 42 45 45 43 43 44 43 43 45 48 49 48 45 42 41 42 44 46 48 50 51 50 50 48 45 43 42 42 41 40
60 59 56 56 57 57 56 55 51 45 41 40 40 42 45 46 45 43 43 44 46 47 48 48 46 42 40 40 41 41 44 47 48 48 46 44 43 43 43 42 40 40
57 57 56 55 55 54 55 56 56 51 45 43 41 40 42 46 46 45 45 45 45 44 45 47 45 41 39 39 37 36 37 38 40 41 41 41 41 41 41 40 39 38
54 56 56 55 54 52 53 55 57 57 53 49 47 43 42 43 43 44 44 45 45 44 43 44 43 40 38 38 37 35 35 35 36 37 37 38 38 38 39 38 38 36
53 55 56 56 55 53 52 53 55 56 55 53 52 50 47 45 44 43 42 42 44 44 44 45 44 41 39 39 37 36 35 35 35 36 37 38 38 38 39 39 38 36
51 54 56 56 56 55 53 53 54 54 53 53 52 52 50 47 46 46 46 43 42 42 42 43 43 41 41 41 39 37 37 37 36 37 37 37 37 37 38 39 38 37
49 52 56 57 57 56 55 55 56 55 55 54 53 53 52 50 47 47 48 47 44 42 41 41 41 41 41 41 40 40 41 41 40 39 37 37 37 37 38 38 38 38
48 49 53 57 58 57 57 57 58 57 57 56 55 55 55 53 50 48 48 49 49 47 46 45 44 43 42 41 41 41 42 43 42 41 40 39 40 41 42 42 42 41
48 46 48 53 58 59 58 59 59 59 59 58 58 59 58 56 54 50 49 50 51 51 51 51 50 48 46 44 43 43 43 43 42 41 42 43 44 46 46 47 47 46
50 48 46 48 53 57 59 59 59 59 59 59 59 60 60 60 58 54 49 48 49 49 50 51 52 52 51 49 48 48 47 46 44 43 44 46 48 49 49 50 50 49
54 51 49 47 48 52 56 58 59 58 58 59 59 60 59 60 60 58 54 52 50 49 49 50 51 52 52 52 52 52 51 50 48 47 47 49 51 51 52 51 51 50
58 56 53 50 49 49 52 55 57 57 58 58 59 60 60 60 61 61 60 58 56 54 52 51 51 52 53 54 54 54 54 54 53 51 50 51 52 52 53 53 52 51
62 60 57 55 54 52 52 53 54 56 56 56 57 58 58 59 61 62 63 62 60 59 58 56 54 54 54 55 55 54 55 54 54 52 51 52 53 53 54 55 54 53
65 65 63 60 59 57 55 54 54 56 56 56 56 56 56 57 58 60 61 60 59 59 60 59 58 56 57 57 56 54 54 53 52 52 51 51 53 54 55 56 55 55

ECMWFNIL_250_spd_063.txt.gz
Wind_Speed
47 42 36 34 35 36 36 34 33 35 36 35 35 35 33 33 33 34 35 35 33 34 35 35 35 36 36 37 39 41 42 41 38 35 34 34 35 35 35 36 38 39
50 48 42 36 35 37 37 34 32 35 37 37 37 36 35 35 36 36 37 38 37 35 36 37 38 38 40 43 43 41 40 40 38 36 36 35 36 38 39 40 40 41
52 51 47 41 37 38 39 36 34 36 37 38 39 38 36 38 39 38 39 41 42 40 37 39 42 42 43 44 44 42 41 40 39 39 38 38 39 40 42 42 42 42
55 52 50 46 41 39 40 38 35 37 38 39 40 39 37 40 41 39 39 41 43 43 41 41 44 46 45 44 43 43 43 43 41 41 41 42 42 42 42 43 43 43
58 55 50 47 44 42 42 41 37 38 39 40 41 40 37 40 43 42 40 41 42 43 43 43 44 46 46 45 44 44 45 44 42 43 43 43 42 41 41 42 43 43
59 59 54 46 42 43 45 44 39 38 39 41 42 41 37 39 44 45 43 43 43 44 43 43 43 45 46 46 45 45 44 42 42 43 43 42 42 42 42 41 41 41
56 61 60 52 43 42 47 46 41 39 41 42 43 42 40 40 44 47 47 47 47 46 44 42 42 44 47 49 48 46 45 44 43 43 42 42 44 45 44 43 42 41
52 57 62 61 51 44 47 49 44 41 42 43 43 43 43 44 44 47 49 48 48 48 46 43 42 44 46 49 50 48 47 46 45 44 44 44 45 46 45 45 45 44
49 53 59 64 57 47 48 50 47 43 42 43 44 45 46 46 45 47 49 49 48 50 48 44 43 42 42 45 48 48 48 47 47 48 48 47 48 48 47 47 47 46
44 50 55 60 58 51 49 51 50 46 43 43 45 46 47 47 46 47 49 49 50 52 51 47 44 43 41 42 45 47 48 49 50 52 52 50 50 50 50 50 50 49
40 46 52 57 58 55 53 53 54 50 45 46 47 47 47 48 48 48 48 49 51 54 54 51 48 46 44 44 46 48 50 52 53 53 52 51 50 50 50 50 50 49
36 42 49 54 58 59 57 55 56 54 49 48 49 47 45 46 48 49 48 47 47 51 54 54 51 48 46 47 49 49 51 53 54 53 50 49 48 48 48 48 48 47
33 38 44 51 57 58 57 56 57 57 53 50 50 48 45 43 45 47 49 46 44 47 52 53 53 51 48 47 49 49 49 51 50 49 47 46 46 46 46 46 46 47
30 34 40 47 54 56 55 54 56 58 56 52 50 51 48 44 42 44 47 47 46 47 50 51 51 50 49 47 47 47 46 46 46 46 46 44 44 44 45 46 48 49
28 31 36 42 49 53 54 55 55 56 57 54 52 53 51 46 43 44 44 45 47 48 48 49 49 49 49 48 48 47 45 45 45 46 46 44 43 44 46 48 50 50
28 29 32 37 44 49 52 55 56 55 56 55 54 54 54 48 45 45 45 44 45 46 46 46 47 47 48 48 47 47 46 45 45 46 46 45 45 45 46 47 47 46
29 29 31 34 40 45 48 51 55 57 57 57 56 56 56 52 47 47 46 45 45 46 46 45 44 44 45 45 45 46 46 46 46 47 46 46 46 45 44 44 43 43
32 30 31 34 38 42 45 48 52 56 58 59 58 58 58 56 52 50 49 47 46 46 48 48 48 46 45 45 44 45 45 46 47 47 47 46 46 45 44 43 43 42
36 34 33 34 38 42 43 46 50 53 57 59 60 59 59 58 55 54 53 51 49 47 48 50 51 52 50 48 46 45 45 45 46 47 47 46 46 45 44 44 44 43
40 38 36 35 38 42 44 45 48 51 54 57 59 59 59 59 59 57 56 56 54 51 49 49 51 52 53 52 50 47 44 44 45 46 46 46 46 46 46 46 45 44
43 42 40 38 39 41 44 46 47 49 52 55 56 56 57 60 61 60 59 58 57 55 53 51 51 52 53 53 52 49 47 46 47 47 48 48 48 48 47 47 46 46
46 45 44 43 41 42 44 46 48 49 50 52 54 54 55 58 60 60 59 58 57 55 53 52 51 52 53 54 54 52 50 50 50 50 50 50 50 49 49 48 48 48
49 49 48 47 46 45 44 45 48 51 51 51 53 54 55 57 58 59 59 58 56 54 53 52 50 51 53 54 55 55 54 53 53 53 53 52 52 52 52 52 52 51
51 51 51 50 50 49 48 46 47 50 52 53 53 54 55 57 58 59 60 60 59 57 56 54 52 53 55 55 55 55 55 55 56 56 55 55 55 56 56 55 54 52
51 53 53 53 53 53 53 51 48 48 51 54 55 55 56 57 58 59 60 61 61 61 61 59 58 58 58 57 57 57 57 58 58 58 58 58 58 59 58 57 55 54
49 52 55 56 56 55 56 56 54 51 50 52 55 57 57 58 58 58 59 60 61 62 63 63 63 63 62 61 61 61 60 61 60 58 59 59 60 60 59 58 57 58

ECMWFNIL_250_spd_066.txt.gz
Wind_Speed
48 49 50 49 51 53 51 47 43 40 37 35 35 36 38 40 39 37 36 36 38 40 39 39 38 37 39 40 41 40 36 33 35 36 36 36 37 39 40 39 37 35
49 49 51 51 51 53 55 52 47 43 41 38 38 38 39 41 41 39 37 35 37 41 40 39 37 34 35 39 40 40 35 32 32 33 36 38 40 43 44 42 38 34
50 49 49 50 50 52 56 57 51 46 43 41 41 41 39 41 43 42 39 36 39 43 43 42 39 34 36 39 40 40 38 36 36 36 37 41 44 46 45 43 40 36
50 48 47 49 50 51 55 59 56 50 46 44 44 44 42 42 44 45 43 40 41 44 45 45 43 38 38 41 43 44 44 43 42 40 40 43 45 45 44 42 41 38
50 48 47 47 49 50 52 57 60 55 49 47 47 47 44 43 44 44 44 43 43 46 46 46 46 41 38 42 46 45 45 45 45 44 43 44 45 44 44 43 41 39
50 49 47 46 47 48 49 54 60 60 53 48 49 49 45 43 44 45 45 44 44 46 48 47 48 45 40 40 44 46 46 46 46 46 45 44 44 44 45 45 43 42
50 48 47 45 45 46 47 50 58 63 58 51 51 51 47 43 44 46 46 46 45 46 49 49 49 49 45 42 42 45 49 49 48 47 45 44 46 46 47 46 45 44
50 48 46 44 42 42 45 47 53 62 63 57 52 52 49 45 45 47 47 47 46 46 49 51 51 51 51 47 43 44 48 50 50 48 46 46 48 48 48 46 45 46
49 47 44 42 41 40 42 44 49 58 64 62 57 53 50 47 46 46 47 48 48 46 48 52 53 53 53 52 48 46 45 47 49 48 46 47 48 48 47 46 46 47
49 46 43 40 40 39 39 42 46 53 61 63 60 56 52 48 47 47 47 48 47 46 47 51 53 53 53 55 54 51 47 45 47 48 46 45 47 47 45 44 46 48
49 46 42 38 38 38 37 39 43 50 59 62 60 59 55 50 48 48 48 47 45 45 46 48 52 53 52 52 53 53 51 46 45 45 44 45 47 48 46 45 47 49
48 46 41 37 36 37 35 37 41 48 58 61 58 58 57 52 49 49 50 48 46 46 47 46 49 53 54 53 52 53 52 49 47 47 44 43 46 48 49 49 49 50
47 45 41 36 35 35 34 35 38 46 57 61 57 56 56 53 50 50 51 51 49 49 49 47 47 51 54 55 54 53 52 51 50 49 45 42 42 45 47 48 48 48
47 44 40 36 33 33 33 32 36 43 54 62 60 55 54 53 51 50 51 52 51 50 50 48 47 49 51 53 54 53 52 52 51 51 47 44 44 45 46 47 48 47
47 44 39 36 33 32 31 31 33 39 50 61 63 59 55 53 52 51 51 51 51 49 48 47 48 49 49 50 51 51 52 54 54 54 51 47 46 46 47 48 49 48
47 43 39 36 33 32 31 30 31 36 44 55 63 63 59 55 53 52 51 50 49 47 46 45 46 48 48 49 50 51 51 52 54 54 53 49 47 47 48 51 51 51
46 43 39 37 35 32 31 30 30 33 39 48 57 62 61 57 55 54 53 51 48 46 46 45 45 46 47 47 48 50 50 49 49 49 49 47 46 47 49 51 51 49
46 43 40 38 36 34 33 31 30 32 36 43 51 58 60 59 58 56 55 53 49 46 46 46 45 47 47 45 45 48 49 49 47 46 46 45 45 47 50 52 52 50
47 43 41 39 38 36 35 34 32 32 34 39 46 54 58 59 60 59 57 55 53 50 49 48 49 49 48 47 46 47 49 49 47 46 46 47 49 51 53 56 58 56
48 44 41 40 40 39 37 36 35 33 34 37 42 49 55 57 59 60 60 58 56 55 54 52 51 50 49 49 51 51 50 48 47 46 46 48 52 53 54 57 59 59
49 45 42 41 41 41 40 39 38 36 36 37 40 46 52 55 57 58 60 60 59 59 59 58 56 54 51 50 53 55 53 48 47 48 48 51 53 53 53 55 56 56
51 47 42 41 42 43 42 42 42 41 39 39 40 43 49 53 56 57 59 60 60 60 60 60 60 60 58 55 54 56 55 52 50 51 53 54 55 55 55 55 55 54
53 50 45 41 42 44 45 45 45 45 44 42 42 43 46 51 54 57 59 60 60 59 59 59 60 61 62 61 59 57 56 55 54 55 56 57 56 56 55 55 55 55
55 52 48 44 42 44 47 47 47 47 47 45 44 44 46 49 52 55 58 60 61 61 60 59 60 61 63 65 64 61 59 57 57 58 59 59 58 58 57 57 57 57
56 54 52 48 45 44 47 49 50 50 50 49 47 46 47 49 51 54 57 59 60 61 62 62 62 63 64 65 66 64 62 60 59 60 60 60 61 61 61 61 61 60
56 56 54 52 49 46 47 50 52 53 53 53 52 50 49 50 52 54 56 58 60 61 62 64 65 66 65 65 64 64 63 63 63 62 62 61 61 61 62 62 62 62

ECMWFNIL_250_spd_069.txt.gz
Wind_Speed
46 46 46 46 45 45 45 46 46 46 47 47 47 47 48 51 49 44 45 47 48 51 53 54 53 52 51 49 46 46 50 54 53 45 39 40 44 44 42 39 37 35
47 48 48 47 47 47 47 47 48 48 48 49 49 47 46 50 52 47 42 42 43 47 50 52 53 53 52 51 49 46 47 51 51 45 41 41 42 41 41 40 37 36
48 49 49 49 49 49 49 49 49 49 48 49 49 47 46 47 52 50 45 39 37 43 50 51 51 51 51 52 52 49 46 48 49 45 44 44 41 39 40 39 37 37
49 50 50 51 51 51 51 50 50 50 48 48 48 47 45 45 49 51 48 42 37 40 46 48 46 47 49 51 51 48 45 46 46 45 46 46 43 40 40 41 40 40
51 51 52 52 52 52 52 52 51 50 49 47 47 46 44 44 48 52 49 45 41 39 42 46 47 47 48 48 47 45 45 45 45 46 47 45 42 40 39 40 41 42
52 53 53 53 54 54 54 53 52 50 49 47 45 44 43 43 47 53 51 46 43 42 44 47 48 46 44 44 45 44 45 45 45 47 48 45 42 42 42 42 42 42
54 54 55 55 55 55 55 55 53 50 48 46 44 43 42 42 46 53 53 48 46 47 49 50 49 45 42 42 46 46 44 45 44 46 47 46 45 46 46 45 44 43
56 56 56 56 56 56 56 55 54 51 48 46 43 41 41 41 45 54 55 49 48 49 50 49 49 47 42 42 48 49 45 45 45 45 47 47 48 49 49 48 46 45
57 57 58 58 57 57 57 55 53 51 47 45 42 39 39 40 43 53 56 51 49 50 50 49 50 49 45 45 50 52 50 48 46 46 48 49 51 51 50 49 47 45
58 59 59 59 58 58 57 55 53 50 47 45 41 37 37 39 42 51 57 53 50 50 50 49 50 49 47 47 50 55 54 51 48 46 46 47 51 53 53 51 49 46
60 60 60 60 59 59 58 55 53 49 45 44 41 37 35 37 41 49 56 54 51 50 49 48 49 48 48 48 49 53 56 55 52 48 45 43 46 51 53 52 49 48
61 61 61 61 60 60 58 55 52 48 44 43 40 37 35 36 40 47 54 54 50 49 47 46 49 50 50 49 47 49 53 57 56 53 49 46 43 46 49 50 49 50
63 63 62 62 61 60 58 54 52 48 44 41 39 37 36 36 39 45 52 53 50 48 46 45 48 51 51 49 46 45 49 54 58 58 55 53 49 46 47 48 50 51
64 64 63 63 62 61 58 55 52 47 43 40 38 36 36 36 38 43 51 54 51 47 45 46 47 49 51 50 48 48 49 52 57 60 59 58 55 52 50 48 49 48
65 65 64 64 63 62 59 55 52 48 42 39 37 36 36 37 38 42 50 56 53 47 45 48 48 48 51 51 49 50 49 49 54 59 60 60 58 56 54 52 51 49
66 66 66 65 64 62 60 56 52 48 43 39 37 36 36 38 39 42 49 56 56 51 48 50 50 49 52 53 52 51 47 46 51 56 58 60 59 58 56 55 54 53
68 67 67 66 65 64 62 57 53 49 43 39 36 36 37 38 40 43 48 56 58 54 51 52 52 52 54 55 56 54 49 45 47 51 55 58 59 59 58 58 57 55
69 69 68 67 66 65 63 59 54 50 44 39 36 36 38 39 40 43 49 56 59 56 54 54 55 55 56 56 57 56 53 49 47 48 51 55 58 59 60 61 59 57
70 70 69 68 67 66 64 60 56 51 46 41 37 36 39 40 41 44 49 56 60 58 56 56 58 60 59 58 58 57 55 53 50 49 51 52 55 58 60 61 59 58
71 70 69 69 68 67 65 62 58 54 48 43 38 37 39 42 43 45 49 56 61 60 59 59 61 62 63 62 61 59 57 54 52 54 55 53 53 55 57 58 57 57
71 71 70 69 69 68 66 63 60 56 50 45 40 37 39 43 44 46 50 57 62 63 62 62 63 64 64 64 64 63 61 56 52 54 57 56 53 53 55 55 55 55
72 72 71 71 70 68 67 65 62 58 51 46 42 38 39 44 46 47 50 56 62 65 65 65 64 65 65 66 65 65 65 60 55 54 58 59 56 53 53 53 53 54
73 73 72 72 71 70 69 67 64 59 52 47 44 40 39 43 48 48 51 56 61 65 68 68 67 67 67 67 67 68 67 64 60 57 57 59 59 56 54 53 51 53
75 75 74 73 72 72 71 69 65 59 53 47 45 43 40 42 48 51 51 55 60 64 68 71 70 69 70 69 69 69 68 66 65 62 59 60 61 61 60 56 53 53
77 77 76 75 74 73 72 69 65 60 54 48 46 44 42 42 47 53 53 55 60 64 67 71 73 72 72 72 71 70 69 68 68 66 63 61 60 62 64 63 58 56
79 78 78 77 76 73 70 67 63 59 55 50 47 45 44 43 45 53 56 56 59 64 67 69 72 74 74 74 74 73 72 71 71 69 65 62 59 58 62 65 64 63

ECMWFNIL_250_spd_072.txt.gz
Wind_Speed
52 51 51 50 49 47 46 44 44 44 44 43 43 43 43 44 44 43 43 44 46 49 48 46 48 47 43 42 46 52 54 52 49 47 45 44 43 44 46 46 44 41
52 51 51 51 50 48 47 46 45 45 46 45 44 43 44 44 44 43 42 44 45 49 52 50 49 49 47 43 41 45 50 51 50 47 45 45 43 41 43 47 48 45
52 52 52 51 50 49 48 47 47 47 47 47 45 44 45 45 46 44 42 43 44 46 52 54 52 49 49 47 42 43 48 48 46 45 43 46 46 42 43 46 48 49
53 53 52 52 51 51 50 49 49 48 48 48 47 46 47 47 47 46 43 42 43 43 47 52 54 51 50 49 46 44 46 47 48 48 47 48 49 47 48 48 48 49
53 53 53 52 52 52 51 51 51 50 48 48 47 47 48 49 49 48 45 42 41 42 43 46 48 50 50 49 47 45 44 46 50 52 50 50 50 48 47 47 47 49
54 54 53 53 53 53 53 52 52 51 49 49 49 49 49 50 50 49 46 42 40 39 41 41 40 45 49 48 47 46 46 46 49 50 49 48 51 51 48 45 45 48
54 54 54 54 54 54 54 53 52 51 50 50 50 50 50 50 50 49 46 42 38 37 39 39 39 44 48 46 44 43 44 45 47 48 48 48 49 51 50 48 46 48
55 55 55 55 55 56 55 55 53 52 51 51 51 51 51 50 50 50 47 41 37 35 37 40 41 45 48 46 41 37 38 43 44 45 46 48 48 47 47 47 47 50
56 56 56 56 57 57 57 55 54 53 52 52 52 52 52 51 50 50 47 41 37 34 37 41 43 47 49 46 40 36 39 43 45 45 45 46 48 47 46 46 48 51
57 57 58 58 58 58 58 57 56 55 54 53 53 53 53 52 50 50 48 41 36 33 36 41 44 48 50 47 42 39 40 42 43 45 44 45 48 49 48 47 48 52
58 58 59 59 59 60 59 59 58 57 55 55 54 54 54 53 51 51 48 42 36 32 37 44 48 52 55 53 47 41 39 40 42 43 42 44 47 49 49 49 49 52
60 60 60 60 61 61 60 60 60 58 57 56 55 55 55 54 52 51 48 42 36 32 37 47 53 57 58 56 51 44 39 40 43 43 42 42 45 48 50 51 51 53
61 61 61 62 62 62 62 61 61 60 58 57 57 56 56 55 53 51 48 43 37 32 37 50 57 58 57 56 54 49 44 44 44 44 43 40 43 49 51 52 54 56
62 62 62 62 63 63 63 63 63 62 60 59 58 57 56 56 54 52 49 44 38 32 37 51 59 60 58 57 56 50 47 48 48 48 47 42 42 48 52 53 55 56
62 63 63 63 64 64 64 64 64 63 62 61 60 59 58 56 55 52 49 45 40 33 36 50 60 62 61 59 57 53 49 49 50 52 52 47 44 48 52 54 54 54
63 64 64 65 66 66 65 65 65 64 64 63 62 61 59 58 56 52 48 46 42 35 35 49 60 64 64 60 58 57 53 50 51 54 56 53 48 49 53 56 56 56
64 65 66 66 67 66 66 66 66 65 65 65 64 63 62 59 57 53 49 46 43 37 35 46 58 63 65 62 58 59 59 54 51 54 57 56 52 50 53 58 60 60
65 66 66 67 67 67 67 67 67 67 67 66 66 65 64 61 58 55 50 46 44 40 35 43 56 62 64 64 61 61 62 60 55 54 56 57 55 52 53 56 60 63
66 67 67 67 68 68 68 68 68 68 68 68 68 67 65 63 60 57 52 47 44 42 38 40 54 62 64 64 63 63 65 64 60 57 57 57 55 54 54 55 57 60
68 68 68 69 69 69 69 69 70 70 70 70 70 69 67 65 62 59 55 49 45 44 41 40 50 63 66 64 63 64 66 68 65 61 60 58 54 53 55 56 56 58
69 69 70 70 70 71 71 71 71 72 72 71 71 70 68 67 65 62 58 51 46 45 44 42 48 62 69 66 65 65 66 68 68 65 63 61 56 53 53 54 55 56
71 71 72 72 72 73 73 73 73 73 73 72 72 71 70 69 68 65 61 54 47 45 46 45 46 59 70 70 66 66 67 68 70 69 67 65 62 58 55 54 54 54
72 73 73 74 74 74 74 75 74 74 74 73 73 72 72 71 70 68 64 58 50 46 47 48 47 55 69 73 69 67 68 70 71 71 71 69 68 65 60 56 55 55
74 74 75 75 75 76 76 76 76 76 76 75 75 75 75 74 72 70 66 61 54 48 47 50 49 53 65 75 74 70 70 72 72 72 74 73 72 71 66 61 59 59
76 76 77 77 78 78 79 79 79 79 79 78 78 77 77 75 73 71 67 63 57 50 48 51 52 53 60 72 78 76 74 74 73 73 75 76 75 74 73 68 64 64
78 79 79 80 80 81 81 82 82 82 82 81 80 79 78 76 74 71 67 62 57 52 49 51 54 55 58 68 78 81 79 77 76 75 75 77 78 78 77 73 68 66

ECMWFNIL_250_spd_075.txt.gz
Wind_Speed
52 52 52 52 53 53 52 52 52 52 52 51 50 50 50 50 49 48 47 46 47 47 45 43 43 43 44 44 45 46 46 46 46 44 43 43 44 44 43 43 44 42
51 51 51 51 51 51 52 52 52 52 52 51 51 51 51 50 49 49 48 47 48 47 47 45 45 44 44 45 45 45 46 47 48 46 45 45 46 47 46 44 43 43
50 50 50 50 50 50 51 51 51 52 51 51 51 51 51 51 50 49 49 48 49 49 48 47 46 46 46 46 47 47 46 48 50 49 46 46 48 50 49 46 43 43
50 50 50 49 50 50 51 51 51 51 52 52 52 51 51 51 51 50 50 50 50 50 50 48 47 47 46 45 45 47 47 47 51 53 51 49 50 50 50 47 44 43
49 50 50 50 50 50 50 51 51 51 52 52 52 52 52 52 52 52 51 51 51 51 50 49 49 48 47 45 44 45 47 45 48 54 55 52 52 51 51 48 45 44
49 50 50 50 50 50 50 51 51 52 52 52 52 52 52 52 53 53 52 52 51 51 50 50 50 49 47 46 44 43 45 45 46 51 54 54 53 52 51 49 47 44
49 50 51 51 51 51 51 51 52 52 52 52 52 52 53 53 54 54 53 52 52 51 51 50 50 50 48 46 44 42 43 46 47 49 53 55 54 54 52 50 49 45
49 50 51 52 52 51 51 52 52 53 53 52 53 53 53 54 55 55 53 52 52 51 51 51 51 51 49 47 44 43 42 44 48 50 53 56 56 55 53 50 50 48
50 50 50 51 52 52 52 52 53 53 53 53 53 53 54 55 55 55 54 53 52 51 51 52 51 51 50 48 45 43 42 43 47 49 52 57 57 57 55 52 53 53
51 51 51 51 52 52 53 53 54 54 54 54 54 54 55 56 56 56 55 54 52 51 51 51 51 51 51 49 46 44 42 42 46 48 51 56 56 56 57 54 53 54
53 53 52 52 53 53 54 54 55 54 54 54 54 55 56 56 57 57 56 55 53 52 52 51 51 51 51 50 47 44 42 42 46 49 51 55 56 57 58 56 53 52
54 54 54 54 54 54 55 55 55 55 55 55 55 55 56 57 57 57 56 55 54 52 52 51 51 51 50 50 48 44 42 42 47 50 50 52 56 57 58 56 53 50
55 55 55 55 55 55 56 56 56 56 56 56 56 56 57 57 57 57 56 55 55 53 52 51 51 51 50 49 48 45 43 42 47 52 51 51 53 55 54 53 53 51
56 56 56 56 56 56 57 57 57 58 57 57 57 57 58 58 58 57 57 56 55 54 53 52 51 51 50 49 48 46 43 43 47 53 54 53 53 52 51 51 53 53
57 56 57 57 57 57 58 58 58 59 59 59 59 59 59 59 58 58 58 57 57 55 54 53 52 51 50 49 48 46 44 43 48 55 56 57 55 53 52 52 54 55
58 57 57 58 58 59 59 59 60 60 60 60 60 60 60 60 60 60 59 59 58 57 55 54 53 52 51 49 48 46 45 43 48 56 59 60 60 56 53 53 54 55
59 59 59 59 59 60 60 61 61 61 62 62 62 62 62 62 62 61 61 60 59 58 57 56 54 53 52 51 48 46 45 44 47 56 61 63 64 59 53 53 55 55
61 61 61 60 61 61 61 62 62 63 63 64 64 64 64 64 63 63 62 62 61 60 59 58 56 55 53 52 50 47 45 44 46 55 63 65 66 62 57 55 56 57
62 62 62 62 62 62 62 62 63 64 64 65 65 65 66 65 65 65 64 64 63 62 61 59 58 57 55 54 52 48 46 45 46 53 64 68 68 67 62 59 58 58
62 62 63 63 63 63 63 64 64 65 65 66 66 67 67 67 67 66 66 66 65 64 63 61 60 58 57 56 54 50 48 47 46 51 63 69 70 70 69 64 60 60
64 63 64 65 65 65 65 66 66 67 67 68 68 69 69 69 69 69 68 68 67 66 65 64 62 61 59 58 56 53 50 49 48 50 60 70 72 72 73 69 63 62
65 65 66 66 66 67 67 68 68 69 69 70 71 71 71 71 71 71 71 70 70 70 69 67 65 63 62 60 59 56 52 51 50 51 57 69 74 73 73 72 66 64
67 68 68 68 68 69 70 70 71 72 72 73 73 74 74 74 74 74 74 73 73 72 72 71 69 67 64 62 61 60 56 53 53 53 56 66 76 76 75 74 71 67
69 69 70 70 71 72 73 74 74 75 75 76 76 76 77 77 77 76 76 76 75 75 74 74 72 70 68 65 63 62 59 56 55 56 57 64 75 80 78 78 76 72
70 71 73 73 74 75 76 77 77 78 78 79 79 79 79 80 79 79 79 78 77 76 76 75 74 73 70 68 65 63 61 58 57 58 59 63 74 81 82 81 80 78
72 73 75 76 77 78 78 79 80 81 81 81 82 82 82 82 81 81 80 80 79 78 77 76 75 74 72 69 67 64 63 61 59 60 62 64 72 82 85 83 82 81

ECMWFNIL_250_spd_078.txt.gz
Wind_Speed
53 53 52 51 50 50 50 49 49 49 50 50 51 51 51 51 50 50 49 48 47 47 46 47 48 48 50 50 49 49 47 45 44 44 46 48 49 48 46 46 47 45
55 53 52 50 49 49 49 49 49 49 49 50 50 51 51 51 50 50 49 48 47 47 47 48 49 49 50 50 50 49 48 47 46 45 46 48 49 49 48 47 49 49
55 53 51 50 49 49 49 49 49 49 49 50 50 51 51 51 51 50 49 49 47 47 48 49 50 50 50 51 50 50 49 48 47 47 47 47 48 49 48 47 48 52
56 54 52 51 50 50 49 49 50 50 49 50 50 51 51 52 51 51 50 49 48 48 49 50 51 51 51 51 51 50 49 49 49 48 47 47 47 48 48 47 47 51
56 55 53 52 53 52 51 50 50 50 50 50 50 51 52 52 52 52 51 50 49 49 50 50 51 52 52 52 51 51 50 50 50 49 48 47 47 46 47 47 47 49
56 55 54 54 55 54 52 51 51 51 50 50 51 51 52 53 53 53 53 52 51 51 51 51 51 52 52 52 52 52 50 50 51 50 49 48 47 46 46 47 48 48
56 57 57 56 56 56 54 53 52 51 51 51 51 51 52 53 54 54 54 54 53 52 52 52 52 53 53 53 53 53 51 51 51 51 50 49 48 46 45 45 47 49
59 60 60 58 57 57 56 54 53 52 52 51 52 52 53 53 54 54 55 54 54 53 53 53 53 54 54 54 54 54 53 52 52 52 51 49 48 47 45 43 45 49
61 63 62 60 58 56 55 54 53 53 52 52 52 53 53 54 54 54 55 55 55 54 54 54 54 54 55 55 55 55 54 54 53 52 51 50 48 47 45 43 43 47
63 64 64 62 59 56 54 54 54 53 53 53 53 53 53 54 55 55 56 56 56 56 55 55 55 55 55 56 56 56 55 55 54 53 52 50 48 47 45 43 42 45
65 65 65 63 60 57 56 56 55 54 54 54 54 54 54 54 55 55 56 57 57 57 56 56 56 56 56 56 56 56 56 55 55 54 52 50 49 47 46 44 42 43
66 65 64 62 61 60 60 58 57 55 55 55 55 54 54 54 55 55 56 57 57 58 57 57 57 57 57 58 57 57 57 56 55 54 53 51 49 47 45 44 42 42
65 64 63 62 62 63 63 61 59 57 56 56 56 55 55 55 55 55 56 57 58 58 58 58 58 58 58 59 59 58 58 57 56 55 54 52 50 47 45 44 42 41
64 64 64 64 65 65 64 63 61 59 58 58 57 57 57 56 56 56 56 57 58 58 59 59 59 59 59 59 59 59 59 58 57 56 55 53 51 48 45 44 43 41
65 65 66 66 66 66 65 64 63 61 60 59 59 58 58 58 58 58 57 58 58 59 59 59 59 59 59 59 60 61 61 60 59 57 56 54 52 49 46 44 43 42
66 66 66 66 66 66 66 65 65 63 62 61 60 59 59 59 59 59 59 59 59 60 60 60 60 60 60 60 60 61 62 62 61 59 57 55 54 51 48 45 44 43
65 65 65 65 66 66 66 66 65 64 63 62 61 61 61 61 61 60 60 60 60 60 61 61 61 62 62 61 61 61 62 62 62 61 59 57 55 53 50 47 45 44
63 64 64 65 66 67 67 66 66 65 65 64 63 62 62 62 62 61 61 61 61 61 62 62 62 62 62 62 62 62 62 62 62 62 61 59 57 55 52 48 46 45
62 64 65 66 67 67 68 67 67 66 66 66 65 64 64 63 63 63 63 63 63 63 64 64 64 64 63 63 64 63 63 63 63 63 62 61 59 57 54 51 48 46
64 65 67 68 68 68 68 68 68 68 67 67 67 66 66 66 66 66 66 66 66 66 66 67 67 66 66 65 65 65 65 65 65 64 63 62 61 59 57 54 50 48
66 67 68 69 69 69 69 69 69 69 69 69 68 68 68 68 68 68 69 69 69 69 69 70 70 70 70 69 68 68 68 68 67 67 66 64 63 61 60 57 53 51
67 68 68 69 70 70 70 70 70 70 70 70 70 70 70 70 71 71 72 72 73 73 73 73 73 74 74 73 73 71 70 70 70 70 69 67 65 64 62 61 57 54
67 67 68 69 70 71 71 71 72 72 72 72 72 72 72 73 73 74 75 75 76 77 77 77 77 77 77 77 77 76 74 73 72 72 71 70 68 66 65 63 61 58
68 69 70 70 71 72 72 72 72 73 73 73 74 74 75 76 76 77 78 79 79 80 80 80 80 79 79 79 79 79 78 76 75 74 73 73 72 69 67 66 64 62
69 70 71 72 72 72 73 73 73 74 74 75 76 77 77 78 79 80 81 82 82 82 82 82 82 82 81 81 81 80 80 79 77 76 75 74 74 72 70 68 66 65
71 71 72 72 73 73 73 74 75 75 76 77 78 79 80 81 81 82 82 83 84 84 84 83 83 82 81 80 80 79 79 79 78 76 75 74 74 74 72 69 68 67

ECMWFNIL_250_spd_081.txt.gz
Wind_Speed
58 58 58 58 58 58 58 57 57 57 55 55 54 53 52 51 51 50 49 48 48 48 47 48 49 50 51 52 51 51 50 49 49 49 49 49 47 45 45 45 45 45
56 56 56 56 56 57 57 57 58 58 58 57 56 55 53 52 50 49 49 49 49 49 48 48 49 50 51 52 53 52 52 51 50 50 50 50 49 47 46 46 46 46
55 55 54 55 55 56 57 58 59 60 59 59 58 57 55 52 51 50 49 49 49 49 49 49 49 50 51 52 53 54 54 53 52 52 51 51 50 48 48 47 47 47
55 55 55 56 57 58 58 59 60 60 60 59 58 56 53 52 51 51 50 50 50 49 49 49 50 50 51 52 54 55 55 55 54 54 53 53 52 50 49 48 48 48
56 56 57 57 58 59 59 59 60 61 60 59 58 56 54 52 53 53 52 50 49 49 49 50 50 51 51 53 54 55 56 56 56 55 54 54 53 52 50 49 48 48
57 57 58 59 59 60 61 61 61 62 61 60 59 58 57 55 54 53 53 51 50 49 49 50 50 51 52 53 54 55 56 57 57 57 56 55 54 54 52 50 49 49
59 59 60 60 61 62 62 62 62 62 61 61 60 59 59 58 55 54 52 51 50 50 50 50 50 51 52 53 54 55 56 57 58 58 57 56 55 55 53 51 50 50
59 60 60 61 61 62 62 62 62 61 61 61 61 61 61 60 59 56 53 51 50 50 51 51 51 51 52 53 54 55 56 57 58 58 58 58 57 56 55 53 51 51
59 58 58 59 59 60 61 61 61 61 61 61 62 63 63 63 62 59 55 54 53 52 52 52 52 52 52 53 54 55 57 57 58 58 59 59 58 57 56 54 53 52
58 58 58 58 58 59 59 60 60 61 62 63 64 65 65 65 63 60 58 57 56 55 54 53 53 53 53 54 55 55 57 58 58 59 59 59 59 59 57 56 54 53
58 58 58 58 58 59 59 60 60 61 63 64 64 65 64 63 62 61 61 61 60 57 56 55 55 55 55 55 56 56 57 58 58 59 59 59 60 59 59 58 56 54
59 59 59 59 60 60 60 61 61 62 63 63 63 63 63 63 63 63 64 64 63 61 58 57 57 57 57 57 57 57 58 58 59 59 59 59 60 60 59 59 58 56
59 59 59 60 61 61 61 61 62 62 63 63 64 64 64 65 65 66 66 66 65 63 61 59 59 58 59 59 58 59 59 60 60 60 60 60 60 60 60 60 59 58
60 60 60 61 61 62 62 62 62 62 63 64 65 65 66 66 67 67 67 67 65 64 63 62 61 60 60 60 60 60 60 61 61 62 62 61 61 61 61 61 61 60
62 62 63 63 62 62 62 62 62 62 63 63 64 65 66 67 68 68 68 68 66 65 64 62 61 61 61 61 61 62 62 62 62 63 63 63 63 63 63 62 62 62
65 65 65 64 63 62 61 61 61 62 63 63 64 65 66 67 68 69 69 69 67 66 64 63 62 62 62 62 62 63 63 63 64 64 64 64 64 65 65 64 64 64
67 67 66 65 63 62 61 61 61 62 63 64 65 66 67 68 69 69 69 69 69 68 66 65 64 64 63 63 63 63 64 65 65 66 66 66 66 66 66 66 66 65
66 65 64 64 63 62 62 62 62 63 64 65 66 67 68 68 68 69 69 69 69 69 68 68 67 66 66 65 65 65 65 66 67 67 67 68 68 68 67 68 68 67
63 63 62 62 62 62 62 63 63 64 65 66 67 67 68 68 69 69 69 70 70 70 70 70 70 69 69 69 68 68 68 68 68 69 69 70 70 70 70 69 69 69
61 61 60 60 60 61 61 62 63 65 66 66 67 67 68 68 69 69 70 70 70 71 71 71 71 72 72 72 72 72 72 72 71 71 72 72 72 72 72 72 71 71
61 61 61 61 62 62 62 63 64 65 66 66 67 68 69 69 70 70 71 71 72 72 72 73 73 74 74 75 75 75 76 76 75 75 75 75 75 75 75 75 75 74
63 64 64 64 64 64 64 65 65 66 67 67 68 68 69 70 71 72 73 73 74 74 75 75 76 76 77 78 78 79 79 79 79 78 78 78 77 77 77 77 77 76
65 65 65 65 64 64 64 65 66 66 67 67 68 69 71 72 73 74 75 76 76 77 77 78 79 79 80 80 81 81 81 81 81 80 80 80 79 78 78 77 77 77
65 64 64 63 63 63 64 65 66 67 68 69 70 71 72 73 74 75 76 77 78 79 80 80 81 81 81 81 82 82 83 82 82 81 81 80 80 79 78 78 77 77
63 63 62 63 63 63 64 65 67 68 69 70 71 73 73 74 75 77 78 79 80 80 81 81 81 81 81 82 82 82 83 82 82 81 80 79 79 78 77 77 76 76
61 61 62 62 63 64 65 67 68 70 71 72 73 74 75 76 77 78 78 79 80 80 80 80 81 80 80 80 80 79 79 79 79 78 77 76 76 75 75 74 73 73

ECMWFNIL_250_spd_084.txt.gz
Wind_Speed
58 58 57 57 56 56 55 55 55 55 54 54 54 54 54 54 54 54 54 54 55 55 55 55 54 53 52 51 50 50 50 50 49 49 48 47 47 47 47 47 48 49
57 56 56 55 55 55 54 53 54 54 54 54 54 54 55 55 55 56 56 56 56 56 56 56 54 53 51 51 51 51 51 51 51 50 49 49 48 48 48 48 48 49
55 55 54 54 54 54 53 53 53 53 54 55 55 55 56 56 57 58 57 58 58 57 57 57 56 54 53 52 51 51 51 51 51 51 50 50 49 49 49 49 49 49
54 54 54 54 54 54 54 53 53 54 55 55 56 57 57 58 58 59 59 59 59 59 58 57 57 56 54 53 52 51 51 51 51 51 51 51 51 50 50 50 51 51
53 54 54 55 55 55 55 55 55 56 56 57 58 59 59 59 59 59 59 59 59 59 59 58 57 57 56 55 53 51 51 51 51 51 51 52 52 52 51 51 52 52
54 54 55 55 56 56 56 56 57 57 58 59 60 60 60 60 60 59 59 58 58 59 59 59 58 57 57 57 55 53 52 52 51 51 51 52 53 53 53 53 53 53
54 55 55 56 56 57 57 58 58 59 60 60 61 61 61 60 60 59 58 58 58 58 58 58 58 58 58 58 57 56 54 53 53 53 53 53 54 54 54 54 54 54
55 56 57 57 58 58 58 59 60 61 61 62 62 62 61 61 60 60 59 59 59 59 59 59 59 59 60 59 59 57 56 56 55 55 54 55 55 56 56 55 55 55
57 58 58 59 59 59 59 60 61 62 62 62 62 61 61 61 61 60 60 60 60 60 60 60 60 60 60 60 60 59 59 59 59 58 56 56 57 57 57 57 57 56
58 58 58 59 59 60 60 61 62 63 63 62 62 61 61 61 61 61 61 61 61 61 61 61 61 61 61 61 61 62 62 62 62 60 58 57 57 58 58 59 58 58
58 58 59 59 60 61 61 62 63 63 64 63 63 62 62 62 62 62 62 62 62 62 62 62 62 62 62 63 63 64 64 64 63 62 61 59 59 59 60 60 60 60
59 59 60 60 61 62 62 63 63 63 64 64 64 64 64 64 64 64 64 64 63 63 62 62 63 63 64 64 65 65 65 65 64 63 63 62 61 61 61 61 61 61
60 60 61 62 62 63 63 63 64 64 65 65 65 66 66 66 66 66 66 65 64 63 63 63 64 64 65 65 65 66 66 66 65 65 65 64 63 62 62 62 63 63
61 62 62 63 63 64 64 65 65 65 66 66 67 68 68 68 67 66 66 64 64 64 64 64 64 65 65 66 66 67 67 67 67 67 66 66 65 64 63 63 64 64
63 64 64 65 65 65 66 66 66 66 67 68 68 69 68 67 66 65 65 64 63 63 63 64 65 65 66 67 68 69 69 69 69 69 68 67 66 66 65 65 65 65
64 65 66 66 67 67 67 67 67 67 68 68 68 67 66 65 65 64 64 63 63 63 64 64 65 66 67 68 69 70 71 71 71 70 69 68 68 68 68 68 68 67
65 66 67 67 68 68 68 68 68 68 68 68 67 66 65 65 65 64 64 64 64 65 66 66 67 68 69 70 70 71 71 71 71 71 70 70 70 69 70 70 71 71
65 66 67 67 68 68 68 69 69 69 69 69 68 67 67 67 66 66 66 67 67 68 68 69 69 70 71 71 72 72 72 72 72 72 72 72 72 71 72 72 73 74
64 65 66 67 68 68 69 69 70 70 70 70 69 68 68 69 69 69 69 69 69 69 69 70 71 71 72 72 73 73 73 73 74 74 74 74 74 74 74 74 75 76
63 65 66 67 68 68 69 70 71 71 71 70 69 69 70 71 71 70 69 69 69 69 69 70 71 71 72 73 74 75 75 76 76 76 76 76 77 77 77 77 77 78
63 64 66 67 68 69 70 71 71 71 70 70 71 72 73 72 71 69 68 68 68 69 70 70 71 72 73 74 76 77 78 79 79 79 79 79 79 79 79 79 79 79
64 66 67 68 68 69 70 70 70 70 71 72 73 73 72 70 68 68 68 68 69 70 71 72 73 74 75 77 78 79 81 82 82 81 81 81 80 80 79 79 78 78
65 66 66 67 67 68 69 69 70 71 72 73 71 69 68 67 67 67 68 69 70 71 73 74 75 76 78 78 79 80 81 82 82 82 81 81 80 79 79 78 77 76
64 65 65 66 67 68 69 70 71 72 71 69 67 66 66 66 67 68 69 71 72 74 75 76 77 78 79 79 79 79 79 80 80 81 80 80 80 79 78 77 76 75
63 64 65 66 68 69 70 71 70 68 66 65 65 65 66 67 68 69 71 72 74 75 76 77 78 78 78 78 78 78 78 78 78 78 77 77 76 76 75 74 73 72
64 65 66 68 69 69 68 67 65 64 64 65 66 66 67 69 70 71 72 74 75 75 76 76 77 77 77 77 76 76 75 75 74 73 73 72 72 71 71 70 69 68

ECMWFNIL_250_spd_090.txt.gz
Wind_Speed
65 66 66 67 67 68 68 67 67 65 64 64 63 62 62 61 61 61 60 60 60 59 59 58 58 57 57 56 56 56 57 57 57 58 58 58 58 57 56 56 55 54
69 69 69 69 70 70 69 68 66 65 64 63 62 62 61 61 61 60 60 60 60 60 60 60 59 59 59 59 59 59 59 59 59 59 59 59 59 58 58 57 56 55
71 71 70 70 70 69 68 67 66 64 63 62 62 61 61 61 61 61 61 61 61 61 61 61 61 61 61 61 61 61 61 60 60 59 59 59 59 59 59 58 58 57
71 71 70 70 70 69 67 66 64 63 62 61 61 61 61 61 61 62 62 62 62 62 62 63 63 63 63 63 62 62 61 61 60 60 60 60 60 60 59 59 59 59
70 69 69 69 68 66 65 63 61 61 60 60 60 61 61 62 62 63 63 64 64 64 64 64 64 64 63 63 62 61 61 61 61 61 61 61 61 61 61 61 61 60
68 67 67 65 63 62 60 59 58 58 58 59 59 60 61 61 62 63 63 64 64 64 64 64 63 63 62 62 62 62 62 62 62 63 63 63 62 62 62 62 62 62
65 64 63 61 60 59 58 58 57 57 58 58 59 59 60 61 61 62 62 62 63 63 63 63 63 62 62 62 62 63 63 63 63 64 64 64 64 63 63 63 64 64
62 61 60 59 58 58 58 58 58 58 58 59 59 59 60 60 61 61 62 62 62 62 62 62 62 62 62 63 63 64 64 64 65 66 66 65 65 65 65 65 65 64
60 59 58 58 58 58 58 58 58 59 59 59 59 59 59 60 60 61 61 61 62 62 62 62 62 62 63 63 64 64 65 66 67 67 67 67 67 67 67 66 66 65
58 58 58 58 58 58 58 58 59 59 59 59 59 59 59 59 60 60 60 60 60 61 61 61 62 62 63 64 64 65 66 67 67 68 68 68 69 68 68 68 68 67
56 57 57 57 57 58 58 59 59 59 60 59 59 59 59 60 60 60 60 60 60 61 61 61 62 63 63 64 65 66 67 68 68 69 69 69 70 70 70 70 70 69
55 55 56 57 57 58 59 59 59 60 60 60 60 61 61 61 61 61 61 62 62 62 62 63 63 64 65 66 67 68 68 69 69 70 70 70 71 71 71 72 71 70
54 54 55 56 57 58 58 59 59 60 60 61 62 62 63 63 63 63 64 64 64 64 65 65 66 67 67 68 69 70 70 71 71 71 72 72 72 73 73 72 72 71
54 55 56 57 58 58 59 59 60 61 62 63 64 64 65 65 65 66 66 66 66 67 67 68 68 69 70 70 71 71 72 72 72 73 73 74 74 74 74 73 73 74
57 58 58 59 59 60 61 62 63 64 64 65 66 66 67 67 67 67 68 68 68 68 69 69 70 71 71 72 72 72 73 73 74 74 75 75 75 75 75 75 76 76
59 59 60 61 62 63 64 64 65 66 66 66 66 67 67 68 68 68 69 69 69 70 70 71 71 72 72 73 73 73 73 74 74 75 75 76 76 77 78 78 77 77
60 61 61 62 63 64 65 65 66 66 66 66 66 67 67 68 68 69 69 70 70 71 71 72 72 72 73 73 73 73 74 75 75 76 76 77 78 79 79 79 79 79
60 61 62 63 64 65 65 65 65 65 65 65 66 67 67 68 69 69 70 70 71 71 72 72 72 73 73 73 74 74 75 75 76 77 78 79 79 80 80 80 80 80
61 62 63 64 65 65 65 65 65 65 65 65 66 67 68 68 69 69 70 71 71 72 72 72 73 73 73 74 74 75 76 77 78 78 79 80 80 80 80 81 81 82
63 64 65 66 66 66 65 65 65 65 65 66 66 67 68 68 69 69 70 71 71 72 72 73 73 73 74 74 75 76 78 79 79 80 80 80 80 80 81 82 82 82
65 65 66 67 67 66 65 65 65 65 66 66 66 67 68 68 69 69 70 71 71 72 72 73 73 74 75 76 77 79 80 80 80 80 80 80 81 81 81 80 80 79
66 67 68 68 67 67 66 66 65 65 65 65 66 67 67 68 68 69 70 71 71 72 73 73 74 75 77 78 79 80 80 80 80 80 80 81 81 80 79 78 78 77
67 68 69 68 68 67 66 65 65 65 65 65 66 66 67 67 68 69 70 71 71 72 73 74 75 77 78 79 79 79 79 79 80 81 81 80 79 78 78 78 77 76
68 69 68 68 67 66 65 64 64 64 64 64 65 66 67 67 68 69 70 71 72 73 74 75 76 77 77 77 77 78 79 80 80 80 79 79 78 78 78 77 76 74
69 69 68 67 66 65 64 63 63 63 63 64 65 66 67 68 69 70 71 72 73 74 75 75 75 74 75 76 77 78 79 79 78 78 78 78 78 77 76 75 73 72
69 68 67 65 64 63 63 63 62 62 63 64 65 67 68 69 70 71 72 73 73 73 73 72 72 73 74 76 77 77 77 77 77 77 77 76 75 73 72 71 70 69

ECMWFNIL_250_spd_096.txt.gz
Wind_Speed
70 71 72 73 74 75 76 77 78 79 80 82 83 83 83 84 84 84 84 84 84 83 82 80 77 74 70 68 66 64 63 62 61 61 60 60 60 60 60 60 60 59
74 75 76 77 78 78 79 80 81 82 83 84 84 84 84 84 84 84 83 83 82 80 78 75 71 68 66 64 63 62 62 61 61 61 61 61 61 61 61 61 61 61
78 78 79 79 80 81 81 82 82 83 83 84 84 84 84 84 83 82 81 80 78 75 72 69 66 65 64 63 63 63 62 62 62 62 62 62 63 63 63 63 63 63
80 80 79 79 80 80 80 81 81 82 83 83 83 83 82 82 80 79 77 75 72 70 67 66 65 64 64 64 64 64 64 64 64 65 65 65 65 65 66 66 66 65
76 76 77 77 77 78 79 80 81 82 82 82 81 80 79 78 76 74 72 70 68 67 66 65 65 65 65 65 66 66 66 66 67 67 67 67 67 67 67 67 67 67
72 73 74 75 76 77 78 79 79 79 79 78 78 77 75 74 72 70 68 67 67 67 66 66 67 67 67 67 67 67 67 68 68 68 68 68 68 68 68 68 68 68
70 71 72 73 74 75 76 76 76 76 75 75 74 73 71 70 69 68 68 67 67 67 67 68 67 67 67 68 68 68 69 69 69 69 69 69 69 69 69 69 69 68
69 70 71 72 73 73 74 74 75 74 74 73 71 70 69 68 68 68 68 68 68 68 68 68 68 68 69 69 70 70 70 71 71 72 72 71 71 70 70 69 69 69
68 69 70 71 72 73 73 73 73 72 71 70 69 68 67 67 67 68 68 68 68 68 69 69 69 69 70 70 71 71 72 73 74 74 74 74 73 72 71 70 70 70
67 68 70 70 71 71 71 70 70 69 67 67 66 67 67 68 68 68 68 69 69 69 69 70 70 70 71 72 72 73 74 75 76 77 76 75 74 73 72 71 71 70
67 68 68 68 68 68 67 67 67 66 66 66 67 67 68 69 69 69 69 69 69 70 70 71 71 72 72 73 74 75 77 78 78 78 77 76 74 73 72 71 71 71
65 66 65 65 65 65 65 66 66 66 66 67 68 68 69 69 69 69 70 70 71 71 72 72 72 73 73 75 76 77 79 79 79 78 77 76 74 73 72 71 71 71
62 62 62 62 63 64 65 66 66 67 68 69 69 69 69 69 70 70 71 72 72 73 73 73 73 74 75 76 78 79 80 80 79 78 77 75 73 72 71 71 70 70
60 60 61 62 64 65 66 67 67 68 68 69 69 69 69 70 71 72 73 73 74 74 73 74 74 75 77 78 79 80 80 80 78 77 76 74 73 72 71 70 70 71
60 60 62 63 65 66 67 67 67 67 68 68 69 70 71 72 73 74 74 74 74 74 74 75 76 77 78 79 80 80 79 78 77 75 74 73 72 71 71 71 71 71
60 61 63 64 66 66 66 66 66 67 68 69 70 71 72 73 74 74 74 75 75 75 76 77 78 79 80 80 79 79 77 76 75 74 73 72 72 71 71 72 72 72
61 62 63 65 66 66 66 66 67 68 69 70 71 72 73 74 74 75 75 76 76 77 78 79 80 80 80 79 78 77 76 74 73 72 72 72 72 73 73 73 73 73
62 62 64 65 66 66 66 67 67 68 69 70 71 72 74 75 75 76 77 77 78 78 79 80 80 79 78 77 76 75 74 72 71 71 71 72 73 73 73 73 74 74
63 64 65 66 66 66 66 66 67 68 69 70 72 74 75 76 77 78 78 79 79 79 79 79 78 77 76 75 74 73 72 71 71 71 71 72 72 73 73 74 75 76
65 66 66 66 66 66 65 65 66 68 70 72 74 75 77 77 78 79 79 79 78 78 77 76 76 75 75 74 72 71 70 70 70 71 71 71 72 73 74 75 76 77
66 67 66 66 65 64 64 65 67 69 71 73 75 76 78 78 79 79 78 78 77 76 75 74 74 74 73 71 70 69 69 70 70 70 71 71 72 74 75 76 77 77
67 66 66 65 65 64 65 66 68 70 72 74 76 77 78 78 78 77 77 77 76 75 74 73 73 72 71 69 69 69 69 69 70 70 71 72 73 74 76 77 77 76
66 65 65 65 64 65 66 68 70 71 73 75 76 77 77 76 76 76 76 76 75 73 72 72 71 70 69 68 68 68 69 69 70 71 72 73 74 74 75 76 76 75
65 65 65 65 65 66 68 69 71 73 74 75 75 75 75 75 76 76 76 75 73 72 72 71 70 69 68 68 68 68 69 70 71 72 73 73 74 74 74 74 74 73
65 65 65 66 66 68 69 70 71 72 73 73 73 73 74 75 76 76 75 73 72 72 71 70 68 68 68 68 68 69 70 71 72 72 73 73 73 73 73 72 71 70
65 66 66 67 67 68 69 70 70 71 71 71 71 73 74 76 76 75 73 71 71 71 70 68 68 68 68 68 69 70 70 71 71 71 71 72 73 73 72 71 69 67

ECMWFNIL_250_spd_099.txt.gz
Wind_Speed
56 59 60 62 64 66 68 70 72 74 76 78 80 82 83 85 87 88 88 88 86 85 84 84 83 83 81 80 78 76 75 74 73 72 71 71 71 70 70 69 68 67
56 59 62 64 66 69 71 74 75 77 78 79 80 81 83 84 84 84 84 83 82 82 82 81 81 79 78 76 75 74 74 73 73 73 73 72 72 71 70 69 68 68
55 57 60 63 65 67 69 71 73 75 76 76 77 78 79 80 80 80 80 79 79 79 79 78 77 76 75 74 74 74 74 73 73 73 73 73 72 71 70 69 69 69
56 58 59 61 63 65 67 69 70 72 73 74 75 76 76 77 77 77 77 77 77 76 76 75 74 74 74 74 74 74 74 74 74 74 73 73 72 72 71 71 71 71
58 60 61 62 63 65 66 68 69 70 71 71 72 72 72 73 73 73 74 74 74 74 73 73 74 74 74 74 74 74 74 75 74 74 74 73 73 73 72 72 72 72
60 61 62 63 64 65 66 67 67 68 68 68 69 69 70 71 72 72 73 73 73 73 73 73 73 73 74 74 75 75 75 75 75 74 74 74 74 73 73 73 73 73
61 62 63 63 64 65 65 65 66 66 66 67 68 69 71 71 72 72 73 73 73 73 73 73 73 74 75 76 76 76 76 75 74 74 74 74 74 74 74 74 75 75
61 62 62 63 63 63 64 64 65 66 67 68 69 70 71 71 72 72 72 72 72 72 73 74 75 76 76 76 76 75 75 74 74 74 74 75 75 76 76 76 76 76
60 61 60 61 61 61 62 63 65 66 67 68 69 70 70 70 70 70 71 71 72 73 74 75 76 76 76 75 75 74 74 75 75 75 76 76 76 77 77 77 76 75
59 59 59 59 60 61 62 64 65 66 67 68 69 69 69 69 69 70 71 72 73 74 75 75 75 75 74 74 74 74 75 76 77 77 77 77 77 77 77 76 75 74
58 58 58 59 60 61 63 64 65 66 66 67 67 68 68 68 69 71 72 73 74 74 74 74 74 74 74 74 75 76 77 78 78 78 78 77 77 76 76 75 74 73
57 57 58 59 60 62 63 64 64 65 65 66 67 67 68 69 71 72 73 74 74 73 73 73 73 73 74 75 76 77 78 79 79 78 78 78 76 75 74 74 74 73
57 57 58 59 60 61 62 63 64 65 65 66 67 68 69 70 72 72 73 73 73 73 73 73 73 74 75 76 77 78 79 79 79 79 78 77 75 74 74 74 74 73
56 57 58 59 60 61 62 63 64 65 65 66 67 68 70 71 72 72 72 72 72 72 73 73 74 74 75 77 78 79 79 79 79 79 77 76 74 74 74 73 72 72
57 58 58 59 60 61 62 63 64 65 66 67 68 69 69 70 71 71 71 71 72 72 73 73 74 75 76 78 79 79 80 80 80 78 76 75 74 74 73 72 72 71
57 58 59 60 61 62 63 64 65 66 67 67 68 68 69 69 70 70 70 71 71 72 72 73 74 75 76 77 78 79 80 80 79 77 75 74 74 73 73 72 72 72
58 59 59 60 61 62 64 65 66 67 67 67 68 69 69 69 69 69 70 70 70 71 72 73 74 75 76 77 78 79 80 80 78 76 75 74 74 73 72 73 73 73
59 60 60 61 62 63 65 65 66 67 67 68 68 69 69 68 68 69 69 69 69 70 71 73 73 74 76 77 78 80 80 79 77 75 74 74 73 73 73 73 73 73
60 60 61 62 63 64 65 65 66 67 67 68 68 68 68 68 68 68 68 68 69 70 71 72 73 74 76 77 79 80 80 78 76 74 74 73 73 73 74 74 74 74
60 61 61 62 63 64 65 66 66 67 67 67 67 67 67 67 67 67 67 68 69 70 71 72 73 75 77 78 80 81 79 76 74 74 73 73 74 74 74 74 74 75
60 61 62 62 63 64 65 66 66 66 66 66 66 66 66 66 67 67 67 68 69 70 72 73 74 76 77 79 81 80 77 75 74 73 73 74 74 74 74 74 75 76
61 61 62 63 64 64 65 65 65 64 65 65 65 65 66 66 67 67 68 69 70 71 73 74 75 76 78 80 80 77 75 74 73 73 73 73 73 73 74 75 75 76
61 62 62 62 63 63 63 63 63 64 64 64 65 65 66 66 67 68 69 70 71 72 73 75 76 77 79 80 78 75 73 73 72 72 72 72 72 73 74 74 74 74
60 61 61 61 61 62 62 62 63 64 64 64 65 65 66 67 67 68 69 70 71 72 74 75 76 78 79 78 75 73 72 72 71 72 71 71 71 72 72 73 73 73
60 60 61 61 61 62 62 63 64 64 64 65 66 66 67 67 68 68 70 70 72 73 74 75 77 79 78 76 73 72 71 71 71 71 70 70 71 71 71 71 71 70
60 61 61 61 62 62 63 63 64 64 65 66 66 66 66 67 67 69 70 71 72 73 74 76 78 78 76 73 71 70 70 70 69 69 69 70 70 70 71 71 70 67

ECMWFNIL_250_spd_102.txt.gz
Wind_Speed
45 46 46 47 47 48 48 49 50 52 54 56 58 60 61 62 63 65 66 68 69 70 71 72 73 74 74 75 76 76 76 75 74 74 74 74 74 75 75 75 74 72
47 48 48 49 49 49 50 50 52 53 54 55 57 58 59 61 62 64 65 66 68 69 69 70 71 72 73 73 74 74 73 73 73 73 74 74 75 75 75 74 73 71
48 49 50 51 51 52 52 53 54 55 56 57 58 59 60 61 62 63 64 66 67 68 68 69 70 71 72 72 72 72 72 72 73 74 74 75 75 75 74 73 72 72
51 51 52 53 53 54 55 55 56 57 57 58 59 59 60 61 62 63 64 65 66 67 68 68 69 70 70 71 71 71 71 72 73 75 75 75 74 73 72 72 72 73
54 54 54 54 55 55 56 57 57 58 58 59 59 59 60 61 62 63 64 65 66 67 67 68 69 70 70 70 70 71 72 73 74 75 75 74 73 72 72 73 73 74
55 55 56 56 56 57 58 58 58 58 58 58 58 59 60 60 61 62 63 65 66 67 67 68 69 69 70 70 70 72 73 74 74 74 74 73 72 72 73 74 75 75
57 57 57 58 58 58 58 57 57 57 57 58 58 58 59 60 61 62 64 65 66 67 67 68 68 69 69 70 72 73 74 73 73 73 73 73 73 73 74 75 76 76
58 58 58 58 58 57 57 57 57 57 57 58 58 58 59 60 62 63 64 65 66 67 67 67 68 68 69 71 72 73 73 72 72 72 73 73 73 74 75 76 76 76
58 57 57 57 57 57 57 57 57 57 58 58 58 59 60 61 62 63 64 65 66 66 67 67 68 69 70 72 72 72 72 72 72 72 73 73 74 75 76 76 77 78
56 56 56 56 56 57 56 56 56 57 57 58 59 60 61 62 63 64 64 65 65 66 67 67 69 70 71 72 71 71 71 71 72 72 73 74 74 75 76 77 78 79
57 57 57 57 56 56 55 55 56 57 58 59 60 61 62 62 63 64 64 65 65 66 67 68 69 70 71 71 71 71 71 71 72 72 73 74 75 76 77 78 78 79
59 58 58 57 56 56 56 56 57 58 59 60 61 62 62 63 63 64 64 65 66 67 68 69 70 71 71 71 71 71 71 71 72 72 73 74 76 77 78 78 79 81
60 59 58 58 57 57 57 58 59 60 61 61 62 63 63 63 64 64 65 65 66 67 68 70 70 71 71 71 71 71 71 72 72 72 73 75 76 77 78 79 81 82
60 59 59 59 58 58 58 59 61 61 62 62 63 63 64 64 64 64 65 66 67 68 69 70 70 70 70 70 71 71 71 72 72 73 74 75 76 77 78 80 82 82
59 59 59 59 59 59 60 61 62 62 62 62 63 63 64 64 65 65 66 67 68 69 70 70 70 70 70 70 70 71 72 72 73 74 74 75 77 78 79 82 83 81
60 59 59 59 59 60 61 61 62 62 62 62 63 64 64 65 65 66 67 68 68 69 69 69 69 69 70 70 71 71 72 72 73 74 75 76 77 79 81 83 82 80
59 58 59 59 59 60 60 61 61 61 62 62 63 64 64 65 66 66 67 68 68 68 68 68 69 69 69 70 71 71 72 72 74 75 75 76 78 80 82 82 80 78
58 58 58 59 59 59 60 61 61 61 61 62 63 64 65 66 66 66 66 67 67 67 67 68 68 69 70 70 71 71 72 73 74 75 76 77 79 81 81 80 78 77
57 58 59 59 59 59 60 61 61 61 62 63 64 65 65 65 65 65 65 66 66 67 67 68 69 69 70 70 71 72 72 73 74 75 76 78 80 81 80 78 76 76
58 58 59 59 59 59 60 61 62 62 63 63 64 64 64 64 64 65 65 66 66 67 68 68 69 69 70 70 71 72 72 73 74 76 77 79 80 80 78 76 76 76
58 58 58 59 59 59 60 61 62 62 62 62 62 62 63 64 64 65 66 66 67 67 68 68 69 69 69 70 71 72 72 73 75 76 78 80 79 78 76 75 75 75
58 58 59 59 59 60 60 60 60 61 61 61 61 62 63 64 65 65 66 67 67 67 67 68 68 68 69 70 71 71 72 74 75 77 79 79 77 75 74 74 74 75
58 58 58 58 58 58 58 59 60 60 61 61 62 63 64 64 65 66 66 66 66 66 66 67 67 68 69 70 70 71 73 74 76 77 78 77 74 73 73 73 73 74
56 56 56 57 57 58 58 59 60 60 61 62 62 62 63 64 64 64 65 65 65 65 65 66 67 68 69 70 71 72 73 75 76 77 75 73 72 71 72 72 72 72
55 56 56 57 58 59 59 59 60 60 60 61 61 61 62 63 63 63 64 64 64 64 65 66 67 68 68 70 71 73 74 75 76 74 72 70 70 70 70 70 70 71
55 56 56 57 58 58 58 59 59 59 60 60 61 61 62 63 63 63 63 63 63 64 65 66 66 67 68 70 71 73 74 75 73 71 69 68 68 68 68 69 69 70

ECMWFNIL_250_spd_105.txt.gz
Wind_Speed
46 47 47 47 48 49 50 52 53 54 55 56 56 56 56 56 56 56 57 57 58 58 58 59 60 61 62 63 64 65 65 66 66 66 67 67 68 68 69 70 71 71
47 48 48 49 50 51 53 55 57 57 58 58 57 57 57 57 57 57 58 58 58 58 59 60 61 62 63 64 65 65 66 66 66 67 68 68 68 69 70 71 71 71
48 48 49 50 52 54 55 56 58 58 58 57 57 57 57 58 58 58 58 58 59 59 60 61 62 63 64 65 65 66 66 67 67 68 68 68 69 70 71 71 71 71
48 49 51 52 54 55 56 57 58 58 58 58 58 58 58 58 58 58 59 59 60 61 62 62 63 64 64 65 65 66 67 67 67 67 67 68 69 71 71 71 71 71
50 51 53 54 55 56 57 58 58 59 59 59 59 59 59 59 59 60 61 61 62 62 62 63 63 64 64 65 66 66 67 67 67 67 68 69 70 71 71 71 71 71
52 53 54 56 57 57 58 59 60 60 60 60 60 60 60 61 61 62 62 62 62 62 62 63 63 64 64 65 66 66 66 66 66 67 69 70 71 71 71 71 71 72
56 56 57 58 58 59 59 60 60 61 60 60 61 61 62 62 62 62 62 62 62 62 62 63 63 64 65 65 65 66 66 67 67 69 70 71 71 71 71 72 72 72
58 58 58 58 59 59 60 60 60 60 60 61 62 62 62 62 62 63 62 62 62 62 63 63 64 65 65 65 66 66 67 68 69 70 71 71 71 71 72 72 72 74
57 57 58 58 58 59 59 59 59 60 61 62 62 62 62 62 63 63 63 63 62 63 63 64 65 65 65 65 66 66 68 69 70 71 71 71 71 71 72 72 74 75
57 57 57 58 58 58 59 59 60 61 61 61 62 62 62 62 62 62 63 63 63 64 64 65 65 65 65 66 66 67 69 70 71 71 71 71 71 71 72 73 74 75
56 56 57 57 58 58 59 60 61 61 61 61 61 61 62 62 62 63 63 63 64 64 65 65 65 65 66 66 67 69 70 70 71 71 71 71 71 72 73 74 75 75
56 56 56 57 59 60 61 61 61 60 60 61 61 62 62 62 62 62 63 64 64 64 64 65 65 65 66 68 69 69 70 70 70 71 71 72 72 73 73 74 74 74
56 57 58 59 60 61 61 60 60 60 61 62 62 62 62 61 61 62 63 64 64 64 64 65 66 67 68 68 69 69 69 70 70 71 72 72 73 73 73 73 74 74
57 58 59 60 60 60 60 60 60 61 62 62 61 61 60 60 61 62 63 64 64 64 64 65 67 67 68 68 68 69 69 69 70 71 72 72 72 72 73 73 74 75
58 59 59 59 60 60 60 61 61 61 61 60 59 59 60 60 61 62 63 64 64 64 65 66 67 67 67 67 68 68 69 70 70 71 71 71 71 72 72 73 74 75
58 58 58 59 60 61 61 61 60 59 59 58 58 59 60 61 61 62 63 64 65 65 65 66 66 66 66 67 68 68 69 69 69 69 69 70 71 71 72 73 74 75
58 58 59 59 60 60 59 58 57 57 57 58 59 60 61 61 62 62 63 64 64 64 64 64 65 66 66 67 67 67 68 68 68 68 69 70 70 71 73 74 75 76
57 57 58 58 57 57 56 56 56 57 58 58 59 60 61 61 61 62 62 63 63 64 64 64 65 65 66 66 66 66 67 67 68 68 69 69 70 72 73 74 76 77
55 55 55 55 55 55 55 55 56 57 58 58 59 59 60 60 60 60 61 62 63 64 64 64 64 64 64 64 65 66 67 68 68 68 68 69 70 71 73 74 76 78
53 53 53 53 54 54 54 55 55 56 57 58 58 58 58 59 59 60 61 62 63 63 63 63 63 63 64 64 65 66 67 68 68 68 68 69 70 71 73 75 77 78
51 51 51 52 52 53 54 54 55 55 56 56 56 57 58 59 59 60 60 61 62 62 63 63 63 63 64 65 66 67 68 68 68 68 68 68 70 71 73 75 76 77
49 49 50 51 52 52 53 53 53 53 54 55 55 56 57 58 59 59 60 61 62 62 63 63 63 64 64 65 66 67 68 68 68 67 68 68 70 71 73 75 75 75
48 49 49 50 51 51 51 51 51 52 53 54 54 56 57 58 59 60 60 61 62 62 63 63 63 64 65 66 67 68 68 68 67 67 67 68 70 71 73 73 73 73
48 48 49 49 50 50 50 50 50 51 52 53 55 56 58 58 59 59 60 60 61 62 62 63 64 64 65 66 67 68 68 67 67 67 67 68 70 71 72 72 71 71
47 47 47 48 48 48 48 48 49 51 53 55 56 57 58 59 59 59 60 61 61 62 63 64 64 65 66 67 67 68 67 66 66 66 67 68 70 70 71 70 70 70
46 46 46 46 46 47 47 49 51 52 54 56 57 58 58 59 60 60 61 62 63 64 65 65 65 65 66 67 68 67 66 66 66 66 67 68 69 70 69 69 69 69

ECMWFNIL_250_spd_108.txt.gz
Wind_Speed
40 41 42 43 44 45 45 46 46 45 45 46 48 48 49 51 52 53 55 56 57 57 57 57 56 57 59 60 61 61 61 62 62 63 63 63 64 64 65 65 65 65
38 40 41 42 43 44 45 45 45 45 46 47 48 49 50 52 54 55 57 58 58 57 58 58 59 60 61 61 61 62 62 63 63 63 63 63 64 64 65 65 65 66
39 39 40 41 42 43 43 44 44 45 46 47 48 50 52 54 56 58 59 59 59 59 59 60 61 61 61 62 62 63 63 63 63 63 63 64 64 64 65 65 66 67
39 40 41 42 43 43 44 45 46 47 48 49 51 53 55 57 58 59 60 59 59 60 60 61 62 62 62 62 63 63 63 63 63 63 64 64 64 65 65 66 68 69
43 44 45 46 47 47 48 48 49 50 51 52 54 56 58 59 59 59 59 59 60 61 62 62 62 62 62 63 64 64 63 63 63 64 64 65 65 65 66 68 69 69
47 48 49 50 51 51 51 51 52 52 53 55 57 58 59 59 59 59 59 60 61 62 63 63 63 63 63 64 63 63 63 63 63 64 65 65 66 67 67 68 68 69
49 50 52 52 53 53 53 54 54 55 56 57 58 58 58 59 59 60 61 62 62 63 63 63 63 64 64 63 62 62 62 63 64 64 65 66 66 67 67 68 68 69
49 51 52 53 53 54 54 55 55 56 57 57 57 58 58 59 60 61 62 62 62 62 63 63 64 64 63 62 62 62 62 63 64 65 65 66 66 67 67 68 69 70
49 50 51 52 53 54 54 54 55 55 55 56 57 58 59 60 61 61 61 61 61 62 62 63 63 62 61 61 61 62 63 63 64 65 65 65 66 66 67 68 69 70
50 51 52 52 52 52 52 53 53 54 55 56 57 59 60 60 60 60 60 60 61 61 62 61 61 60 60 61 62 63 63 63 64 64 64 65 66 67 68 68 69 69
50 51 52 52 51 51 51 52 53 54 55 57 58 58 59 59 59 59 59 60 60 60 60 60 60 60 60 61 63 63 63 63 63 63 64 65 66 67 67 68 69 69
51 51 52 52 52 52 53 53 54 55 56 57 57 57 58 58 58 58 59 59 59 59 58 59 60 60 61 62 62 62 62 62 63 64 65 65 66 67 67 68 69 70
51 52 52 53 53 54 54 54 55 55 56 56 56 56 57 57 58 58 58 57 57 58 58 59 60 61 61 60 61 61 62 63 63 64 65 65 66 67 68 68 69 70
52 53 53 54 54 54 54 54 54 54 54 54 55 55 56 56 57 57 56 56 57 58 58 59 60 60 60 60 60 61 62 63 63 64 65 66 67 67 68 68 69 70
53 54 54 54 54 54 53 53 53 53 53 54 55 55 55 55 55 56 56 56 57 57 58 58 59 59 60 60 60 61 62 63 64 65 65 66 66 67 67 68 69 70
53 53 53 53 53 53 53 52 52 53 53 54 54 54 54 55 55 55 55 55 56 56 57 57 58 59 59 60 60 61 62 63 64 64 64 65 66 67 68 69 70 71
51 51 51 51 52 52 52 51 51 52 52 53 53 53 54 54 54 54 54 54 54 55 55 56 57 58 59 60 61 62 62 62 63 63 64 65 67 67 68 69 70 71
49 49 50 50 50 50 50 50 49 50 51 52 52 52 53 53 53 53 52 53 53 54 55 56 57 58 60 61 62 62 62 62 63 64 65 66 67 68 69 70 71 72
48 48 48 48 48 49 49 48 49 49 50 51 51 51 51 51 51 51 51 52 52 53 54 56 57 59 60 61 62 62 62 63 64 65 66 67 68 69 70 71 71 71
46 47 47 47 48 48 49 48 48 49 49 50 50 50 50 50 50 50 50 51 52 53 55 56 58 59 61 61 62 62 62 63 64 66 67 68 69 70 71 72 71 71
45 46 47 47 48 48 48 48 48 48 49 49 49 48 48 48 49 49 50 50 52 54 56 57 59 60 61 62 62 62 63 63 65 66 68 69 70 71 71 71 71 70
44 46 46 47 47 47 47 47 47 48 48 48 47 47 47 48 48 49 49 51 53 55 57 58 60 61 62 63 63 63 63 64 65 67 69 70 71 71 71 71 70 69
44 45 46 47 47 47 47 47 47 47 47 46 46 46 47 47 48 49 50 52 54 56 58 59 60 62 63 64 64 64 64 65 66 68 70 71 71 71 71 70 69 68
44 45 46 46 46 46 46 46 45 45 46 46 45 46 47 47 48 50 52 54 55 57 59 60 61 63 64 65 65 66 66 66 67 69 70 71 71 71 70 69 68 67
45 45 45 45 45 45 44 44 44 45 45 46 46 46 47 48 50 52 53 55 57 58 60 61 63 65 66 67 67 67 67 68 69 70 71 71 71 70 69 68 67 67
44 44 44 43 43 43 43 44 44 45 45 46 46 47 48 50 52 53 55 56 58 60 62 63 65 66 67 68 69 69 69 70 70 71 71 71 71 70 68 67 66 67

ECMWFNIL_250_spd_111.txt.gz
Wind_Speed
45 45 46 44 43 41 39 39 38 39 40 41 42 42 42 43 43 44 45 46 47 49 50 52 53 54 55 57 58 59 60 61 61 62 62 62 62 62 62 61 62 62
44 43 42 40 39 39 38 38 38 39 40 40 41 41 42 43 44 46 47 49 50 51 52 53 54 56 57 58 59 60 60 61 61 61 61 61 61 61 61 61 62 63
41 40 39 39 39 39 39 39 39 39 40 41 42 44 45 47 48 49 50 51 52 53 54 55 56 57 58 59 60 60 60 60 60 60 61 60 60 60 60 61 63 64
39 40 40 41 41 42 42 43 43 43 44 46 47 48 50 50 51 52 52 53 54 55 55 57 57 58 59 59 59 59 59 59 60 60 59 59 59 60 61 62 63 64
40 41 42 44 45 45 46 47 47 48 49 50 50 51 51 52 52 53 53 54 55 55 56 57 57 58 58 58 59 59 59 59 59 58 58 58 59 61 62 62 63 63
40 40 42 44 46 47 48 48 49 49 50 50 51 51 51 52 52 53 53 54 55 56 56 56 57 57 58 58 58 58 58 58 57 57 58 59 60 61 62 62 63 63
40 40 41 43 44 46 47 48 48 49 49 50 50 51 51 51 52 53 54 55 55 55 56 56 57 57 58 57 58 57 57 56 56 57 58 59 60 61 61 62 62 63
40 41 41 42 43 44 45 46 47 48 49 50 50 51 51 52 53 54 55 55 55 56 56 57 57 57 57 57 56 56 56 56 56 57 58 59 60 60 61 61 62 63
42 42 43 43 44 45 46 47 48 49 50 50 51 51 52 53 54 55 56 56 56 56 57 57 56 56 56 55 55 55 55 56 57 57 58 59 59 60 60 61 62 62
44 44 45 45 46 46 47 48 49 50 50 51 51 52 52 53 55 55 56 56 57 57 56 56 55 55 54 54 54 55 56 56 56 57 58 58 59 59 60 61 62 63
46 46 47 47 48 48 49 49 50 50 51 51 52 52 53 54 55 56 56 56 56 56 55 54 54 53 53 53 54 55 55 56 56 56 56 57 58 59 60 61 62 63
48 49 49 50 50 50 50 50 50 51 52 52 53 53 53 54 55 55 56 55 55 55 54 53 52 52 52 53 54 54 55 55 55 55 56 57 58 60 61 62 63 64
50 51 51 51 51 51 51 51 51 52 53 53 53 53 53 54 54 55 54 54 53 53 52 51 50 51 51 52 53 54 54 54 54 54 56 57 59 60 62 63 63 64
50 51 51 51 50 50 50 50 51 52 52 52 53 53 53 53 53 53 52 51 51 50 49 49 49 50 50 51 52 53 53 53 54 55 57 58 60 61 62 63 64 65
49 49 49 49 49 48 49 49 50 50 51 51 52 52 51 52 51 50 49 49 49 49 48 48 48 49 50 51 51 52 52 53 55 56 57 59 60 61 62 63 64 65
47 47 47 47 47 47 47 48 48 49 50 50 50 50 50 50 49 49 48 48 48 47 47 48 48 49 50 50 50 51 53 54 56 57 58 60 61 62 63 64 65 67
45 45 46 46 46 46 46 47 47 48 49 49 49 49 49 48 48 48 47 47 46 47 47 48 48 49 49 49 51 52 54 55 57 58 59 61 62 64 65 66 67 68
44 45 45 45 45 45 46 46 46 47 48 48 48 48 48 47 47 46 46 46 46 47 47 47 48 48 49 50 51 54 55 57 58 59 60 62 64 65 67 68 69 70
43 44 45 45 45 45 45 45 45 46 47 47 47 47 47 46 46 45 45 46 46 46 47 47 48 48 49 51 53 55 56 58 59 60 62 64 66 67 69 70 71 72
43 43 44 44 45 45 45 45 45 46 47 47 47 46 46 45 45 45 45 45 45 46 47 48 48 49 50 52 54 56 58 59 61 62 64 66 68 69 71 72 73 74
43 44 45 45 45 45 45 45 45 46 46 46 46 46 45 45 44 44 44 45 45 47 47 48 49 50 52 53 55 57 59 61 63 65 66 67 69 71 72 73 74 75
44 44 45 46 46 45 45 45 45 46 46 45 45 45 44 44 44 44 44 45 46 48 48 49 50 51 53 55 57 59 61 63 65 67 68 69 71 72 74 75 76 77
45 45 45 46 45 45 46 46 45 45 45 45 45 44 44 43 43 44 45 47 48 48 49 50 51 52 54 56 58 61 63 65 67 68 69 70 72 73 75 76 77 78
45 45 45 45 45 45 45 45 44 43 43 44 44 43 43 43 44 46 47 48 48 48 49 51 52 54 55 58 60 62 64 67 68 69 70 71 73 74 76 77 78 79
44 44 44 44 44 43 43 43 42 42 42 43 43 43 44 45 46 47 48 48 48 48 50 52 54 56 57 59 61 64 66 67 69 70 71 72 74 75 76 78 78 79
43 43 43 42 42 42 41 41 42 42 43 44 44 44 45 46 47 47 47 47 48 49 52 54 56 59 60 61 63 65 67 68 69 70 72 73 75 76 77 78 79 80

ECMWFNIL_250_spd_114.txt.gz
Wind_Speed
41 42 42 43 43 43 44 44 45 46 47 47 45 44 43 43 43 44 45 44 45 46 48 51 53 55 56 57 57 58 58 58 58 58 59 60 61 62 63 63 63 63
41 41 42 43 44 44 45 45 45 47 47 45 43 42 42 43 43 44 45 46 48 51 54 55 56 57 57 57 57 57 57 57 58 59 61 62 62 63 63 63 62 62
38 40 41 42 42 44 45 45 46 46 45 44 43 43 44 45 46 48 50 52 54 55 56 57 57 57 57 57 56 56 57 58 59 61 62 62 62 62 62 61 61 61
38 39 40 41 43 44 45 45 45 45 44 44 44 46 47 49 50 52 54 55 56 56 56 57 57 56 56 56 56 57 58 59 61 62 62 62 62 61 60 60 60 60
42 42 41 42 43 44 44 45 44 44 43 43 45 47 48 50 51 53 54 55 55 55 55 56 56 56 56 56 57 58 60 61 61 61 61 61 60 59 58 58 59 59
43 43 43 44 45 46 46 45 44 43 43 43 44 46 47 49 50 52 53 54 54 55 55 56 56 56 57 57 58 59 60 61 60 60 60 59 58 57 57 57 57 57
46 46 47 48 48 47 47 45 44 44 43 43 44 45 47 48 49 51 53 54 55 55 56 56 56 57 57 58 59 60 60 59 59 58 58 57 56 56 55 55 55 55
51 51 51 50 48 48 47 46 45 45 44 45 46 47 48 49 51 52 54 55 56 56 56 56 57 58 58 59 59 59 58 57 56 56 56 55 55 54 54 54 54 55
51 50 50 49 48 48 48 47 46 46 46 47 48 49 50 51 53 54 55 56 57 57 57 57 58 58 58 58 58 57 56 55 54 55 54 54 53 53 52 52 54 55
49 48 48 48 48 49 49 48 48 48 48 49 50 51 52 53 55 56 56 57 57 57 58 58 58 58 57 56 55 55 54 53 53 54 53 53 52 52 51 52 54 56
47 47 48 48 49 49 49 49 50 50 51 51 52 53 54 55 56 56 57 57 57 57 57 57 56 56 55 54 53 52 52 51 52 53 52 52 52 51 51 52 55 57
46 46 47 47 48 49 50 50 50 51 51 52 53 53 54 55 56 56 56 56 56 56 55 55 54 53 53 52 51 50 50 51 52 52 52 51 51 51 52 54 56 59
43 44 44 45 46 47 48 49 49 50 51 52 52 53 54 55 55 55 55 54 54 54 54 53 52 52 51 50 49 49 49 51 51 51 51 51 51 51 53 55 57 60
41 41 42 43 43 44 45 46 48 49 50 51 52 52 53 53 53 53 53 52 52 52 52 51 51 50 49 49 48 48 49 51 51 51 51 51 51 52 54 56 59 61
40 40 41 41 42 42 44 45 47 48 49 50 51 51 52 52 52 52 51 51 51 51 50 50 49 49 48 48 48 49 50 50 50 51 51 51 52 54 56 58 60 63
40 41 41 41 42 43 44 45 46 48 49 49 50 50 50 51 51 51 50 50 50 49 49 48 48 47 47 47 48 49 50 50 51 52 52 52 53 55 57 59 61 64
41 41 41 42 42 43 44 45 46 47 48 49 49 49 50 50 50 50 50 49 49 48 47 47 46 46 47 48 49 49 50 51 52 52 52 53 55 57 59 61 63 66
41 41 42 42 42 43 44 45 45 46 47 48 48 48 49 49 49 49 49 48 47 46 46 46 46 46 47 48 49 50 51 52 52 52 52 54 56 58 60 62 64 67
41 41 41 42 42 43 44 44 45 46 47 48 48 48 48 49 49 48 47 46 45 45 45 45 46 47 48 48 50 51 52 52 52 52 53 56 58 60 62 64 66 68
41 41 41 42 42 43 44 45 46 46 47 47 48 48 48 48 48 47 46 45 44 45 45 46 46 47 48 49 51 52 52 52 52 53 55 57 60 62 64 66 68 70
41 41 41 42 43 44 45 45 46 46 46 46 47 47 47 47 46 45 44 44 44 45 46 46 47 47 48 50 52 53 53 52 52 54 56 59 62 64 65 67 69 71
41 41 42 43 44 45 45 45 45 45 45 46 46 46 46 45 45 44 44 44 45 45 46 47 47 48 49 51 52 52 52 53 54 56 59 61 63 64 66 68 71 73
41 42 43 44 44 45 45 45 45 44 45 45 45 45 44 44 45 45 45 45 46 47 47 48 49 49 50 51 51 52 53 54 57 60 62 63 65 66 68 70 72 74
42 43 44 44 45 44 44 44 44 44 44 45 45 45 44 45 45 46 46 47 47 48 48 49 49 50 50 50 51 52 54 56 59 62 64 66 68 69 71 73 75 76
43 43 44 44 45 44 44 44 43 44 44 45 45 45 46 46 46 47 47 48 48 49 49 49 50 50 50 50 51 53 55 57 59 62 64 67 70 72 74 76 77 77
43 44 44 44 44 44 44 43 44 44 45 45 46 46 46 47 47 47 48 48 49 49 49 49 49 50 50 52 53 55 57 59 60 62 64 67 70 72 74 76 77 78

ECMWFNIL_250_spd_117.txt.gz
Wind_Speed
57 59 62 63 62 61 59 55 52 50 49 48 47 46 47 48 48 49 50 50 50 49 48 49 50 51 53 54 56 57 57 58 59 59 60 61 62 62 63 64 65 66
60 61 61 60 60 58 54 50 47 47 47 48 48 48 49 49 49 49 49 49 50 50 50 50 51 52 54 55 55 56 56 58 59 60 61 62 63 63 64 65 66 66
60 60 59 57 56 54 50 47 44 44 45 47 47 48 49 49 49 49 49 50 50 50 50 50 51 52 53 53 54 56 57 58 60 61 62 63 64 64 65 65 66 66
58 57 55 53 51 51 49 47 46 45 46 46 47 49 49 49 49 50 51 51 51 50 50 51 51 52 52 54 55 57 59 60 61 62 63 64 64 64 65 65 65 65
55 54 52 51 49 49 49 50 51 50 50 50 50 51 51 51 52 53 53 52 51 51 51 52 52 53 54 56 58 59 61 62 63 63 64 64 64 64 64 64 63 63
52 51 50 49 48 48 48 49 50 50 51 52 52 52 53 54 55 54 53 53 53 53 53 53 54 55 57 58 60 61 62 63 63 64 64 63 63 62 62 62 62 61
50 50 50 49 48 49 49 49 49 50 51 52 53 54 55 56 56 55 54 54 54 54 54 55 56 57 59 60 61 62 63 63 63 63 62 61 60 60 60 60 60 59
49 50 50 50 50 51 52 52 53 53 53 53 53 55 55 56 55 55 54 54 55 55 56 57 58 59 60 61 62 62 62 62 61 60 59 59 58 58 59 59 58 58
49 50 50 50 51 52 53 53 54 54 54 54 54 54 54 54 54 54 55 55 56 57 57 58 59 60 61 61 61 61 60 59 58 57 57 57 57 57 58 58 57 56
49 49 50 50 51 52 52 52 53 53 53 53 53 52 52 53 53 54 54 55 56 57 57 58 59 59 60 59 59 58 57 56 56 55 55 55 56 56 57 56 56 55
49 49 49 49 49 50 50 49 50 50 50 50 50 50 50 51 52 52 53 54 55 56 57 57 57 58 57 57 56 55 55 54 54 54 54 54 55 56 56 56 55 55
48 47 47 47 47 47 46 46 46 46 47 47 47 47 48 49 50 51 51 53 54 54 55 55 56 55 55 54 54 53 53 53 53 53 53 54 54 55 55 55 54 55
46 46 45 45 44 44 44 43 43 44 44 44 45 46 46 47 48 50 51 52 52 53 53 53 53 53 53 53 52 52 52 52 52 52 53 53 54 54 54 54 55 55
45 45 44 43 42 42 42 42 42 42 43 44 45 45 46 47 48 49 50 50 51 51 52 52 52 52 52 51 51 51 51 51 52 52 53 53 54 53 53 54 55 55
44 43 42 42 41 41 41 41 41 42 43 44 45 45 46 47 47 48 49 49 49 50 50 51 51 51 50 50 50 50 51 51 52 52 52 53 53 53 54 54 54 54
44 43 42 42 41 41 41 41 42 43 44 44 45 45 45 46 46 47 47 48 49 49 49 50 49 49 49 49 49 50 50 51 51 52 52 53 53 53 54 54 54 54
44 43 42 41 41 41 42 42 43 43 44 44 44 45 45 45 45 46 47 47 48 48 48 48 48 48 49 49 49 50 50 51 51 52 52 53 53 54 54 54 54 54
43 42 42 42 42 42 42 42 43 43 44 44 44 45 45 45 45 46 47 47 47 47 47 47 48 48 49 49 49 50 50 50 51 52 53 53 54 54 54 55 56 57
43 43 42 42 42 42 42 43 43 43 44 44 45 44 44 44 45 46 47 47 47 47 47 47 48 49 49 49 49 49 50 51 52 52 53 53 53 53 54 55 57 60
44 43 43 42 42 42 43 43 44 44 45 44 44 44 45 45 45 46 47 47 46 46 47 48 49 49 49 50 49 50 50 51 52 53 53 53 53 53 54 56 59 62
44 44 43 43 43 43 44 44 44 45 45 44 45 45 45 45 46 47 47 46 46 47 47 48 49 49 49 50 50 50 51 51 52 52 52 53 53 53 55 57 60 63
45 45 44 44 43 44 44 44 45 45 45 45 45 43 43 44 46 46 46 46 46 47 48 49 49 49 50 50 50 51 51 51 52 52 53 53 53 54 56 59 61 64
46 46 45 45 44 44 45 45 45 45 45 45 43 41 41 43 44 45 46 47 47 48 48 49 49 49 50 51 51 51 51 51 52 53 53 53 54 56 58 61 63 65
47 47 46 45 45 45 45 45 45 46 46 45 44 44 44 44 44 46 47 48 48 48 49 49 50 50 51 51 51 51 51 52 52 53 53 54 56 58 60 62 65 66
48 47 47 46 46 46 46 46 46 46 46 46 46 46 47 46 46 46 46 47 48 49 49 50 50 50 51 51 52 52 52 52 53 53 54 56 58 60 62 64 66 68
48 48 47 47 47 47 47 47 47 47 47 47 47 47 48 47 47 46 47 48 49 49 50 50 51 51 52 52 52 53 53 53 54 55 56 57 60 62 64 66 68 69

ECMWFNIL_250_spd_120.txt.gz
Wind_Speed
52 53 54 54 54 56 57 57 56 57 57 57 58 59 59 58 55 52 49 47 46 47 48 49 51 52 53 54 55 57 58 59 59 58 58 59 59 60 61 63 64 65
54 54 55 55 55 56 57 57 57 58 58 58 58 58 57 55 53 51 50 50 50 51 51 52 53 54 56 57 58 60 60 60 59 59 59 60 60 62 63 64 65 65
55 55 55 55 56 57 58 58 58 58 58 58 57 56 54 53 52 51 52 53 54 55 54 55 56 57 58 59 60 61 60 59 59 60 60 61 61 62 63 64 64 64
55 56 56 56 57 58 58 58 58 58 57 56 54 53 53 52 51 51 51 52 53 53 54 55 57 58 59 60 60 60 59 59 60 60 60 61 61 62 62 62 62 61
56 57 57 58 58 58 58 58 57 56 55 53 52 52 52 52 52 52 52 53 53 54 55 56 57 58 58 58 58 58 58 59 59 59 59 60 60 60 60 60 59 58
57 57 58 57 57 57 56 55 54 53 52 52 52 52 52 53 53 54 54 55 56 56 57 57 57 57 56 56 57 57 57 58 58 57 58 58 58 58 58 57 57 57
56 56 56 55 55 55 53 52 51 51 51 51 52 52 53 53 53 54 54 55 55 55 55 55 55 55 55 55 55 56 56 55 55 56 56 56 56 56 56 57 57 57
53 53 53 52 52 51 51 50 50 50 50 51 52 52 52 52 52 53 52 53 53 53 52 52 52 53 53 54 54 54 53 53 54 54 54 54 54 55 56 56 56 56
50 50 50 49 49 49 49 49 49 50 50 51 51 51 51 51 50 50 50 50 50 50 50 50 51 51 52 52 52 52 52 52 52 52 52 53 53 54 55 55 55 55
48 48 47 47 47 48 48 49 49 50 50 50 50 50 49 48 48 47 47 48 48 48 49 49 50 50 50 50 50 50 50 50 51 51 51 52 53 54 54 54 54 54
46 46 46 46 47 48 48 49 49 49 49 49 48 47 47 46 46 46 46 47 47 47 48 48 48 49 49 48 48 48 49 49 50 50 51 52 53 53 53 53 53 53
46 45 46 46 47 48 48 49 49 49 48 47 47 46 46 45 46 46 46 46 46 46 47 47 47 47 47 47 47 47 48 49 49 50 51 52 52 52 52 53 53 53
46 45 46 47 47 48 48 48 48 48 47 47 46 45 45 45 46 46 46 46 45 45 45 46 45 45 45 46 46 47 48 49 49 50 50 51 51 52 52 53 53 53
46 46 47 48 47 48 48 48 48 47 46 46 46 46 46 46 46 45 45 45 44 44 45 44 44 45 45 45 46 47 47 48 49 49 50 51 51 52 52 53 53 53
47 47 48 48 47 47 47 47 47 47 46 46 46 46 46 46 46 45 45 44 44 44 44 43 44 44 44 45 45 46 47 48 48 49 50 50 51 52 52 53 53 53
47 47 48 47 47 47 47 46 47 47 46 46 47 46 46 46 45 44 44 44 43 43 43 43 44 44 44 44 45 46 47 47 48 49 50 50 51 52 53 53 53 53
47 48 48 47 47 46 46 46 47 47 47 47 47 46 46 45 45 44 44 43 43 42 43 44 43 43 43 44 45 46 47 48 48 49 50 51 52 52 53 53 53 53
48 48 48 47 47 46 46 47 48 48 47 46 46 46 46 45 44 44 43 43 43 43 44 43 42 43 44 45 45 47 48 48 49 49 50 51 52 52 53 53 53 54
48 48 48 48 47 47 46 47 48 48 46 46 46 46 45 45 44 44 43 43 43 44 43 42 43 44 46 45 46 48 48 48 49 50 51 52 52 53 53 54 54 55
49 49 49 49 48 48 47 46 48 48 47 46 46 46 45 45 44 44 43 42 43 43 43 44 45 46 47 47 47 47 47 49 50 50 51 52 52 53 54 55 56 57
50 49 49 49 48 48 47 47 48 48 47 47 46 46 45 45 44 44 43 42 43 43 44 46 48 48 48 47 47 47 48 50 50 51 52 53 53 54 55 56 57 58
49 49 49 49 49 49 47 47 48 48 47 46 46 46 45 45 44 44 43 43 44 44 45 46 48 48 48 47 47 48 49 50 51 52 53 54 54 55 56 57 59 60
49 49 49 49 49 49 47 46 47 47 46 46 46 46 45 45 45 44 44 44 44 45 45 44 44 48 50 50 50 50 50 51 52 53 54 55 55 56 57 58 60 61
48 49 49 48 48 47 46 45 45 46 46 46 46 46 45 45 45 45 45 44 43 44 45 45 45 49 51 51 51 51 52 52 53 53 54 55 56 57 58 59 61 62
48 48 47 47 46 46 45 45 45 46 46 46 46 46 45 45 44 44 45 44 42 44 47 48 49 51 51 51 51 52 53 53 53 54 55 55 56 57 59 60 62 63
47 46 45 44 44 45 45 45 45 46 46 46 46 46 46 45 44 44 45 45 45 46 48 50 51 51 51 51 51 52 53 53 53 54 55 56 57 58 59 61 62 63

ECMWFNIL_250_spd_123.txt.gz
Wind_Speed
48 47 47 47 48 49 51 52 52 53 54 54 55 56 56 57 57 58 57 57 55 53 51 50 50 50 50 51 52 53 53 54 56 57 58 58 58 58 57 57 57 57
47 47 48 49 49 50 52 52 53 54 54 55 56 56 56 57 57 57 56 54 52 50 49 49 49 50 51 52 53 54 55 56 56 56 56 56 56 55 55 55 55 56
48 49 50 50 50 51 52 53 54 54 55 55 56 57 57 56 56 54 52 50 48 48 48 49 50 51 52 53 53 54 54 54 54 54 54 54 53 53 53 54 54 54
50 50 51 51 51 51 53 54 55 55 55 56 56 56 55 54 52 50 49 47 47 47 48 50 51 51 52 52 52 52 52 52 52 52 51 51 51 52 52 53 53 53
52 52 52 52 52 53 54 55 56 56 55 55 54 54 52 50 49 47 46 46 46 47 49 50 50 50 50 50 50 50 50 50 50 50 50 50 50 51 51 51 52 52
53 53 53 54 54 55 56 56 56 55 54 52 51 50 49 47 46 45 45 45 46 47 48 48 48 48 48 48 48 49 48 48 48 48 49 49 50 50 50 50 50 50
52 53 54 54 54 55 56 55 54 52 51 49 48 47 46 44 44 44 45 45 46 47 47 47 47 47 47 47 47 47 47 47 47 48 48 48 48 48 48 48 48 48
52 52 52 53 53 53 53 52 51 49 48 46 45 45 44 43 44 44 45 45 46 46 46 46 46 46 46 46 46 46 47 46 47 47 47 47 47 47 47 46 46 47
50 50 50 50 49 50 50 49 48 46 45 45 44 43 43 43 44 44 45 45 45 45 45 46 46 46 46 46 46 46 46 46 46 46 46 46 46 45 45 45 46 47
48 48 48 47 47 47 47 46 45 44 44 44 44 43 43 43 44 44 44 44 44 45 45 45 46 46 45 45 45 45 45 45 45 45 45 45 44 44 44 45 46 47
46 46 45 45 45 45 45 45 44 44 43 43 44 44 44 44 44 44 44 44 44 45 45 45 45 46 45 45 44 44 45 45 45 45 44 44 43 43 44 45 46 48
45 44 44 44 44 44 44 44 44 44 43 44 44 44 44 44 43 43 44 44 44 45 45 45 46 45 45 44 44 44 44 45 45 44 43 42 42 43 44 45 46 47
44 44 44 44 44 44 44 44 44 44 44 44 44 44 44 44 44 44 44 44 45 45 45 45 45 45 44 44 44 44 44 45 44 42 42 42 43 44 45 45 46 48
44 44 44 44 44 44 45 45 45 45 44 44 44 44 44 44 44 44 45 45 45 45 45 45 45 45 44 44 44 44 44 44 42 42 43 43 43 44 45 45 47 48
44 45 45 44 44 44 45 45 45 45 44 44 44 44 44 44 44 45 45 45 45 45 45 45 45 44 44 44 44 44 44 43 41 42 44 44 44 44 45 46 47 48
44 45 44 44 44 44 45 46 45 45 44 45 45 45 45 45 45 45 46 46 46 45 45 45 45 44 44 44 44 43 43 42 42 44 44 43 43 45 45 46 48 49
44 44 44 44 44 44 45 46 46 46 45 45 46 45 45 46 46 46 47 47 46 45 45 45 44 44 45 44 43 43 43 43 44 44 42 42 44 46 46 47 48 50
44 44 44 44 43 44 45 46 46 46 46 46 46 46 46 47 47 47 47 47 46 45 45 44 44 44 45 44 44 44 44 43 44 43 42 43 46 47 47 48 49 50
45 44 44 43 43 44 45 46 47 47 47 48 47 47 47 48 48 47 47 47 46 45 44 43 43 44 45 45 46 46 45 45 45 43 43 45 46 47 48 48 49 50
44 44 44 43 43 44 45 46 47 48 49 48 48 48 48 48 48 47 47 46 45 45 44 42 42 43 44 46 47 47 46 47 46 44 45 46 47 48 49 49 50 51
44 44 44 43 43 43 45 46 47 49 49 48 48 48 48 48 48 47 46 45 45 45 43 42 42 43 44 46 47 46 46 47 46 45 47 48 48 50 51 51 52 53
43 44 43 43 43 43 44 46 47 48 49 48 48 48 48 47 47 45 45 44 44 45 44 43 44 45 46 46 45 45 45 46 45 47 50 50 50 51 52 52 53 54
43 43 43 43 43 43 44 45 47 48 49 48 47 47 47 45 44 44 44 44 44 44 44 44 45 46 46 46 45 45 47 48 48 50 52 52 52 53 53 53 54 56
42 42 42 41 40 40 40 42 45 47 48 48 47 46 45 43 43 44 44 43 43 43 43 44 45 46 47 48 47 47 48 49 50 51 52 52 53 53 54 54 55 57
42 40 38 37 36 36 38 41 45 48 49 47 46 45 44 43 44 44 44 43 43 42 43 45 47 48 48 49 49 48 48 48 49 51 52 53 53 53 54 55 56 57
41 38 38 38 37 38 41 45 48 49 47 44 44 44 44 44 44 44 43 43 44 44 45 46 48 48 49 49 49 49 48 48 49 51 52 53 53 54 54 56 57 58

ECMWFNIL_250_spd_126.txt.gz
Wind_Speed
50 50 50 50 49 47 47 48 49 49 49 50 50 50 51 52 53 53 54 55 56 56 57 57 56 54 51 49 48 47 47 47 48 48 48 48 49 49 49 49 49 50
51 51 50 49 49 49 50 51 50 50 50 50 51 51 52 53 53 54 55 56 56 56 56 54 52 50 48 47 46 46 46 47 46 47 47 47 47 48 48 48 49 49
51 51 51 51 51 52 52 52 51 51 51 51 52 53 53 54 54 55 56 56 56 54 53 51 49 47 46 45 45 45 45 45 45 46 46 46 47 47 48 48 49 49
51 51 52 52 53 53 53 52 52 52 52 53 54 54 54 55 55 55 55 54 53 51 50 48 46 45 45 45 45 44 44 44 44 45 46 46 47 47 47 48 48 49
50 51 51 51 51 52 53 53 53 53 53 54 55 54 54 55 54 53 52 51 50 48 47 45 44 44 44 44 44 43 43 43 44 45 46 46 46 47 47 48 48 48
50 50 50 49 49 50 51 52 52 52 53 54 53 53 53 52 51 50 49 48 47 45 44 44 44 44 44 44 43 43 43 43 44 45 46 46 46 46 47 47 47 47
49 49 50 50 50 51 52 52 52 53 53 53 52 51 50 49 48 47 46 45 44 44 43 44 44 44 44 43 42 42 43 43 44 45 45 45 46 46 47 47 47 46
49 49 49 50 51 53 54 54 54 53 52 51 49 48 47 46 46 45 44 43 43 43 43 44 44 43 43 43 42 42 43 44 45 45 45 45 46 46 46 46 46 45
49 49 49 50 51 52 53 53 52 50 49 47 46 45 45 44 44 44 43 43 43 43 43 44 43 43 42 42 42 43 43 44 45 45 45 45 46 46 46 46 45 44
48 48 49 50 50 50 50 50 49 47 46 45 44 44 44 43 43 43 43 43 43 44 44 43 43 42 42 42 43 43 44 44 45 45 45 46 46 46 46 46 45 43
47 48 49 49 48 48 48 47 46 45 44 43 43 43 43 43 43 43 43 43 44 44 44 43 43 42 42 43 43 43 44 45 46 46 46 46 47 47 46 46 44 44
44 45 45 45 45 45 45 44 43 43 43 43 43 43 43 43 44 44 44 44 44 44 43 43 43 42 43 43 44 44 45 45 46 47 47 47 47 47 47 46 45 44
38 39 40 41 42 42 42 42 43 43 43 43 43 44 44 44 44 44 44 44 44 43 43 43 43 43 43 44 44 45 45 46 47 47 48 48 48 48 47 46 45 44
36 38 40 40 40 41 42 43 43 44 43 43 43 44 44 44 44 44 44 44 44 43 43 43 43 44 44 44 45 46 46 47 47 47 48 49 49 49 47 46 45 43
39 41 41 41 41 42 43 43 43 43 43 43 43 44 44 45 45 45 44 44 44 44 44 44 44 45 45 45 46 46 46 47 47 48 49 50 50 49 47 46 45 43
41 41 40 40 41 41 41 42 42 43 43 43 43 44 44 44 45 44 45 45 44 44 45 45 45 46 46 46 46 46 46 46 47 48 50 50 50 49 48 46 45 43
40 38 37 37 38 38 39 41 43 44 44 44 44 44 44 45 45 45 45 45 45 45 45 46 46 46 46 47 47 46 46 46 47 49 50 50 51 51 49 46 45 44
39 38 37 37 38 39 40 42 43 44 44 44 44 44 44 45 45 45 45 45 45 45 45 46 46 46 47 47 47 46 45 46 47 48 49 51 52 52 50 47 45 45
40 39 38 38 38 39 41 42 43 44 44 44 45 45 45 44 44 44 44 45 45 45 45 46 45 46 47 47 46 46 45 46 46 47 50 50 50 51 51 49 47 47
39 38 37 37 38 39 40 41 42 43 44 44 44 44 44 44 43 43 43 44 44 45 45 45 45 46 46 46 46 46 46 47 47 48 49 48 48 51 52 50 50 50
38 38 38 38 39 40 40 41 42 43 44 44 44 44 44 44 44 44 44 44 44 44 44 44 44 44 44 46 47 47 47 47 48 48 48 48 49 52 54 54 53 52
40 39 39 39 40 40 39 39 41 43 42 41 42 43 42 42 42 42 43 43 43 43 44 43 43 42 43 46 48 48 48 49 49 49 49 50 51 53 55 56 55 53
41 39 39 39 38 39 40 39 41 42 40 39 40 41 40 40 40 41 43 43 44 44 43 42 41 42 44 47 48 48 48 48 49 50 51 52 53 53 54 54 53 53
39 39 39 39 38 40 42 42 42 42 41 41 42 42 42 43 43 44 45 46 45 44 42 42 42 44 45 47 48 48 47 47 49 52 53 54 53 53 53 52 53 54
39 39 39 37 37 41 43 44 43 43 42 43 44 44 45 45 45 45 44 44 44 44 44 45 46 45 46 47 48 48 48 48 50 52 53 52 52 52 53 54 55 56
39 40 39 37 38 43 46 45 43 42 41 41 43 44 45 45 44 44 44 45 46 47 48 48 48 46 47 49 49 49 50 51 51 51 51 51 52 53 54 55 56 57

ECMWFNIL_250_spd_129.txt.gz
Wind_Speed
53 53 52 51 49 48 47 47 48 49 49 50 51 51 52 52 54 56 56 55 54 54 54 55 56 57 56 56 55 53 51 49 47 47 46 47 47 47 46 46 46 47
54 53 52 51 49 47 46 47 49 50 50 51 51 52 52 54 56 57 56 55 54 54 54 55 56 56 56 54 52 50 48 47 46 46 46 46 46 46 46 46 46 46
55 54 52 51 49 48 48 48 49 50 51 51 52 53 55 56 57 56 54 53 53 53 54 56 56 55 53 51 49 48 47 46 45 45 46 46 46 45 45 46 46 46
55 54 52 51 50 49 49 50 51 51 52 53 54 55 56 56 55 53 53 52 52 54 55 55 54 52 50 49 47 46 45 45 45 46 46 46 45 45 45 46 46 46
54 52 51 49 48 48 49 49 50 51 52 53 54 55 55 55 54 54 54 54 54 55 54 53 51 50 48 47 46 45 45 45 45 46 46 46 45 45 46 46 46 46
52 50 49 48 47 47 48 49 50 51 52 53 54 54 54 54 54 54 54 54 53 53 51 50 49 48 47 46 45 45 45 45 46 46 46 46 45 46 46 46 46 47
50 49 49 48 48 49 50 50 51 52 52 52 53 53 53 53 53 52 52 51 51 50 49 48 47 46 46 45 45 45 45 46 46 46 46 46 46 46 46 46 47 47
50 50 50 50 50 51 52 52 52 52 52 52 52 52 51 51 51 50 49 49 49 48 48 47 47 46 46 46 46 46 46 46 46 46 46 46 46 46 46 47 47 48
50 50 51 50 51 51 52 52 52 52 52 51 50 50 49 49 48 48 47 47 47 47 47 47 46 46 46 46 46 46 46 46 47 47 46 46 46 47 47 47 48 49
47 48 49 49 49 50 50 51 51 50 49 49 47 46 46 46 45 45 46 46 46 47 47 46 46 46 46 46 46 46 46 47 47 47 47 47 47 47 48 48 49 50
45 46 46 47 47 48 48 48 48 47 45 44 43 42 42 43 43 44 44 46 46 46 46 46 46 47 46 46 46 46 47 47 47 47 47 47 47 48 48 49 50 50
43 44 44 44 44 44 44 44 43 42 40 39 39 39 40 41 42 43 44 46 46 46 46 46 46 47 47 47 46 46 47 48 48 48 48 47 48 48 49 50 50 51
40 41 41 40 40 40 40 40 39 38 37 38 39 40 40 41 42 44 44 45 45 45 46 46 46 47 47 47 47 47 47 48 48 48 48 48 48 49 49 50 51 51
35 36 37 37 37 36 36 36 37 38 39 40 40 40 41 42 42 43 43 44 45 45 46 46 47 47 47 47 47 47 48 48 48 48 48 48 49 49 50 50 51 51
33 34 34 34 34 35 36 37 38 39 39 39 38 38 39 39 40 42 43 44 45 45 45 46 47 47 46 46 47 47 48 48 48 48 48 48 49 49 50 50 50 51
33 33 33 34 36 38 39 40 40 38 37 36 36 37 38 39 41 43 43 44 44 45 45 46 46 46 46 46 47 47 47 47 47 47 48 48 48 49 49 50 50 51
32 34 36 37 39 41 41 40 38 36 36 37 38 39 40 41 42 42 43 43 44 45 45 46 46 46 46 47 47 47 47 46 46 46 47 47 47 48 50 51 51 52
34 35 36 37 38 39 39 37 37 37 38 39 39 39 40 41 42 43 43 43 44 45 45 45 45 46 47 47 47 46 45 45 45 45 46 46 47 48 50 52 52 53
33 33 34 35 35 37 38 38 39 39 39 38 38 39 41 42 42 42 42 42 43 44 43 43 43 44 44 44 44 43 44 45 45 44 43 45 47 48 49 51 53 53
33 35 36 36 36 37 38 39 39 38 37 37 38 40 41 40 39 39 39 40 41 41 41 41 42 43 43 43 44 45 46 45 43 42 44 46 47 49 50 52 53 53
34 35 35 34 34 35 37 38 38 37 36 36 37 39 40 39 38 39 41 42 42 42 43 44 45 46 46 46 46 47 47 45 43 45 46 47 47 50 52 54 53 53
33 32 31 31 33 35 36 37 36 35 34 35 37 39 40 39 39 41 43 44 44 45 46 47 48 49 49 49 50 50 48 47 47 48 47 47 48 51 53 54 54 54
31 31 32 33 35 36 36 35 34 33 34 35 36 37 38 39 40 43 45 45 45 45 46 48 50 51 51 52 52 51 50 49 49 50 48 47 48 50 51 52 52 52
33 33 35 36 36 37 36 33 30 31 34 35 34 32 34 39 43 46 48 47 46 46 46 47 48 50 51 52 52 51 50 49 50 50 50 49 49 49 49 49 49 50
34 34 36 37 38 38 36 31 29 34 36 33 30 29 33 39 45 48 48 48 47 46 46 47 48 48 49 50 51 50 50 50 50 50 51 50 49 48 47 47 48 50
35 35 37 39 39 39 36 30 28 34 36 32 30 33 34 38 44 47 48 48 48 48 47 46 46 47 48 50 52 52 51 51 51 51 50 50 49 48 48 48 49 51

ECMWFNIL_250_spd_132.txt.gz
Wind_Speed
53 54 54 54 53 52 51 50 49 49 49 49 49 49 49 49 49 49 49 50 50 51 52 53 54 54 55 55 55 55 55 55 54 52 51 50 49 48 48 48 48 49
54 55 55 54 54 53 51 50 49 49 49 49 50 50 50 50 50 50 50 50 51 52 53 53 54 54 54 55 55 55 54 52 51 50 50 49 48 48 48 48 49 49
56 57 56 55 54 53 52 51 50 51 51 52 52 53 52 51 51 50 50 50 50 51 52 53 53 54 54 54 54 52 51 50 49 49 49 48 48 48 48 48 49 49
59 58 56 55 55 54 53 52 52 53 53 54 54 53 52 51 50 49 49 49 49 50 51 52 53 53 53 53 52 50 49 48 48 48 48 48 48 48 48 49 49 49
60 58 56 55 55 54 53 53 54 54 54 55 54 52 51 50 49 48 48 48 49 50 50 51 52 52 52 51 49 48 47 47 47 47 47 48 48 48 48 49 49 49
59 56 54 53 53 52 53 53 53 54 54 54 53 51 50 50 49 49 49 49 49 49 50 51 51 50 49 48 47 46 46 46 46 46 47 47 48 48 48 49 49 50
55 53 51 50 50 50 51 52 53 53 54 54 53 51 50 50 50 50 50 49 49 49 50 49 48 47 46 45 45 45 45 45 46 46 46 47 47 48 48 49 49 50
49 48 47 47 47 49 50 51 52 53 53 53 52 51 50 50 50 50 49 48 48 48 47 46 45 44 44 44 44 45 45 45 45 45 46 47 47 48 48 49 49 50
45 44 44 44 45 47 48 49 50 51 51 51 50 50 49 49 48 48 47 47 46 45 43 42 42 43 43 44 44 44 44 44 45 45 46 47 47 48 48 49 49 50
42 41 41 42 43 43 44 45 46 47 48 48 47 47 46 46 46 46 45 43 42 41 40 41 42 43 44 44 43 43 43 44 44 45 46 47 47 48 48 48 49 49
39 39 39 40 40 40 41 42 43 44 44 44 44 44 44 44 43 42 41 40 39 39 40 41 42 42 42 42 42 42 43 44 44 45 45 46 47 47 47 48 48 49
37 37 37 38 38 39 40 41 42 42 42 42 42 42 42 41 40 39 38 38 38 39 39 40 40 40 41 41 42 43 43 44 44 44 45 45 46 46 46 46 47 48
34 34 35 35 36 37 38 39 40 41 41 41 41 40 40 39 38 37 38 38 38 38 39 39 40 40 41 42 42 43 43 43 43 43 44 44 45 45 45 44 45 47
31 32 32 33 35 36 38 38 39 39 39 39 39 39 38 37 37 38 38 38 38 38 39 40 40 41 41 41 41 41 41 42 41 41 42 43 43 42 42 44 46 47
29 30 31 32 34 36 37 37 38 38 37 37 37 36 37 37 38 39 39 39 39 39 39 40 40 40 40 39 39 39 40 39 39 40 41 42 42 42 43 45 46 46
28 30 31 32 34 35 37 37 37 37 36 36 36 37 39 39 39 39 39 39 39 39 38 38 38 37 37 37 38 39 39 39 40 41 43 44 44 44 45 45 46 47
28 30 31 33 35 36 37 37 35 35 36 37 37 38 38 38 38 38 39 39 39 38 37 36 36 35 35 37 39 40 40 41 42 44 46 46 47 47 46 46 47 50
29 30 32 34 35 36 36 35 35 35 36 37 37 36 36 37 37 38 38 38 37 36 36 35 34 34 35 37 39 41 42 44 45 46 47 48 48 47 46 46 47 50
30 31 33 35 36 37 37 36 36 36 36 37 37 37 36 36 35 36 36 36 36 36 35 35 33 33 35 37 39 42 43 44 45 46 47 47 47 46 46 45 47 50
31 33 35 37 38 39 38 37 36 36 36 37 36 35 34 33 33 34 34 35 35 36 36 34 33 33 35 37 40 43 44 44 45 46 47 46 45 45 45 46 49 51
34 35 37 38 39 39 38 37 36 36 36 35 34 33 32 31 32 33 34 35 35 36 36 34 33 34 36 38 42 45 45 45 45 47 47 46 44 45 46 48 50 52
36 36 37 38 39 39 38 37 36 35 35 35 35 33 30 30 33 35 36 36 35 35 35 34 34 36 37 41 46 47 46 46 47 49 48 46 45 46 48 49 51 51
37 36 36 38 38 39 39 38 36 36 37 37 36 32 30 32 36 37 37 34 33 34 33 33 35 37 40 45 48 47 46 48 51 51 49 47 47 49 50 51 52 51
37 36 37 38 38 39 38 38 37 38 38 38 35 31 30 32 34 36 36 35 33 33 33 33 35 38 43 48 49 47 48 52 54 53 51 50 51 52 53 52 52 52
38 38 38 39 39 39 38 38 38 39 38 37 34 31 30 30 31 35 40 40 37 35 35 35 37 41 46 49 49 49 52 54 54 53 52 53 53 54 54 53 53 53
39 40 40 40 39 38 38 38 39 39 38 37 34 31 31 32 31 35 42 44 42 40 40 39 39 42 46 48 48 51 54 56 54 53 53 53 54 54 54 53 53 54